[[{"header":{"parameterUnit":"m.s-1","parameterCategory":1,"la1":31.0,"la2":29.5877,"lo1":-88.7671,"lo2":-86.6584,"dy":0.0162,"dx":0.0185,"nx":115,"ny":88,"refTime":"2024-07-28T06:00:00:Z","depth":0,"parameterNumber":2,"parameterNumberName":"U-component_of_WINDS"},"data":[0.0,0.0,0.0,0.0,0.0,0.0,0.0,0.0,0.0,0.0,0.0,0.0,0.0,0.0,0.0,0.0,0.0,0.0,0.0,0.0,0.0,0.0,0.0,0.0,0.0,0.0,0.0,0.0,0.0,0.0,0.0,0.0,0.0,0.0,0.0,0.0,0.0,0.0,0.0,0.0,0.0,0.0,0.0,0.0,0.0,0.0,0.0,0.0,0.0,0.0,0.0,0.0,0.0,0.0,0.0,0.0,0.0,0.0,0.0,0.0,0.0,0.0,0.0,0.0,0.0,0.0,0.0,0.0,0.0,0.0,0.0,0.0,0.0,0.0,0.0,0.0,0.0,0.0,0.0,0.0,0.0,0.0,0.0,0.0,0.0,0.0,0.0,0.0,0.0,0.0,0.0,0.0,0.0,0.0,0.0,0.0,0.0,0.0,0.0,0.0,0.0,0.0,0.0,0.0,0.0,0.0,0.0,0.0,0.0,0.0,0.0,0.0,0.0,0.0,0.0,0.0,0.0,0.0,0.0,0.0,0.0,0.0,0.0,0.0,0.0,0.0,0.0,0.0,0.0,0.0,0.0,0.0,0.0,0.0,0.0,0.0,0.0,0.0,0.0,0.0,0.0,0.0,0.0,0.0,0.0,0.0,0.0,0.0,0.0,0.0,0.0,0.0,0.0,0.0,0.0,0.0,0.0,0.0,0.0,0.0,0.0,0.0,0.0,0.0,0.0,0.0,0.0,0.0,0.0,0.0,0.0,0.0,0.0,0.0,0.0,0.0,0.0,0.0,0.0,0.0,0.0,0.0,0.0,0.0,0.0,0.0,0.0,0.0,0.0,0.0,0.0,0.0,0.0,0.0,0.0,0.0,0.0,0.0,0.0,0.0,0.0,0.0,0.0,0.0,0.0,0.0,0.0,0.0,0.0,0.0,0.0,0.0,0.0,0.0,0.0,0.0,0.0,0.0,0.0,0.0,0.0,0.0,0.0,0.0,0.0,0.0,0.0,0.0,0.0,0.0,0.0,0.0,0.0,0.0,0.0,0.0,0.0,0.0,0.0,0.0,0.0,0.0,0.0,0.0,0.0,0.0,0.0,0.0,0.0,0.0,0.0,0.0,0.0,0.0,0.0,0.0,0.0,0.0,0.0,0.0,0.0,0.0,0.0,0.0,0.0,0.0,0.0,0.0,0.0,0.0,0.0,0.0,0.0,0.0,0.0,0.0,0.0,0.0,0.0,0.0,0.0,0.0,0.0,0.0,0.0,0.0,0.0,0.0,0.0,0.0,0.0,0.0,0.0,0.0,0.0,0.0,0.0,0.0,0.0,0.0,0.0,0.0,0.0,0.0,0.0,0.0,0.0,0.0,0.0,0.0,0.0,0.0,0.0,0.0,0.0,0.0,0.0,0.0,0.0,0.0,0.0,0.0,0.0,0.0,0.0,0.0,0.0,0.0,0.0,0.0,0.0,0.0,0.0,0.0,0.0,0.0,0.0,0.0,0.0,0.0,0.0,0.0,0.0,0.0,0.0,0.0,0.0,0.0,0.0,0.0,0.0,0.0,0.0,0.0,0.0,0.0,0.0,0.0,0.0,0.0,0.0,0.0,0.0,0.0,0.0,0.0,0.0,0.0,0.0,0.0,0.0,0.0,0.0,0.0,0.0,0.0,0.0,0.0,0.0,0.0,0.0,0.0,0.0,0.0,0.0,0.0,0.0,0.0,0.0,0.0,0.0,0.0,0.0,0.0,0.0,0.0,0.0,0.0,0.0,0.0,0.0,0.0,0.0,0.0,0.0,0.0,0.0,0.0,0.0,0.0,0.0,0.0,0.0,0.0,0.0,0.0,0.0,0.0,0.0,0.0,0.0,0.0,0.0,0.0,0.0,0.0,0.0,0.0,0.0,0.0,0.0,0.0,0.0,0.0,0.0,0.0,0.0,0.0,0.0,0.0,0.0,0.0,0.0,0.0,0.0,0.0,0.0,0.0,0.0,0.0,0.0,0.0,0.0,0.0,0.0,0.0,0.0,0.0,0.0,0.0,0.0,0.0,0.0,0.0,0.0,0.0,0.0,0.0,0.0,0.0,0.0,0.0,0.0,0.0,0.0,0.0,0.0,0.0,0.0,0.0,0.0,0.0,0.0,0.0,0.0,0.0,0.0,0.0,0.0,0.0,0.0,0.0,0.0,0.0,0.0,0.0,0.0,0.0,0.0,0.0,0.0,0.0,0.0,0.0,0.0,0.0,0.0,0.0,0.0,0.0,0.0,0.0,0.0,0.0,0.0,0.0,0.0,0.0,0.0,0.0,0.0,0.0,0.0,0.0,0.0,0.0,0.0,0.0,0.0,0.0,0.0,0.0,0.0,0.0,0.0,0.0,0.0,0.0,0.0,0.0,0.0,0.0,0.0,0.0,0.0,0.0,0.0,0.0,0.0,0.0,0.0,0.0,0.0,0.0,0.0,0.0,0.0,0.0,0.0,0.0,0.0,0.0,0.0,0.0,0.0,0.0,0.0,0.0,0.0,0.0,0.0,0.0,0.0,0.0,0.0,0.0,0.0,0.0,0.0,0.0,0.0,0.0,0.0,0.0,0.0,0.0,0.0,0.0,0.0,0.0,0.0,0.0,0.0,0.0,0.0,0.0,0.0,0.0,0.0,0.0,0.0,0.0,0.0,0.0,0.0,0.0,0.0,0.0,0.0,0.0,0.0,0.0,0.0,0.0,0.0,0.0,0.0,0.0,0.0,0.0,0.0,0.0,0.0,0.0,0.0,0.0,0.0,0.0,0.0,0.0,0.0,0.0,0.0,0.0,0.0,0.0,0.0,0.0,0.0,0.0,0.0,0.0,0.0,0.0,0.0,0.0,0.0,0.0,0.0,0.0,0.0,0.0,0.0,0.0,0.0,0.0,0.0,0.0,0.0,0.0,0.0,0.0,0.0,0.0,0.0,0.0,0.0,0.0,0.0,0.0,0.0,0.0,0.0,0.0,0.0,0.0,0.0,0.0,0.0,0.0,0.0,0.0,0.0,0.0,0.0,0.0,0.0,0.0,0.0,0.0,0.0,0.0,0.0,0.0,0.0,0.0,0.0,0.0,0.0,0.0,0.0,0.0,0.0,0.0,0.0,0.0,0.0,0.0,0.0,0.0,0.0,0.0,0.0,0.0,0.0,0.0,0.0,0.0,0.0,0.0,0.0,0.0,0.0,0.0,0.0,0.0,0.0,0.0,0.0,0.0,0.0,0.0,0.0,0.0,0.0,0.0,0.0,0.0,0.0,0.0,0.0,0.0,0.0,0.0,0.0,0.0,0.0,0.0,0.0,0.0,0.0,0.0,0.0,0.0,0.0,0.0,0.0,0.0,0.0,0.0,0.0,0.0,0.0,0.0,0.0,0.0,0.0,0.0,0.0,0.0,0.0,0.0,0.0,0.0,0.0,0.0,0.0,0.0,0.0,0.0,0.0,0.0,0.0,0.0,0.0,0.0,0.0,0.0,0.0,0.0,0.0,0.0,0.0,0.0,0.0,0.0,0.0,0.0,0.0,0.0,0.0,0.0,0.0,0.0,0.0,0.0,0.0,0.0,0.0,0.0,0.0,0.0,0.0,0.0,0.0,0.0,0.0,0.0,0.0,0.0,0.0,0.0,0.0,0.0,0.0,0.0,0.0,0.0,0.0,0.0,0.0,0.0,0.0,0.0,0.0,0.0,0.0,0.0,0.0,0.0,0.0,0.0,0.0,0.0,0.0,0.0,0.0,0.0,0.0,0.0,0.0,0.0,0.0,0.0,0.0,0.0,0.0,0.0,0.0,0.0,0.0,0.0,0.0,0.0,0.0,0.0,0.0,0.0,0.0,0.0,0.0,0.0,0.0,0.0,0.0,0.0,0.0,0.0,0.0,0.0,0.0,0.0,0.0,0.0,0.0,0.0,0.0,0.0,0.0,0.0,0.0,0.0,0.0,0.0,0.0,0.0,0.0,0.0,0.0,0.0,0.0,0.0,0.0,0.0,0.0,0.0,0.0,0.0,0.0,0.0,0.0,0.0,0.0,0.0,0.0,0.0,0.0,0.0,0.0,0.0,0.0,0.0,0.0,0.0,0.0,0.0,0.0,0.0,0.0,0.0,0.0,0.0,0.0,0.0,0.0,0.0,0.0,0.0,0.0,0.0,0.0,0.0,0.0,0.0,0.0,0.0,0.0,0.0,0.0,0.0,0.0,0.0,0.0,0.0,0.0,0.0,0.0,0.0,0.0,0.0,0.0,0.0,0.0,0.0,0.0,0.0,0.7781,0.0,0.0,0.0,0.0,0.0,0.0,0.0,0.0,0.0,0.0,0.0,0.0,0.0,0.0,0.0,0.0,0.0,0.0,0.0,0.0,0.0,0.0,0.0,0.0,0.0,0.0,0.0,0.0,0.0,0.0,0.0,0.0,0.0,0.0,0.0,0.0,0.0,0.0,0.0,0.0,0.0,0.0,0.0,0.0,0.0,0.0,0.0,0.0,0.0,0.0,0.0,0.0,0.0,0.0,0.0,0.0,0.0,0.0,0.0,0.0,0.0,0.0,0.0,0.0,0.0,0.0,0.0,0.0,0.0,0.0,0.0,0.0,0.0,0.0,0.0,0.0,0.0,0.0,0.0,0.0,0.0,0.0,0.0,0.0,0.0,0.0,0.0,0.0,0.0,0.0,0.0,0.0,0.0,0.0,0.0,0.0,0.0,0.0,0.0,0.0,0.0,0.0,0.0,0.0,0.0,0.0,0.0,0.0,0.0,0.0,0.88,0.8778,0.8861,0.8474,0.7566,0.0,0.0,0.0,0.0,0.0,0.0,0.0,0.0,0.0,0.0,0.0,0.0,0.0,0.0,0.0,0.0,0.0,0.0,0.0,0.0,0.0,0.0,0.0,0.0,0.0,0.0,0.0,0.0,0.0,0.0,0.0,0.0,0.0,0.0,0.0,0.0,0.0,0.0,0.0,0.0,0.0,0.0,0.0,0.0,0.0,0.0,0.0,0.0,0.0,0.0,0.0,0.0,0.0,0.0,0.0,0.0,0.0,0.0,0.0,0.0,0.0,0.0,0.0,0.0,0.0,0.0,0.0,0.0,0.0,0.0,0.0,0.0,0.0,0.0,0.0,0.0,0.0,0.0,0.0,0.0,0.0,0.0,0.0,0.0,0.0,0.0,0.0,0.0,0.0,0.0,0.0,0.0,0.0,0.0,0.0,0.0,0.0,0.0,0.0,0.0,0.0,0.0,0.0,0.0,0.0,0.0,0.0,0.0,0.0,0.0,0.0,0.0,0.8484,0.8075,0.7428,0.0,0.0,0.0,0.0,0.0,0.0,0.0,0.0,0.0,0.0,0.0,0.0,0.0,0.0,0.0,0.0,0.0,0.0,0.0,0.0,0.0,0.0,0.0,0.0,0.0,0.0,0.0,0.0,0.0,0.0,0.0,0.0,0.0,0.0,0.0,0.0,0.0,0.0,0.0,0.0,0.0,0.0,0.0,0.0,0.0,0.0,0.0,0.0,0.0,0.0,0.0,0.0,0.0,0.0,0.0,0.0,0.0,0.0,0.0,0.0,0.0,0.0,0.0,0.0,0.0,0.0,0.0,0.0,0.0,0.0,0.0,0.0,0.0,0.0,0.0,0.0,0.0,0.0,0.0,0.0,0.0,0.0,0.0,0.0,0.0,0.0,0.0,0.0,0.0,0.0,0.0,0.0,0.0,0.0,0.0,0.0,0.0,0.0,0.0,0.0,0.0,0.0,0.0,0.0,0.0,0.0,0.0,0.0,0.0,0.0,0.8037,0.8251,0.8673,0.0,0.7554,0.0,0.0,0.0,0.0,0.0,0.0,0.0,0.0,0.0,0.0,0.0,0.0,0.0,0.0,0.0,0.0,0.0,0.0,0.0,0.0,0.0,0.0,0.0,0.0,0.0,0.0,0.0,0.0,0.0,0.0,0.0,0.0,0.0,0.0,0.0,0.0,0.0,0.0,0.0,0.0,0.0,0.0,0.0,0.0,0.0,0.0,0.0,0.0,0.0,0.0,0.0,0.0,0.0,0.0,0.0,0.0,0.0,0.0,0.0,0.0,0.0,0.0,0.0,0.0,0.0,0.0,0.0,0.0,0.0,0.0,0.0,0.0,0.0,0.0,0.0,0.0,0.0,0.0,0.0,0.0,0.0,0.0,0.0,0.0,0.0,0.0,0.0,0.0,0.0,0.0,0.0,0.0,0.0,0.0,0.0,0.0,0.0,0.0,0.0,0.0,0.0,0.0,0.0,0.0,0.0,0.0,0.0,0.0,0.0,0.0,0.7692,0.7773,0.7738,0.7414,0.0,0.0,0.0,0.0,0.0,0.0,0.0,0.0,0.0,0.0,0.0,0.0,0.0,0.0,0.0,0.0,0.0,0.0,0.0,0.0,0.0,0.0,0.0,0.0,0.0,0.0,0.0,0.0,0.0,0.0,0.0,0.0,0.0,0.0,0.0,0.0,0.0,0.0,0.0,0.0,0.0,0.0,0.0,0.0,0.0,0.0,0.0,0.0,0.0,0.0,0.0,0.0,0.0,0.0,0.0,0.0,0.0,0.0,0.0,0.0,0.0,0.0,0.0,0.0,0.0,0.0,0.0,0.0,0.0,0.0,0.0,0.0,0.0,0.0,0.0,0.0,0.0,0.0,0.0,0.0,0.0,0.0,0.0,0.0,0.0,0.0,0.0,0.0,0.0,0.0,0.0,0.0,0.0,0.0,0.0,0.0,0.0,0.0,0.0,0.0,0.0,0.0,0.0,0.0,0.0,0.0,0.0,0.0,0.0,0.0,0.7369,0.7369,0.7483,0.7173,0.6764,0.6319,0.0,0.0,0.0,0.0,0.0,0.0,0.0,0.0,0.0,0.0,0.0,0.0,0.0,0.0,0.0,0.0,0.0,0.0,0.0,0.0,0.0,0.0,0.0,0.0,0.0,0.0,0.0,0.0,0.0,0.0,0.0,0.0,0.0,0.0,0.0,0.0,0.0,0.0,0.0,0.0,0.0,0.0,0.0,0.0,0.0,0.0,0.0,0.0,0.0,0.0,0.0,0.0,0.0,0.0,0.0,0.0,0.0,0.0,0.0,0.0,0.0,0.0,0.0,0.0,0.0,0.0,0.0,0.0,0.0,0.0,0.0,0.0,0.0,0.0,0.0,0.0,0.0,0.0,0.0,0.0,0.0,0.0,0.0,0.0,0.0,0.0,0.0,0.0,0.0,0.0,0.0,0.0,0.0,0.0,0.0,0.0,0.0,0.0,0.0,0.0,0.0,0.0,0.0,0.0,0.0,0.0,0.0,0.0,0.7312,0.6989,0.7048,0.752,0.7473,0.7048,0.0,0.0,0.0,0.0,0.0,0.0,0.0,0.0,0.0,0.0,0.0,0.0,0.0,0.0,0.0,0.0,0.0,0.0,0.0,0.0,0.0,0.0,0.0,0.0,0.0,0.0,0.0,0.0,0.0,0.0,0.0,0.0,0.0,0.0,0.0,0.0,0.0,0.0,0.0,0.0,0.0,0.0,0.0,0.0,0.0,0.0,0.0,0.0,0.0,0.0,0.0,0.0,0.0,0.0,0.0,0.0,0.0,0.0,0.0,0.0,0.0,0.0,0.0,0.0,0.0,0.0,0.0,0.0,0.0,0.0,0.0,0.0,0.0,0.0,0.0,0.0,0.0,0.0,0.0,0.0,0.0,0.0,0.0,0.0,0.0,0.0,0.0,0.0,0.0,0.0,0.0,0.0,0.0,0.0,0.0,0.0,0.0,0.0,0.0,0.0,0.0,0.0,0.0,0.0,0.0,0.0,0.0,0.0,0.0,0.6732,0.6594,0.7076,0.8117,0.7188,0.6685,0.0,0.0,0.0,0.0,0.0,0.0,0.0,0.0,0.0,0.0,0.0,0.0,0.0,0.0,0.0,0.0,0.0,0.0,0.0,0.0,0.0,0.0,0.0,0.0,0.0,0.0,0.0,0.0,0.0,0.0,0.0,0.0,0.0,0.0,0.0,0.0,0.0,0.0,0.0,0.0,0.0,0.0,0.0,0.0,0.0,0.0,0.0,0.0,0.0,0.0,0.0,0.0,0.0,0.0,0.0,0.0,0.0,0.0,0.0,0.0,0.0,0.0,0.0,0.0,0.0,0.0,0.0,0.0,0.0,0.0,0.0,0.0,0.0,0.0,0.0,0.0,0.0,0.0,0.0,0.0,0.0,0.0,0.0,0.0,0.0,0.0,0.0,0.0,0.0,0.0,0.0,0.0,0.0,0.0,0.0,0.0,0.0,0.0,0.0,0.0,0.0,0.0,0.0,0.0,0.0,0.0,0.0,0.0,0.0,0.6576,0.0,0.7281,0.8003,0.6984,0.6487,0.0,0.0,0.0,0.0,0.0,0.0,0.0,0.0,0.0,0.0,0.0,0.0,0.0,0.0,0.0,0.0,0.0,0.0,0.0,0.0,0.0,0.0,0.0,0.0,0.0,0.0,0.0,0.0,0.0,0.0,0.0,0.0,0.0,0.0,0.0,0.0,0.0,0.0,0.0,0.0,0.0,0.0,0.0,0.0,0.0,0.0,0.0,0.0,0.0,0.0,0.0,0.0,0.0,0.0,0.0,0.0,0.0,0.0,0.0,0.0,0.0,0.0,0.0,0.0,0.0,0.0,0.0,0.0,0.0,0.0,0.0,0.0,0.0,0.0,0.0,0.0,0.0,0.0,0.0,0.0,0.0,0.0,0.0,0.0,0.0,0.0,0.0,0.0,0.0,0.0,0.0,0.0,0.0,0.0,0.0,0.0,0.0,0.0,0.0,0.0,0.0,0.0,0.0,0.0,0.0,0.0,0.0,0.0,0.6044,0.6968,0.7563,0.762,0.7087,0.701,0.6519,0.0,0.0,0.0,0.0,0.0,0.0,0.0,0.0,0.0,0.0,0.0,0.0,0.0,0.0,0.0,0.0,0.0,0.0,0.0,0.0,0.0,0.0,0.0,0.0,0.0,0.0,0.0,0.0,0.0,0.0,0.0,0.0,0.0,0.0,0.0,0.0,0.0,0.0,0.0,0.0,0.0,0.0,0.0,0.0,0.0,0.0,0.0,0.0,0.0,0.0,0.0,0.0,0.0,0.0,0.0,0.0,0.0,0.0,0.0,0.0,0.0,0.0,0.0,0.0,0.0,0.0,0.0,0.0,0.0,0.0,0.0,0.0,0.0,0.0,0.0,0.0,0.0,0.0,0.0,0.0,0.0,0.0,0.0,0.0,0.0,0.0,0.0,0.0,0.0,0.0,0.0,0.0,0.0,0.0,0.0,0.0,0.0,0.0,0.0,0.0,0.0,0.0,0.0,0.0,0.0,0.0,0.0,0.0,0.0,0.7337,0.7575,0.7999,0.8569,0.7312,0.6673,0.0,0.0,0.0,0.0,0.0,0.0,0.0,0.0,0.0,0.0,0.0,0.0,0.0,0.0,0.0,0.0,0.0,0.0,0.0,0.0,0.0,0.0,0.0,0.0,0.0,0.0,0.0,0.0,0.0,0.0,0.0,0.0,0.0,0.0,0.0,0.0,0.0,0.0,0.0,0.0,0.0,0.0,0.0,0.0,0.0,0.0,0.0,0.0,0.0,0.0,0.0,0.0,0.0,0.0,0.0,0.0,0.0,0.0,0.0,0.0,0.0,0.0,0.0,0.0,0.0,0.0,0.0,0.0,0.0,0.0,0.0,0.0,0.0,0.0,0.0,0.0,0.0,0.0,0.0,0.0,0.0,0.0,0.0,0.0,0.0,0.0,0.0,0.0,0.0,0.0,0.0,0.0,0.0,0.0,0.0,0.0,0.0,0.0,0.0,0.0,0.0,0.0,0.0,0.0,0.0,0.0,0.0,0.0,0.0,0.8346,0.831,0.8472,0.8942,0.7722,0.718,0.7383,0.0,0.0,0.0,0.0,0.0,0.0,0.0,0.0,0.0,0.0,0.0,0.0,0.0,0.0,0.0,0.0,0.0,0.0,0.0,0.0,0.0,0.0,0.0,0.0,0.0,0.0,0.0,0.0,0.0,0.0,0.0,0.0,0.0,0.0,0.0,0.0,0.0,0.0,0.0,0.0,0.0,0.0,0.0,0.0,0.0,0.0,0.0,0.0,0.0,0.0,0.0,0.0,0.0,0.0,0.0,0.0,0.0,0.0,0.0,0.0,0.0,0.0,0.0,0.0,0.0,0.0,0.0,0.0,0.0,0.0,0.0,0.0,0.0,0.0,0.0,0.0,0.0,0.0,0.0,0.0,0.0,0.0,0.0,0.0,0.0,0.0,0.0,0.0,0.0,0.0,0.0,0.0,0.0,0.0,0.0,0.0,0.0,0.0,0.0,0.0,0.0,0.0,0.0,0.0,0.0,0.0,0.0,0.0,0.9813,0.9613,0.9159,0.8472,0.833,0.7994,0.0,0.0,0.0,0.0,0.0,0.0,0.0,0.0,0.0,0.0,0.0,0.0,0.0,0.0,0.0,0.0,0.0,0.0,0.0,0.0,0.0,0.0,0.0,0.0,0.0,0.0,0.0,0.0,0.0,0.0,0.0,0.0,0.0,0.0,0.0,0.0,0.0,0.0,0.0,0.0,0.0,0.0,0.0,0.0,0.0,0.0,0.0,0.0,0.0,0.0,0.0,0.0,0.0,0.0,0.0,0.0,0.0,0.0,0.0,0.0,0.0,0.0,0.0,0.0,0.0,0.0,0.0,0.0,0.0,0.0,0.0,0.0,0.0,0.0,0.0,0.0,0.0,0.0,0.0,0.0,0.0,0.0,0.0,0.0,0.0,0.0,0.0,0.0,0.0,0.0,0.0,0.0,0.0,0.0,0.0,0.0,0.0,0.0,0.0,0.0,0.0,0.0,0.0,0.0,0.0,0.0,0.0,0.0,0.0,1.0105,1.0566,1.0787,1.0759,0.9629,0.8954,0.0,0.0,0.0,0.0,0.0,0.0,0.0,0.0,0.0,0.0,0.0,0.0,0.0,0.0,0.0,0.0,0.0,0.0,0.0,0.0,0.0,0.0,0.0,0.0,0.0,0.0,0.0,0.0,0.0,0.0,0.0,0.0,0.0,0.0,0.0,0.0,0.0,0.0,0.0,0.0,0.0,0.0,0.0,0.0,0.0,0.0,0.0,0.0,0.0,0.0,0.0,0.0,0.0,0.0,0.0,0.0,0.0,0.0,0.0,0.0,0.0,0.0,0.0,0.0,0.0,0.0,0.0,0.0,0.0,0.0,0.0,0.0,0.0,0.0,0.0,0.0,0.0,0.0,0.0,0.0,0.0,0.0,0.0,0.0,0.0,0.0,0.0,0.0,0.0,0.0,0.0,0.0,0.0,0.0,0.0,0.0,0.0,0.0,0.0,0.0,0.0,0.0,0.0,0.0,0.0,0.0,0.0,0.0,1.0626,1.0881,1.1505,1.1921,1.2196,1.0885,1.0029,0.0,0.0,0.0,0.0,0.0,0.0,0.0,0.0,0.0,0.0,0.0,0.0,0.0,0.0,0.0,0.0,0.0,0.0,0.0,0.0,0.0,0.0,0.0,0.0,0.0,0.0,0.0,0.0,0.0,0.0,0.0,0.0,0.0,0.0,0.0,0.0,0.0,0.0,0.0,0.0,0.0,0.0,0.0,0.0,0.0,0.0,0.0,0.0,0.0,0.0,0.0,0.0,0.0,0.0,0.0,0.0,0.0,0.0,0.0,0.0,0.0,0.0,0.0,0.0,0.0,0.0,0.0,0.0,0.0,0.0,0.0,0.0,0.0,0.0,0.0,0.0,0.0,0.0,0.0,0.0,0.0,0.0,0.0,0.0,0.0,0.0,0.0,0.0,0.0,0.0,0.0,0.0,0.0,0.0,0.0,0.0,0.0,0.0,0.0,0.0,0.0,0.0,0.0,0.0,0.0,0.0,0.0,0.0,1.0979,1.1868,1.2291,1.2651,1.2916,1.195,1.1057,0.0,0.0,0.0,0.0,0.0,0.0,0.0,0.0,0.0,0.0,0.0,0.0,0.0,0.0,0.0,0.0,0.0,0.0,0.0,0.0,0.0,0.0,0.0,0.0,0.0,0.0,0.0,0.0,0.0,0.0,0.0,0.0,0.0,0.0,0.0,0.0,0.0,0.0,0.0,0.0,0.0,0.0,0.0,0.0,0.0,0.0,0.0,0.0,0.0,0.0,0.0,0.0,0.0,0.0,0.0,0.0,0.0,0.0,0.0,0.0,0.0,0.0,0.0,0.0,0.0,0.0,0.0,0.0,0.0,0.0,0.0,0.0,0.0,0.0,0.0,0.0,0.0,0.0,0.0,0.0,0.0,0.0,0.0,0.0,0.0,0.0,0.0,0.0,0.0,0.0,0.0,0.0,0.0,0.0,0.0,0.0,0.0,0.0,0.0,0.0,0.0,0.0,0.0,0.0,0.0,0.0,0.0,0.0,1.1511,1.2411,1.247,1.2738,1.3276,1.2077,1.1216,0.0,0.0,0.0,0.0,0.0,0.0,0.0,0.0,0.0,0.0,0.0,0.0,0.0,0.0,0.0,0.0,0.0,0.0,0.0,0.0,0.0,0.0,0.0,0.0,0.0,0.0,0.0,0.0,0.0,0.0,0.0,0.0,0.0,0.0,0.0,0.0,0.0,0.0,0.0,0.0,0.0,0.0,0.0,0.0,0.0,0.0,0.0,0.0,0.3927,0.0,0.0,0.0,0.0,0.0,0.0,0.0,0.0,0.0,0.0,0.0,0.0,0.0,0.0,0.0,0.0,0.0,0.0,0.0,0.0,0.0,0.0,0.0,0.0,0.0,0.0,0.0,0.0,0.0,0.0,0.0,0.0,0.0,0.0,0.0,0.0,0.0,0.0,0.0,0.0,0.0,0.0,0.0,0.0,0.0,0.0,0.0,0.0,0.0,0.0,0.0,0.0,0.0,0.0,0.0,0.0,0.0,0.0,0.0,1.1827,1.2676,1.2852,1.3,1.3113,1.2379,1.1672,0.0,0.0,0.0,0.0,0.0,0.0,0.0,0.0,0.0,0.0,0.0,0.0,0.0,0.0,0.0,0.0,0.0,0.0,0.0,0.0,0.0,0.0,0.0,0.0,0.0,0.0,0.0,0.0,0.0,0.0,0.0,0.0,0.0,0.0,0.0,0.0,0.0,0.0,0.0,0.0,0.0,0.0,0.0,0.0,0.0,0.0,0.0,0.0,0.0,0.0,0.0,0.0,0.0,0.0,0.0,0.0,0.0,0.0,0.0,0.0,0.0,0.0,0.0,0.0,0.0,0.0,0.0,0.0,0.0,0.0,0.0,0.0,0.0,0.0,0.0,0.0,0.0,0.0,0.0,0.0,0.0,0.0,0.0,0.0,0.0,0.0,0.0,0.0,0.0,0.0,0.0,0.0,0.0,0.0,0.0,0.0,0.0,0.0,0.0,0.0,0.0,0.0,0.0,0.0,0.0,0.0,0.0,1.1793,1.2077,1.2985,1.322,1.322,1.2965,1.2755,1.2139,1.1106,0.0,0.0,0.0,0.0,0.0,0.0,0.0,0.0,0.0,0.0,0.0,0.0,0.0,0.0,0.0,0.0,0.0,0.0,0.0,0.0,0.0,0.0,0.0,0.0,0.0,0.0,0.0,0.0,0.0,0.0,0.0,0.0,0.0,0.0,0.0,0.0,0.0,0.0,0.4292,0.4108,0.0,0.0,0.0,0.0,0.0,0.0,0.0,0.0,0.3697,0.0,0.0,0.0,0.0,0.0,0.0,0.0,0.0,0.0,0.0,0.0,0.0,0.0,0.0,0.0,0.0,0.0,0.0,0.0,0.0,0.0,0.0,0.0,0.0,0.0,0.0,0.0,0.0,0.0,0.0,0.0,0.0,0.0,0.0,0.0,0.0,0.0,0.0,0.0,0.0,0.0,0.0,0.0,0.0,0.0,0.0,0.0,0.0,0.0,0.0,0.0,0.0,0.0,0.0,0.0,0.0,1.2452,1.1895,1.2246,1.3615,1.322,1.3069,1.3276,1.3017,1.2328,1.1271,0.0,0.0,0.0,0.0,0.0,0.0,0.0,0.0,0.0,0.0,0.0,0.0,0.0,0.0,0.0,0.0,0.0,0.0,0.0,0.0,0.0,0.0,0.0,0.0,0.0,0.0,0.0,0.0,0.0,0.0,0.0,0.0,0.0,0.0,0.0,0.0,0.0,0.0,0.0,0.4049,0.4103,0.0,0.0,0.0,0.0,0.0,0.0,0.0,0.0,0.3556,0.0,0.0,0.0,0.0,0.0,0.0,0.0,0.0,0.0,0.0,0.0,0.0,0.0,0.0,0.0,0.0,0.0,0.0,0.0,0.0,0.0,0.0,0.0,0.0,0.0,0.0,0.0,0.0,0.0,0.0,0.0,0.0,0.0,0.0,0.0,0.0,0.0,0.0,0.0,0.0,0.0,0.0,0.0,0.0,0.0,0.0,0.0,0.0,0.0,0.0,0.0,0.0,0.0,0.0,0.0,1.2417,1.2086,1.2432,1.3735,1.3539,1.3472,1.3594,1.2851,1.2134,0.0,0.0,0.0,0.0,0.0,0.0,0.0,0.0,0.0,0.0,0.0,0.0,0.0,0.0,0.0,0.0,0.0,0.0,0.0,0.0,0.0,0.0,0.0,0.0,0.0,0.0,0.0,0.0,0.0,0.0,0.0,0.0,0.0,0.0,0.0,0.0,0.0,0.0,0.0,0.0,0.3985,0.3882,0.3663,0.0,0.0,0.0,0.0,0.0,0.0,0.3368,0.3467,0.0,0.0,0.0,0.0,0.0,0.0,0.0,0.0,0.0,0.0,0.0,0.0,0.0,0.0,0.0,0.0,0.0,0.0,0.0,0.0,0.0,0.0,0.0,0.0,0.0,0.0,0.0,0.0,0.0,0.0,0.0,0.0,0.0,0.0,0.0,0.0,0.0,0.0,0.0,0.0,0.0,0.0,0.0,0.0,0.0,0.0,0.0,0.0,0.0,0.0,0.0,0.0,0.0,0.0,0.0,1.2359,1.216,1.2612,1.3722,1.3775,1.3775,1.3762,1.2693,1.1942,0.0,0.0,0.0,0.0,0.0,0.0,0.0,0.0,0.0,0.0,0.0,0.0,0.0,0.0,0.0,0.0,0.0,0.0,0.0,0.0,0.0,0.0,0.0,0.0,0.0,0.0,0.0,0.0,0.0,0.0,0.0,0.0,0.0,0.0,0.0,0.0,0.0,0.0,0.0,0.0,0.0,0.372,0.3253,0.3212,0.0,0.0,0.0,0.0,0.3424,0.3526,0.0,0.0,0.0,0.0,0.0,0.0,0.0,0.0,0.0,0.0,0.0,0.0,0.0,0.0,0.0,0.0,0.0,0.0,0.0,0.0,0.0,0.0,0.0,0.0,0.0,0.0,0.0,0.0,0.0,0.0,0.0,0.0,0.0,0.0,0.0,0.0,0.0,0.0,0.0,0.0,0.0,0.0,0.0,0.0,0.0,0.0,0.0,0.0,0.0,0.0,0.0,0.0,0.0,0.0,0.0,0.0,1.1971,1.202,1.2581,1.3709,1.3775,1.3775,1.3775,1.2955,1.2157,0.0,0.0,0.0,0.0,0.0,0.0,0.0,0.0,0.0,0.0,0.0,0.0,0.0,0.0,0.0,0.0,0.0,0.0,0.0,0.0,0.0,0.0,0.0,0.0,0.0,0.0,0.0,0.0,0.0,0.0,0.0,0.0,0.0,0.0,0.0,0.0,0.0,0.0,0.0,0.0,0.0,0.3921,0.3303,0.3212,0.3365,0.0,0.0,0.3661,0.4197,0.4096,0.0,0.0,0.0,0.0,0.0,0.0,0.0,0.0,0.0,0.0,0.0,0.0,0.0,0.0,0.0,0.0,0.0,0.0,0.0,0.0,0.0,0.0,0.0,0.0,0.0,0.0,0.0,0.0,0.0,0.0,0.0,0.0,0.0,0.0,0.0,0.0,0.0,0.0,0.0,0.0,0.0,0.0,0.0,0.0,0.0,0.0,0.0,0.0,0.0,0.0,0.0,0.0,0.0,0.0,0.0,0.9726,1.1916,1.2007,1.2581,1.3722,1.3775,1.3775,1.3775,1.2524,1.1583,0.0,0.0,0.0,0.0,0.0,0.0,0.0,0.0,0.0,0.0,0.0,0.0,0.0,0.0,0.0,0.0,0.0,0.0,0.0,0.0,0.0,0.0,0.0,0.0,0.0,0.0,0.0,0.0,0.0,0.0,0.0,0.0,0.0,0.0,0.0,0.0,0.0,0.0,0.0,0.0,0.0,0.0,0.3435,0.3431,0.0,0.0,0.0,0.3474,0.3876,0.0,0.0,0.0,0.0,0.0,0.0,0.0,0.0,0.0,0.0,0.0,0.0,0.0,0.0,0.0,0.0,0.0,0.0,0.0,0.0,0.0,0.0,0.0,0.0,0.0,0.0,0.0,0.0,0.0,0.0,0.0,0.0,0.0,0.0,0.0,0.0,0.0,0.0,0.0,0.0,0.0,0.0,0.0,0.0,0.0,0.0,0.0,0.0,0.0,0.0,0.0,0.0,0.0,0.0,0.0,0.0,0.0,1.1942,1.2105,1.2668,1.3735,1.3775,1.3775,1.3749,1.2233,0.0,0.0,0.0,0.0,0.0,0.0,0.0,0.0,0.0,0.0,0.0,0.0,0.0,0.0,0.0,0.0,0.0,0.0,0.0,0.0,0.0,0.0,0.0,0.0,0.0,0.0,0.0,0.4832,0.0,0.0,0.0,0.0,0.0,0.0,0.0,0.0,0.0,0.0,0.0,0.0,0.0,0.0,0.4007,0.369,0.3727,0.3853,0.0,0.0,0.3402,0.3616,0.3243,0.3101,0.0,0.0,0.0,0.0,0.0,0.0,0.0,0.0,0.0,0.0,0.0,0.0,0.0,0.0,0.0,0.0,0.0,0.0,0.0,0.0,0.0,0.0,0.0,0.0,0.0,0.0,0.0,0.0,0.0,0.0,0.0,0.0,0.0,0.0,0.0,0.0,0.0,0.0,0.0,0.0,0.0,0.0,0.0,0.0,0.0,0.0,0.0,0.0,0.0,0.0,0.0,0.0,0.0,0.0,0.9463,1.1916,1.2383,1.2953,1.3769,1.3775,1.3775,1.3762,1.2555,1.1337,0.0,0.0,0.0,0.0,0.0,0.0,0.0,0.0,0.0,0.0,0.0,0.0,0.0,0.0,0.0,0.0,0.0,0.0,0.0,0.0,0.0,0.0,0.0,0.0,0.0,0.0,0.0,0.0,0.0,0.0,0.0,0.0,0.0,0.0,0.0,0.0,0.0,0.0,0.0,0.0,0.0,0.4446,0.4101,0.4063,0.4129,0.0,0.4014,0.376,0.3691,0.3396,0.3303,0.3616,0.0,0.0,0.0,0.0,0.0,0.0,0.0,0.0,0.0,0.0,0.0,0.0,0.0,0.0,0.0,0.0,0.0,0.0,0.0,0.0,0.0,0.0,0.0,0.0,0.0,0.0,0.0,0.0,0.0,0.0,0.0,0.0,0.0,0.0,0.0,0.0,0.0,0.0,0.0,0.0,0.0,0.0,0.0,0.0,0.0,0.0,0.0,0.0,0.0,0.0,0.0,0.0,0.0,0.9949,1.2257,1.2549,1.3129,1.4065,1.4105,1.4105,1.4105,1.2729,1.146,0.0,0.0,0.0,0.0,0.0,0.0,0.0,0.0,0.0,0.0,0.0,0.0,0.0,0.0,0.0,0.0,0.0,0.0,0.0,0.0,0.0,0.0,0.0,0.0,0.0,0.0,0.0,0.0,0.4811,0.4785,0.4531,0.0,0.0,0.0,0.0,0.0,0.0,0.0,0.0,0.0,0.0,0.4471,0.4466,0.458,0.0,0.0,0.422,0.3767,0.38,0.3166,0.2819,0.3319,0.353,0.0,0.0,0.0,0.0,0.0,0.0,0.0,0.0,0.0,0.0,0.0,0.0,0.0,0.0,0.0,0.0,0.0,0.0,0.0,0.0,0.0,0.0,0.0,0.0,0.0,0.0,0.0,0.0,0.0,0.0,0.0,0.0,0.0,0.0,0.0,0.0,0.0,0.0,0.0,0.0,0.0,0.0,0.0,0.0,0.0,0.0,0.0,0.0,0.0,0.0,0.0,0.0,1.0324,1.2469,1.3024,1.3597,1.4124,1.4138,1.4072,1.3947,1.2808,1.1676,0.0,0.0,0.0,0.0,0.0,0.0,0.0,0.0,0.0,0.0,0.0,0.0,0.0,0.0,0.0,0.0,0.0,0.0,0.0,0.0,0.0,0.0,0.0,0.0,0.0,0.0,0.0,0.0,0.4796,0.4759,0.4674,0.0,0.0,0.0,0.0,0.0,0.0,0.0,0.0,0.0,0.0,0.455,0.4758,0.4924,0.5007,0.5085,0.4498,0.4013,0.3965,0.3215,0.2803,0.3255,0.0,0.0,0.0,0.0,0.0,0.0,0.0,0.0,0.0,0.0,0.0,0.0,0.0,0.0,0.0,0.0,0.0,0.0,0.0,0.0,0.0,0.0,0.0,0.0,0.0,0.0,0.0,1.0207,0.0,0.0,0.9354,0.0,0.0,0.0,0.0,0.0,0.0,0.0,0.0,0.0,0.0,0.0,0.0,0.0,0.0,0.0,0.0,0.0,0.0,0.0,0.0,0.0,0.0,1.0365,1.2483,1.3936,1.4426,1.3854,1.3821,1.3654,1.3288,1.2811,1.1974,1.061,0.0,0.0,0.0,0.0,0.0,0.0,0.0,0.0,0.0,0.0,0.0,0.0,0.0,0.0,0.0,0.0,0.0,0.0,0.0,0.0,0.0,0.0,0.0,0.0,0.0,0.0,0.5222,0.4633,0.4456,0.0,0.0,0.0,0.0,0.0,0.0,0.0,0.0,0.0,0.4423,0.4499,0.47,0.4971,0.5024,0.5014,0.5,0.4875,0.4623,0.416,0.3704,0.3456,0.0,0.0,0.0,0.0,0.0,0.0,0.0,0.0,0.0,0.0,0.0,0.0,0.0,0.0,0.0,0.0,0.0,0.0,0.0,0.0,0.0,0.0,0.0,0.0,0.0,0.0,0.0,1.2643,1.2038,0.0,0.0,0.0,0.0,0.0,0.0,0.0,0.0,0.0,0.0,0.0,1.2673,1.3066,0.0,0.0,0.0,0.0,0.0,0.0,0.0,0.0,0.0,0.0,0.0,0.0,1.086,1.2775,1.3734,1.4306,1.4447,1.4447,1.4383,1.4241,1.3269,1.1814,0.987,0.0,0.0,0.0,0.0,0.0,0.0,0.0,0.0,0.0,0.0,0.0,0.0,0.0,0.0,0.0,0.0,0.0,0.0,0.0,0.0,0.0,0.0,0.0,0.0,0.0,0.6884,0.0,0.0,0.0,0.0,0.0,0.0,0.0,0.0,0.0,0.0,0.5161,0.4876,0.5197,0.5148,0.5149,0.542,0.5588,0.5629,0.0,0.0,0.0,0.0,0.0,0.0,0.0,0.0,0.0,0.0,0.0,0.0,0.0,0.0,0.3991,0.3864,0.3966,0.4046,0.3851,0.0,0.0,0.0,0.0,0.0,0.0,0.0,0.0,0.0,0.0,0.0,0.0,0.0,0.0,1.3783,1.3586,1.294,0.0,0.0,0.0,0.0,0.0,0.0,0.0,0.0,1.4569,1.467,1.4318,1.4668,1.4541,0.0,1.3937,1.3277,0.0,0.0,0.0,0.0,0.0,0.0,0.0,0.0,1.1678,1.3149,1.373,1.4163,1.4538,1.436,1.4195,1.4065,1.3045,1.169,1.002,0.9303,0.8526,0.0,0.0,0.0,0.0,0.0,0.0,0.0,0.0,0.0,0.0,0.0,0.0,0.0,0.0,0.0,0.0,0.0,0.0,0.0,0.0,0.0,0.0,0.0,0.6843,0.0,0.0,0.0,0.0,0.0,0.0,0.0,0.0,0.0,0.6049,0.5418,0.5173,0.562,0.5429,0.5345,0.576,0.0,0.0,0.0,0.0,0.0,0.0,0.0,0.4439,0.4451,0.4233,0.3879,0.3599,0.3292,0.3374,0.4239,0.0,0.0,0.3677,0.3852,0.3891,0.3729,0.3727,0.3759,0.3799,0.3701,0.3678,0.0,0.0,0.0,0.0,0.0,0.0,0.0,0.0,1.4373,1.4415,0.0,1.426,0.0,0.0,0.0,0.0,1.3979,1.4583,0.0,0.0,1.6354,1.6677,1.6649,1.6635,1.634,1.5744,1.5721,1.5117,1.3951,1.2771,0.0,0.0,0.0,0.0,0.0,0.0,1.2724,1.3547,1.3871,1.4066,1.4075,1.3561,1.3057,1.2768,1.2249,1.1696,1.1111,1.0149,0.9319,0.873,0.7744,0.0,0.0,0.0,0.0,0.0,0.0,0.0,0.0,0.0,0.0,0.0,0.0,0.0,0.0,0.0,0.0,0.0,0.0,0.0,0.0,0.6152,0.0,0.0,0.0,0.0,0.0,0.0,0.0,0.0,0.0,0.6484,0.5864,0.571,0.5696,0.5707,0.0,0.0,0.0,0.0,0.561,0.632,0.6139,0.5878,0.5557,0.5187,0.4935,0.4795,0.0,0.0,0.3855,0.353,0.3382,0.3833,0.3545,0.338,0.383,0.4182,0.4322,0.3939,0.3844,0.387,0.3873,0.3565,0.3282,1.8812,0.0,0.0,0.0,0.0,1.7717,1.7983,1.8728,1.766,1.7042,1.6761,1.6157,0.0,0.0,0.0,0.0,0.0,0.0,1.6255,1.641,1.6607,1.6691,1.6691,1.6691,1.6593,1.6396,1.6424,1.6227,1.5924,1.5525,1.4443,1.2756,0.0,0.0,0.0,0.0,1.2994,1.3344,1.3194,1.3354,1.3806,1.3641,1.3399,1.3057,1.2895,1.2439,1.1708,1.1363,1.0606,0.9343,0.8994,0.0,0.0,0.0,0.0,0.0,0.0,0.0,0.0,0.0,0.0,0.0,0.0,0.0,0.0,0.0,0.0,0.0,0.0,0.0,0.7358,0.6819,0.6648,0.0,0.0,0.0,0.0,0.0,0.0,0.0,0.0,0.0,0.6455,0.609,0.6006,0.0,0.0,0.6097,0.6266,0.6314,0.633,0.6396,0.6031,0.0,0.5783,0.5121,0.4561,0.4605,0.3996,0.3575,0.3647,0.3585,0.3533,0.3638,0.3587,0.3533,0.3633,0.364,0.3577,0.3421,0.349,0.3505,0.3464,0.347,0.3479,2.0653,1.9936,1.9459,1.9473,1.974,1.9431,1.9698,2.033,1.9277,1.8812,1.8686,1.8054,1.7351,1.66,1.6382,0.0,0.0,0.0,1.7913,1.8166,1.7885,1.7787,1.7759,1.7534,1.7281,1.7056,1.7056,1.6916,1.6691,1.6691,1.5932,1.453,0.0,0.0,1.4184,1.3952,1.367,1.335,1.3116,1.3091,1.331,1.331,1.3195,1.3,1.3,1.2749,1.2239,1.1989,1.1423,1.0374,0.9809,0.8829,0.0,0.0,0.0,0.0,0.0,0.0,0.0,0.0,0.0,0.0,0.0,0.5908,0.5664,0.0,0.0,0.0,0.6475,0.6969,0.7625,0.7222,0.0,0.0,0.0,0.0,0.0,0.0,0.0,0.7511,0.7811,0.7785,0.7081,0.6788,0.6654,0.667,0.6509,0.646,0.6643,0.0,0.6616,0.6659,0.6305,0.5918,0.5658,0.5035,0.4439,0.4104,0.4045,0.386,0.3641,0.3585,0.3585,0.3585,0.3585,0.3585,0.3585,0.346,0.3365,0.3362,0.342,0.3474,0.3425,0.3536,0.3588,2.217,2.2086,2.1004,2.054,2.054,2.054,2.054,2.0484,1.9852,1.9908,2.04,1.9754,1.9474,1.9432,1.8911,0.0,1.946,1.9474,1.9768,2.0372,1.9782,1.9474,1.9432,1.8843,1.8293,1.7745,1.7688,1.7393,1.6874,1.6845,1.6831,1.6831,1.6323,1.6049,1.5955,1.5395,1.4613,1.3533,1.3484,1.3241,1.2782,1.2721,1.2709,1.2709,1.2709,1.2709,1.2697,1.2239,1.1871,1.1661,1.0367,0.9395,0.8869,0.0,0.0,0.0,0.0,0.0,0.0,0.0,0.0,0.0,0.0,0.0,0.0,0.0,0.0,0.0,0.6359,0.0,0.7667,0.7454,0.0,0.0,0.0,0.7902,0.8275,0.856,0.8634,0.831,0.0,0.0,0.7617,0.7629,0.7616,0.7246,0.677,0.66,0.7026,0.6724,0.66,0.7004,0.6651,0.6106,0.5488,0.5017,0.4517,0.3893,0.4047,0.4184,0.3805,0.3641,0.3585,0.3585,0.3585,0.3585,0.3585,0.3574,0.3585,0.3572,0.3577,0.3583,0.3577,0.3583,0.3585,2.217,2.2203,2.1875,2.1749,2.1749,2.1763,2.1749,2.1707,2.1102,2.095,2.1018,2.0428,2.0175,2.0161,2.0021,2.0035,2.0161,2.0175,2.0259,2.0386,2.0245,2.0161,2.0147,1.9474,1.9095,1.8927,1.8492,1.8222,1.8082,1.8082,1.8082,1.8044,1.7316,1.6625,1.5995,1.5496,1.4993,1.4461,1.423,1.3833,1.3324,1.2926,1.2709,1.2709,1.2709,1.2709,1.2709,1.2589,1.2499,1.2386,1.1101,0.9827,0.8733,0.82,0.0,0.0,0.0,0.0,0.0,0.0,0.0,0.0,0.0,0.748,0.6484,0.0,0.7812,0.0,0.699,0.7245,0.7994,0.7785,0.0,0.0,0.8401,0.8399,0.9182,0.9153,0.9004,0.882,0.8919,0.8771,0.8227,0.8224,0.8209,0.8103,0.7412,0.6966,0.7069,0.7004,0.6956,0.7031,0.6566,0.6108,0.5908,0.5185,0.4678,0.4834,0.4271,0.3913,0.4245,0.3913,0.3585,0.3585,0.3585,0.3585,0.3585,0.3585,0.3585,0.3585,0.3585,0.3585,0.3585,0.3585,0.3588,2.1983,2.217,2.217,2.217,2.217,2.217,2.217,2.2189,2.1833,2.1724,2.171,2.1341,2.1187,2.1187,2.1187,2.1201,2.1187,2.1201,2.1201,2.1173,2.092,2.0793,2.0751,2.0161,1.9852,1.981,1.9515,1.9206,1.8899,1.8885,1.8665,1.8175,1.772,1.7035,1.6258,1.5782,1.5414,1.5201,1.4609,1.4036,1.3517,1.3216,1.295,1.2721,1.2709,1.2709,1.2709,1.2709,1.2527,1.2225,1.1316,1.021,0.895,0.8656,0.8186,0.0,0.0,0.0,0.0,0.0,0.0,0.0,0.0,0.0,0.0,0.0,0.8372,0.7695,0.7638,0.7918,0.8583,0.8462,0.8633,0.9305,0.903,0.9036,0.9555,0.9468,0.9336,0.9287,0.9263,0.9106,0.8738,0.8633,0.8586,0.8421,0.799,0.7616,0.7402,0.7348,0.73,0.7128,0.6665,0.615,0.5835,0.5218,0.4843,0.4954,0.4474,0.4135,0.4408,0.4024,0.3585,0.3585,0.3585,0.3585,0.3585,0.3585,0.3585,0.3585,0.3585,0.3585,0.3585,0.3585,0.3588,2.1554,2.1983,2.1983,2.1983,2.1983,2.2091,2.2137,2.217,2.217,2.217,2.217,2.217,2.217,2.217,2.217,2.217,2.217,2.217,2.217,2.2156,2.1682,2.1428,2.14,2.0779,2.0512,2.0512,2.0428,2.0105,1.9516,1.9432,1.8892,1.8044,1.7828,1.738,1.668,1.6088,1.5782,1.5682,1.4866,1.4168,1.371,1.3638,1.3348,1.2842,1.2806,1.277,1.2709,1.2709,1.2433,1.1771,1.1307,1.0521,0.9399,0.9088,0.8792,0.0,0.8189,0.0,0.0,0.0,0.0,0.0,0.0,0.0,0.0,0.9124,0.8926,0.8376,0.83,0.852,0.9159,0.9186,0.9292,0.9577,0.9614,0.9614,0.9614,0.9614,0.9614,0.9614,0.9614,0.9458,0.9159,0.9061,0.8949,0.8633,0.8527,0.8256,0.7889,0.7723,0.7509,0.7187,0.6912,0.6489,0.5793,0.5388,0.5222,0.5023,0.47,0.457,0.457,0.4135,0.3697,0.3638,0.3585,0.3585,0.3585,0.3585,0.3585,0.3585,0.3585,0.3585,0.3585,0.3585,0.3585,2.0809,2.0908,2.0908,2.0894,2.0957,2.1361,2.1793,2.217,2.217,2.217,2.217,2.217,2.217,2.217,2.217,2.217,2.217,2.217,2.217,2.217,2.2118,2.2016,2.202,2.1428,2.1102,2.1119,2.0625,2.033,2.0217,1.9642,1.9293,1.9071,1.7921,1.7393,1.7462,0.0,0.0,0.0,1.5163,1.4809,1.4701,1.4333,1.3891,1.3372,1.3348,0.0,1.2745,1.2709,1.2614,1.2459,1.1434,0.0,0.0,0.0,0.0,0.0,0.0,0.0,0.0,0.0,0.0,0.0,1.0234,1.0166,0.9563,0.9731,0.9672,0.914,0.8784,0.8776,0.9141,0.918,0.9292,0.9577,0.9614,0.9614,0.9614,0.9614,0.9614,0.9614,0.9614,0.9569,0.951,0.9517,0.9465,0.9354,0.9106,0.8738,0.8315,0.7937,0.7568,0.7187,0.7031,0.6945,0.6738,0.6114,0.5806,0.6054,0.5412,0.4897,0.4791,0.4574,0.4132,0.3752,0.3585,0.3641,0.3585,0.3585,0.3585,0.3585,0.3585,0.3585,0.3585,0.3585,0.3585,2.0359,2.061,2.061,2.0759,0.0,2.1264,2.1698,2.217,2.217,2.217,2.217,2.217,2.217,2.217,2.217,2.217,2.217,2.217,2.217,2.217,2.217,2.217,2.217,2.1907,2.1752,2.1766,2.1426,2.1117,2.0821,2.0498,1.9894,1.91,1.8131,1.7473,1.7144,1.625,1.5792,1.5792,1.5528,1.5277,1.5013,1.479,1.4393,1.3915,1.3891,0.0,0.0,0.0,0.0,0.0,0.0,0.0,0.0,0.0,0.0,0.9646,0.9764,0.99,0.9969,1.0156,1.0489,1.092,1.1309,1.1204,1.0312,1.0321,1.0169,0.966,0.9335,0.9211,0.9365,0.9387,0.9453,0.9599,0.9614,0.9614,0.9614,0.9614,0.9614,0.9614,0.9614,0.9614,0.9614,0.9614,0.9614,0.9614,0.9465,0.9159,0.8738,0.8096,0.7563,0.7139,0.6977,0.6918,0.6869,0.6426,0.6046,0.6263,0.5714,0.5222,0.5336,0.4956,0.4574,0.4132,0.4024,0.3965,0.3641,0.3585,0.3585,0.3585,0.3585,0.3585,0.3585,0.3585,0.3585,2.0207,2.061,2.061,2.0871,2.1277,2.1361,2.1712,2.217,2.217,0.0,0.0,2.217,2.217,2.217,2.217,2.217,2.217,2.217,2.217,2.217,2.217,2.217,2.217,2.217,2.217,2.217,2.217,2.1917,2.1471,2.1372,2.0634,1.933,1.8565,1.763,1.643,1.5993,1.5792,1.5792,1.5792,1.5588,1.5169,1.5145,1.4893,1.4446,1.4434,1.4141,1.3536,1.3588,1.3043,1.1767,1.1604,1.1284,1.0667,1.0446,1.0554,1.0989,1.1025,1.1182,1.1577,1.1675,1.1763,1.1832,1.2129,1.1956,1.1049,1.0789,1.0481,0.9976,0.9723,0.9614,0.9614,0.9614,0.9614,0.9614,0.9614,0.9614,0.9614,0.9614,0.9614,0.9614,0.9614,0.9614,0.9614,0.9614,0.9614,0.9562,0.9458,0.9309,0.8896,0.8156,0.7563,0.7187,0.6869,0.6707,0.6652,0.6322,0.6159,0.6105,0.5723,0.5445,0.55,0.5336,0.4901,0.4408,0.4463,0.4242,0.3749,0.3585,0.3585,0.3585,0.3585,0.3585,0.3585,0.3585,0.3585,2.051,2.061,2.061,2.066,2.0759,2.1215,2.1712,2.217,2.217,2.217,2.217,2.217,2.217,2.217,2.217,2.217,2.217,2.217,2.217,2.217,2.217,2.217,2.217,2.217,2.217,2.217,2.217,2.2128,2.2016,2.1569,2.1159,2.0771,1.953,1.7801,1.6053,1.5846,1.5792,1.5792,1.5792,1.5756,1.5684,1.5684,1.5432,1.4929,1.4905,1.4464,1.3559,1.3971,1.386,1.3208,1.2876,1.2633,1.2511,1.1746,1.1433,1.1498,1.1518,1.1538,1.1616,1.1924,1.2305,1.2656,1.2754,1.2357,1.1254,1.1139,1.0721,0.9805,0.9695,0.9614,0.9614,0.9614,0.9614,0.9614,0.9614,0.9614,0.9614,0.9614,0.9614,0.9614,0.9614,0.9614,0.9614,0.9614,0.9614,0.9562,0.9302,0.8778,0.8421,0.799,0.7563,0.7192,0.6869,0.6761,0.6707,0.6223,0.5896,0.5845,0.5791,0.5517,0.523,0.5445,0.5285,0.4298,0.4463,0.4353,0.3805,0.3585,0.3641,0.3641,0.3585,0.3585,0.3585,0.3585,0.3585,2.0003,1.9798,2.0359,2.061,2.066,2.1506,2.1983,2.217,2.217,2.217,2.217,2.217,2.217,2.217,2.217,2.217,2.217,2.217,2.217,2.217,2.217,2.217,2.217,2.217,2.217,2.217,2.217,2.217,2.2142,2.1889,2.164,2.1198,1.9691,1.7865,1.5961,1.6102,1.6085,1.583,1.5799,1.5792,1.5792,1.5792,1.5684,1.5444,1.5696,1.5239,1.3975,1.4695,1.4409,1.2879,1.2857,1.2678,1.2234,1.1804,1.1714,1.1904,1.1924,1.2031,1.2312,1.2471,1.2666,1.291,1.2891,1.2578,1.1778,1.166,1.146,1.0998,1.0694,1.0336,1.0087,1.0035,0.9925,0.9614,0.9614,0.9614,0.9614,0.9614,0.9614,0.9614,0.9614,0.9614,0.9614,0.9614,0.9614,0.9562,0.9302,0.8942,0.8474,0.8362,0.8196,0.7836,0.7241,0.6912,0.6912,0.6168,0.5681,0.5736,0.5631,0.5517,0.5403,0.5778,0.5664,0.5171,0.5226,0.5007,0.4298,0.4079,0.3968,0.3641,0.3585,0.3585,0.3585,0.3585,0.3585,2.0527,2.0215,2.104,2.1406,2.1456,2.227,2.2536,2.2395,2.2395,2.2311,2.2184,2.217,2.217,2.217,2.217,2.217,2.217,2.217,2.217,2.217,2.217,2.217,2.217,2.217,2.217,2.217,2.217,2.217,2.217,2.217,2.1853,2.1075,1.9787,1.8239,1.6564,1.6693,1.6467,1.5881,1.5887,1.5924,1.5804,1.5792,1.5792,1.5816,1.6085,1.5646,1.4427,1.5068,1.4552,1.2694,1.2882,1.2752,1.2123,1.1945,1.2012,1.2334,1.2373,1.252,1.2842,1.2891,1.2891,1.2891,1.2891,1.2725,1.2332,1.2274,1.2166,1.1927,1.1401,1.0998,1.0651,1.06,1.0344,0.9873,0.9769,0.9718,0.9614,0.9614,0.9614,0.9614,0.9614,0.9614,0.9614,0.9614,0.9569,0.9517,0.9413,0.9152,0.8784,0.8778,0.8732,0.8468,0.7765,0.7128,0.7128,0.6268,0.5677,0.574,0.5466,0.5462,0.5626,0.5946,0.5996,0.5719,0.5937,0.5719,0.4901,0.468,0.4519,0.4187,0.4132,0.4021,0.3968,0.3802,0.3638,2.3603,2.3682,2.3626,2.3783,2.3677,2.3856,2.3519,2.3041,2.3013,2.269,2.2269,2.217,2.2212,2.217,2.2184,2.2212,2.2198,2.2184,2.2184,2.217,2.217,2.217,2.217,2.217,2.217,2.217,2.217,2.217,2.217,2.217,2.1718,2.0713,2.0005,1.9361,1.8658,1.7775,1.6824,1.5846,1.6289,1.6272,1.5828,1.5792,1.5792,1.5792,1.5437,1.4949,1.4356,1.4365,1.4168,1.3543,1.3512,1.3476,1.3381,1.2974,1.2773,1.2812,1.2812,1.2842,1.2881,1.2891,1.2891,1.2891,1.2891,1.2881,1.2832,1.2832,1.2382,1.161,1.1309,1.1259,1.1158,1.115,1.0905,1.0352,1.03,1.0138,0.9718,0.9614,0.9614,0.9614,0.9614,0.9614,0.9614,0.9614,0.951,0.9309,0.9263,0.9159,0.8949,0.8949,0.9001,0.8995,0.8355,0.745,0.6966,0.6426,0.5946,0.5513,0.5356,0.5356,0.5517,0.5782,0.6046,0.5882,0.5878,0.5937,0.555,0.5222,0.5226,0.4952,0.4897,0.5007,0.4791,0.4346,0.3959,2.3475,2.3214,2.3849,2.4118,2.4118,2.4118,2.3912,2.3723,2.3674,2.3519,2.3371,2.3343,2.3083,2.2732,2.2718,2.2718,2.2718,2.2718,2.2521,2.2198,2.217,2.217,2.217,2.217,2.217,2.217,2.217,2.217,2.217,2.217,2.1636,2.0696,2.0361,1.9862,1.9007,1.8244,1.7784,1.769,1.6955,1.6476,1.6248,1.5948,1.5792,1.5828,1.5899,1.5591,1.4937,1.5326,1.5092,1.3921,1.3905,1.3752,1.321,1.3027,1.2891,1.2891,1.2891,1.2891,1.2891,1.2891,1.2891,1.2891,1.2891,1.2891,1.2891,1.2891,1.2676,1.2323,1.2215,1.2067,1.1769,1.176,1.136,1.0608,1.0403,1.019,0.9666,0.9614,0.9614,0.9614,0.9614,0.9614,0.9614,0.951,0.9413,0.9211,0.9159,0.9008,0.891,0.8956,0.9008,0.9001,0.8685,0.8427,0.7961,0.6923,0.6268,0.5887,0.5513,0.5301,0.5407,0.5626,0.5946,0.6154,0.6426,0.6475,0.6308,0.5932,0.5773,0.5555,0.5171,0.5062,0.5117,0.4677,0.4346,2.3782,2.3582,2.4285,2.461,2.4559,2.4624,2.4474,2.4371,2.4357,2.4272,2.4118,2.4118,2.3912,2.3617,2.3449,2.328,2.3112,2.3097,2.2774,2.2226,2.217,2.217,2.217,2.217,2.217,2.217,2.217,2.217,2.217,2.217,2.1732,2.0957,2.0809,2.0219,1.9129,1.8697,1.8753,1.8869,1.7678,1.6931,1.663,1.62,1.5936,1.5852,1.6028,1.5856,1.5142,1.5637,1.5311,1.3931,1.3999,1.38,1.3162,1.2968,1.2891,1.2891,1.2891,1.2891,1.2891,1.2891,1.2891,1.2891,1.2891,1.2891,1.2891,1.2891,1.2891,1.2881,1.2891,1.2676,1.2431,1.2323,1.1868,1.1006,1.0753,1.0395,0.9925,0.9718,0.9562,0.9562,0.951,0.9562,0.9517,0.9465,0.9368,0.9159,0.9061,0.8962,0.8857,0.8857,0.8903,0.8798,0.8903,0.8923,0.8911,0.78,0.675,0.6372,0.6109,0.5896,0.5837,0.6114,0.6381,0.6966,0.7074,0.7074,0.6961,0.6691,0.6426,0.5932,0.5605,0.5386,0.555,0.5117,0.5033,2.5755,2.5741,2.5809,2.5753,2.5795,2.5753,2.5458,2.4938,2.499,2.4681,2.4244,2.4188,2.4441,2.4797,2.4357,2.3752,2.3196,2.3168,2.2845,2.2325,2.224,2.2184,2.217,2.217,2.2184,2.2184,2.217,2.217,2.217,2.217,2.1949,2.1375,2.1277,2.0555,1.9329,1.9403,1.9457,1.8916,1.8345,1.764,1.6798,1.663,1.6308,1.5843,1.5414,1.5256,1.5074,1.4662,1.4186,1.3668,1.3716,1.3658,1.3525,1.3152,1.2929,1.2891,1.2891,1.2891,1.2891,1.2891,1.2891,1.2891,1.2891,1.2891,1.2891,1.2891,1.2891,1.2891,1.2891,1.2881,1.2871,1.2803,1.2529,1.1968,1.146,1.0905,1.0446,0.9777,0.9465,0.9487,0.9508,0.9501,0.9427,0.9413,0.9278,0.9134,0.9029,0.899,0.8858,0.8838,0.8824,0.8798,0.8791,0.8818,0.8745,0.8068,0.7509,0.7187,0.6864,0.6815,0.7085,0.7295,0.7456,0.767,0.7777,0.7777,0.7723,0.7509,0.7241,0.6858,0.6534,0.6372,0.61,0.5823,0.5745,2.5893,2.5893,2.5893,2.5893,2.5893,2.5893,2.5767,2.557,2.5556,2.5444,2.5261,2.5233,2.5359,2.5556,2.5331,2.4896,2.4306,2.3963,2.3639,2.335,2.2957,2.276,2.276,2.276,2.2536,2.2212,2.217,2.217,2.217,2.217,2.1949,2.141,2.1068,2.0586,2.0028,1.9525,1.9178,1.8939,1.8473,1.8013,1.7628,1.7303,1.6883,1.6308,1.5813,1.557,1.557,1.5367,1.5188,1.5016,1.4741,1.4488,1.4345,1.3699,1.321,1.2929,1.2891,1.2891,1.2891,1.2891,1.2891,1.2891,1.2891,1.2891,1.2891,1.2891,1.2891,1.2891,1.2891,1.2978,1.3164,1.3047,1.2686,1.2126,1.1569,1.1158,1.0795,1.0035,0.959,1.0022,0.9975,0.9649,0.9446,0.9316,0.9288,0.9254,0.9187,0.9133,0.9085,0.9085,0.9011,0.8844,0.8798,0.8811,0.8771,0.8268,0.7765,0.761,0.7343,0.6912,0.6912,0.7295,0.7456,0.7771,0.8043,0.8203,0.8043,0.767,0.7456,0.6858,0.6588,0.6539,0.6544,0.61,0.6182,2.5893,2.5893,2.5893,2.5893,2.5893,2.5893,2.5893,2.5893,2.5893,2.5893,2.5893,2.5893,2.5893,2.5893,2.5893,2.5683,2.5233,2.4643,2.4301,2.4089,2.3653,2.3421,2.3407,2.3407,2.321,2.285,2.2564,2.2381,2.2198,2.217,2.1983,2.1664,2.1118,2.0712,2.0335,1.9654,1.9198,1.8967,1.8626,1.8386,1.8193,1.7869,1.7412,1.6919,1.6522,1.6116,1.5828,1.5792,1.5706,1.5564,1.5268,1.4903,1.4403,1.4067,1.3563,1.2978,1.2891,1.2891,1.2891,1.2891,1.2891,1.2891,1.2891,1.2891,1.2891,1.2891,1.2881,1.29,1.3037,1.3223,1.3348,1.3319,1.3072,1.2557,1.1998,1.1531,1.1192,1.0488,1.0171,1.0302,1.0091,0.9825,0.9663,0.9526,0.946,0.9527,0.9435,0.9385,0.9385,0.9279,0.9185,0.8985,0.8864,0.8824,0.8818,0.8487,0.8315,0.8156,0.799,0.7396,0.7074,0.7402,0.767,0.7931,0.8143,0.8362,0.8203,0.783,0.7289,0.6588,0.6322,0.6223,0.6273,0.6317,0.648,2.5893,2.5893,2.5893,2.5893,2.5893,2.5893,2.5893,2.5893,2.5893,2.5893,2.5893,2.5893,2.5893,2.5893,2.5893,2.5865,2.5711,2.5219,2.4779,2.4315,2.4174,2.4118,2.4118,2.4103,2.4047,2.3906,2.3378,2.2817,2.2367,2.2325,2.2269,2.2133,2.1547,2.0855,2.0102,1.9799,1.9448,1.9081,1.8927,1.871,1.8277,1.8217,1.7953,1.7484,1.7376,1.6871,1.5936,1.5864,1.5674,1.5255,1.5165,1.464,1.4046,1.4071,1.3894,1.3113,1.2929,1.2891,1.2891,1.2891,1.2891,1.2881,1.2891,1.2881,1.2891,1.2881,1.2852,1.285,1.3142,1.3455,1.3468,1.3733,1.3824,1.3542,1.2931,1.2259,1.155,1.1112,1.0835,1.0272,0.9999,0.9962,0.9999,0.9916,0.9815,0.9711,0.9686,0.9686,0.9666,0.9512,0.9256,0.915,0.9105,0.9025,0.8918,0.8818,0.8818,0.8765,0.8646,0.8315,0.8096,0.8256,0.8302,0.8514,0.862,0.8784,0.8302,0.7931,0.7402,0.681,0.644,0.6114,0.6159,0.6332,0.6629,2.5893,2.5893,2.5893,2.5893,2.5893,2.5893,2.5893,2.5893,2.5893,2.5893,2.5893,2.5893,2.5893,2.5893,2.5893,2.5893,2.5879,2.5683,2.55,2.5247,2.4882,2.4699,2.4699,2.4699,2.4474,2.4146,2.3906,2.3723,2.347,2.3013,2.2802,2.2602,2.1488,2.0644,2.0115,1.9517,1.9146,1.904,1.8987,1.8891,1.8758,1.8746,1.8494,1.8025,1.7953,1.7616,1.6955,1.6524,1.6118,1.5605,1.5558,1.5277,1.4731,1.4398,1.4025,1.343,1.3075,1.2891,1.2891,1.2891,1.2891,1.2881,1.2822,1.2774,1.2725,1.2676,1.2752,1.2922,1.3132,1.3432,1.3994,1.4038,1.3951,1.3902,1.3449,1.2932,1.2251,1.1527,1.0806,1.014,1.0082,1.0109,1.0031,0.9932,0.9976,1.0013,0.998,0.9987,0.996,0.9873,0.9746,0.9579,0.9439,0.9232,0.9092,0.8958,0.8891,0.8844,0.8811,0.8752,0.8685,0.8738,0.8784,0.889,0.9047,0.8942,0.8461,0.7978,0.7509,0.7133,0.6761,0.6539,0.6317,0.646,0.6738,2.5893,2.5893,2.5893,2.5893,2.5893,2.5893,2.5893,2.5893,2.5893,2.5893,2.5893,2.5893,2.5893,2.5893,2.5893,2.5893,2.5893,2.5893,2.5893,2.5851,2.5542,2.5331,2.5317,2.5317,2.5008,2.4502,2.4455,2.4329,2.4089,2.3659,2.3336,2.2895,2.1862,2.1017,2.0568,1.9837,1.938,1.9303,1.9105,1.8987,1.8987,1.8987,1.8843,1.8542,1.8494,1.8217,1.7724,1.7376,1.6883,1.6188,1.5912,1.557,1.5108,1.4582,1.4071,1.361,1.32,1.2891,1.2891,1.2891,1.2881,1.2832,1.2735,1.2676,1.2627,1.2529,1.266,1.295,1.3238,1.3651,1.4313,1.4513,1.4332,1.4147,1.3728,1.3218,1.2569,1.1514,1.0816,1.0354,1.0356,1.0336,1.0301,1.0193,1.0194,1.0247,1.0281,1.0281,1.0261,1.0174,1.0007,0.98,0.9546,0.9372,0.919,0.9057,0.8931,0.8891,0.8804,0.8699,0.8633,0.8798,0.8956,0.8896,0.9001,0.8956,0.858,0.8203,0.783,0.7456,0.7133,0.6804,0.6637,0.6642,0.6846,2.595,2.5936,2.5907,2.5893,2.5893,2.5893,2.5893,2.5893,2.5893,2.5893,2.5893,2.5893,2.5893,2.5893,2.5893,2.5893,2.5893,2.5893,2.5893,2.5893,2.5823,2.5795,2.5781,2.5781,2.55,2.5093,2.5022,2.4755,2.439,2.4244,2.3786,2.3217,2.2542,2.193,2.1225,2.05,1.9938,1.9708,1.9239,1.8987,1.8987,1.8987,1.8975,1.8939,1.8927,1.871,1.8313,1.8013,1.7568,1.6703,1.6176,1.5733,1.5211,1.4662,1.4071,1.3695,1.32,1.2929,1.2891,1.2891,1.2822,1.2735,1.2676,1.2627,1.248,1.244,1.2551,1.2894,1.3312,1.3844,1.4364,1.4764,1.4711,1.42,1.3602,1.2982,1.2096,1.1016,1.0567,1.0628,1.0674,1.0604,1.0656,1.0607,1.0557,1.0514,1.0514,1.0501,1.0474,1.0341,1.018,0.9953,0.9713,0.9472,0.9276,0.9117,0.8984,0.8878,0.8804,0.8752,0.8639,0.885,0.9008,0.8956,0.8896,0.885,0.8798,0.8474,0.8196,0.7871,0.7545,0.7122,0.702,0.7074,0.6977,2.6568,2.6526,2.609,2.5893,2.5893,2.5893,2.5893,2.5893,2.5893,2.5893,2.5893,2.5893,2.5893,2.5893,2.5893,2.5893,2.5893,2.5893,2.5893,2.5893,2.5893,2.5893,2.5893,2.5893,2.5809,2.564,2.5584,2.5556,2.5388,2.4938,2.4418,2.3814,2.288,2.2047,2.1385,2.0832,2.0284,1.9772,1.9291,1.8987,1.8987,1.8987,1.8987,1.8987,1.8987,1.8927,1.8698,1.8025,1.7544,1.7231,1.6656,1.6368,1.6031,1.4992,1.4247,1.4025,1.3392,1.2939,1.2881,1.2822,1.2725,1.2686,1.2569,1.2382,1.2323,1.2274,1.2369,1.2739,1.3146,1.3617,1.4138,1.4531,1.4314,1.3425,1.2825,1.2255,1.1781,1.1107,1.0544,1.0604,1.0624,1.0618,1.0618,1.0618,1.0618,1.0618,1.0618,1.0618,1.0528,1.0501,1.0347,1.0167,0.9933,0.9582,0.9349,0.919,0.9017,0.8878,0.8804,0.8804,0.8752,0.8804,0.8956,0.9054,0.8903,0.8804,0.891,0.8798,0.8567,0.829,0.8184,0.7925,0.761,0.7509,0.7257,2.6807,2.675,2.616,2.5893,2.5893,2.5893,2.5893,2.5893,2.5893,2.5893,2.5893,2.5893,2.5893,2.5893,2.5893,2.5893,2.5893,2.5893,2.5893,2.5893,2.5893,2.5893,2.5893,2.5893,2.5893,2.5893,2.5893,2.5879,2.5823,2.5514,2.5036,2.4502,2.3761,2.3,2.2165,2.1522,2.0912,2.0156,1.9426,1.8996,1.904,1.8987,1.8987,1.8987,1.8987,1.8987,1.8891,1.8398,1.782,1.7123,1.6548,1.6248,1.6178,1.528,1.4536,1.4305,1.361,1.3152,1.3104,1.3045,1.2949,1.2852,1.2647,1.2461,1.2264,1.2135,1.2282,1.2678,1.3048,1.3507,1.3959,1.4231,1.3948,1.3373,1.2336,1.1655,1.1406,1.0919,1.0618,1.0618,1.0618,1.0618,1.0618,1.0618,1.0618,1.0618,1.0618,1.0618,1.0611,1.0541,1.0428,1.016,0.9927,0.9613,0.9256,0.907,0.8971,0.8844,0.8804,0.8804,0.8804,0.8804,0.8857,0.8956,0.8857,0.8804,0.891,0.9008,0.8942,0.8778,0.8778,0.8672,0.8337,0.7884,0.7626,2.6989,2.6947,2.6273,2.5992,2.6006,2.5921,2.5893,2.5893,2.5893,2.5893,2.5893,2.5893,2.5893,2.5893,2.5893,2.5893,2.5893,2.5893,2.5893,2.5893,2.5893,2.5893,2.5893,2.5893,2.5893,2.5893,2.5893,2.5893,2.5879,2.5851,2.5528,2.5008,2.4868,2.4306,2.3167,2.2456,2.1666,2.078,1.9597,1.912,1.9109,1.9093,1.8987,1.8987,1.8987,1.8987,1.8963,1.8758,1.8229,1.6883,1.6236,1.614,1.6011,1.5509,1.4891,1.4428,1.391,1.343,1.3324,1.3228,1.317,1.2939,1.2929,1.2735,1.2308,1.2195,1.2369,1.2702,1.3075,1.3553,1.4013,1.3951,1.3777,1.3442,1.2397,1.1483,1.0996,1.0744,1.0618,1.0618,1.0618,1.0618,1.0618,1.0618,1.0618,1.0618,1.0604,1.0564,1.0461,1.0394,1.02,0.9913,0.9706,0.9512,0.9239,0.8985,0.8905,0.8804,0.8804,0.8804,0.8804,0.8804,0.8804,0.8804,0.8804,0.891,0.8962,0.9061,0.9099,0.9148,0.9123,0.9079,0.8956,0.839,0.7985,2.8296,2.8183,2.7074,2.661,2.6526,2.6104,2.5907,2.595,2.5907,2.5907,2.5907,2.5907,2.5893,2.5893,2.5893,2.5893,2.5893,2.5893,2.5893,2.5893,2.5893,2.5893,2.5893,2.5893,2.5893,2.5893,2.5893,2.5893,2.5893,2.5851,2.5598,2.5093,2.5022,2.4629,2.3876,2.3,2.22,2.1629,2.008,1.9366,1.9386,1.9186,1.904,1.8987,1.8987,1.8987,1.8903,1.859,1.8205,1.7832,1.7364,1.7003,1.6752,1.5799,1.5153,1.4807,1.41,1.343,1.3055,1.3152,1.3035,1.2763,1.3124,1.3008,1.2238,1.2456,1.2657,1.2851,1.3123,1.3635,1.4222,1.4373,1.4061,1.3571,1.2826,1.2027,1.1421,1.087,1.0618,1.0618,1.0618,1.0618,1.0618,1.0618,1.0618,1.0618,1.0577,1.051,1.0374,1.0301,1.0033,0.9766,0.9532,0.9345,0.9098,0.8898,0.8858,0.8804,0.8804,0.8804,0.8804,0.8804,0.8804,0.8857,0.891,0.8962,0.9008,0.9211,0.9309,0.9334,0.9351,0.9321,0.9153,0.8699,0.8336,2.8521,2.8169,2.7214,2.6807,2.6708,2.6188,2.6231,2.6568,2.6104,2.6062,2.6217,2.6048,2.5893,2.5893,2.5893,2.5893,2.5893,2.5893,2.5893,2.5893,2.5893,2.5893,2.5893,2.5893,2.5893,2.5893,2.5893,2.5893,2.5893,2.5879,2.5739,2.5444,2.5388,2.5107,2.4667,2.4068,2.3381,2.2346,2.1207,2.0259,1.9492,1.9451,1.9186,1.904,1.8987,1.8987,1.8951,1.8758,1.847,1.8205,1.7941,1.7652,1.7303,1.6421,1.58,1.5362,1.4529,1.3821,1.3478,1.3662,1.3785,1.3293,1.3831,1.362,1.3199,1.3078,1.2904,1.305,1.335,1.3846,1.4423,1.4515,1.4267,1.3941,1.307,1.2389,1.1903,1.117,1.0618,1.0618,1.0618,1.0618,1.0618,1.0618,1.0618,1.0618,1.0618,1.0557,1.0428,1.0307,0.998,0.9699,0.9419,0.9178,0.8945,0.8824,0.8831,0.8804,0.8804,0.8804,0.8804,0.8804,0.8804,0.8857,0.891,0.9008,0.9113,0.9316,0.9413,0.9396,0.9408,0.9439,0.9381,0.8991,0.8719,2.8535,2.8001,2.7355,2.7088,2.7003,2.6497,2.6793,2.7467,2.654,2.6357,2.661,2.616,2.5893,2.5893,2.5893,2.5893,2.5893,2.5893,2.5893,2.5893,2.6042,2.6002,2.5948,2.6002,2.6002,2.5948,2.5893,2.5893,2.5893,2.5893,2.5851,2.5851,2.5865,2.557,2.5314,2.5483,2.4793,2.321,2.2627,2.1557,2.0156,2.0054,1.9845,1.9303,1.904,1.904,1.8987,1.8915,1.877,1.8362,1.8326,1.8085,1.7652,1.7039,1.6587,1.612,1.521,1.4428,1.4031,1.4241,1.444,1.4264,1.4625,1.4523,1.3965,1.3569,1.3442,1.3459,1.3752,1.4121,1.4469,1.4515,1.4515,1.4198,1.326,1.2634,1.2266,1.1413,1.0681,1.0618,1.0618,1.0618,1.0618,1.0618,1.0618,1.0618,1.0618,1.0521,1.0448,1.0307,0.9987,0.9753,0.9512,0.9292,0.9065,0.8838,0.8838,0.8818,0.8811,0.8818,0.8818,0.8804,0.8804,0.891,0.8962,0.9061,0.9211,0.9309,0.9361,0.9361,0.9408,0.9496,0.9395,0.9247,0.9079,2.9392,2.9251,2.8633,2.838,2.8268,2.7706,2.7551,2.7621,2.7003,2.6708,2.6736,2.6174,2.5893,2.5893,2.5893,2.5893,2.5893,2.5893,2.5893,2.5948,2.615,2.6204,2.6002,2.6165,2.6165,2.6002,2.5948,2.5948,2.5893,2.5893,2.5893,2.5893,2.5893,2.5767,2.5776,2.5824,2.5497,2.4469,2.3941,2.2978,2.1765,2.1055,2.0553,1.9758,1.9396,1.9146,1.904,1.904,1.8951,1.8879,1.8867,1.8782,1.8494,1.7784,1.7322,1.6977,1.6138,1.5193,1.4535,1.4471,1.4003,1.3539,1.4092,1.4349,1.3877,1.3698,1.3835,1.4072,1.4209,1.4433,1.4497,1.4515,1.4515,1.4198,1.3442,1.2573,1.2266,1.1538,1.0681,1.0624,1.0624,1.0618,1.0618,1.0618,1.0618,1.0618,1.0618,1.0474,1.0361,1.0234,1.0027,0.9833,0.9666,0.9452,0.9245,0.9005,0.8871,0.8838,0.8831,0.8844,0.8838,0.8811,0.8804,0.891,0.9061,0.9166,0.9263,0.9354,0.9309,0.9263,0.9358,0.9451,0.9314,0.9178,0.9259,2.942,2.9111,2.8816,2.8689,2.8591,2.8043,2.8155,2.8478,2.7411,2.7003,2.6947,2.6357,2.5893,2.5893,2.5893,2.5893,2.5893,2.5893,2.5893,2.5948,2.6096,2.6096,2.5948,2.6165,2.6204,2.6204,2.6204,2.6096,2.5879,2.5893,2.5948,2.5893,2.5893,2.5893,2.5934,2.5861,2.5714,2.5392,2.5085,2.4128,2.2451,2.1557,2.0693,2.0297,1.9952,1.9695,1.9448,1.9396,1.9291,1.9081,1.8987,1.8987,1.8831,1.859,1.8091,1.7718,1.693,1.6086,1.5387,1.5375,1.506,1.4583,1.4838,1.5021,1.4725,1.4599,1.4295,1.4442,1.4515,1.4515,1.4515,1.4515,1.4515,1.4327,1.3571,1.2948,1.2389,1.1608,1.1115,1.0688,1.0624,1.0624,1.0618,1.0618,1.0618,1.0618,1.0618,1.0461,1.0321,1.0214,1.01,0.9987,0.9833,0.9606,0.9446,0.9285,0.9051,0.8971,0.8911,0.8918,0.8911,0.8944,0.8923,0.8962,0.9113,0.9316,0.9263,0.9309,0.9263,0.9166,0.9242,0.9298,0.915,0.9077,0.9256,2.9321,2.8872,2.8872,2.8872,2.8788,2.8366,2.8703,2.9125,2.7776,2.7383,2.7734,2.6722,2.6202,2.6231,2.6146,2.6048,2.5921,2.5893,2.5948,2.6042,2.6096,2.6056,2.615,2.615,2.6365,2.6616,2.6616,2.6472,2.6258,2.6096,2.6042,2.6056,2.6002,2.5893,2.5879,2.592,2.5887,2.5895,2.5873,2.4755,2.2967,2.1519,2.0759,2.0723,2.066,2.0359,2.0003,1.9952,1.9798,1.95,1.9291,1.9198,1.9146,1.904,1.8782,1.831,1.7494,1.6958,1.6576,1.6343,1.602,1.5548,1.5572,1.5738,1.5459,1.4845,1.4497,1.4515,1.4515,1.4515,1.4515,1.4515,1.4515,1.4387,1.389,1.3268,1.2704,1.2035,1.1365,1.0996,1.0751,1.0624,1.0618,1.0618,1.0618,1.0618,1.0618,1.0618,1.0434,1.0354,1.0254,1.0167,1.0007,0.9773,0.9639,0.9606,0.9392,0.9232,0.9193,0.9146,0.9132,0.907,0.9148,0.9368,0.9361,0.9562,0.9413,0.9263,0.9211,0.9166,0.9159,0.9218,0.9382,0.9442,0.9561,2.956,2.949,2.949,2.9504,2.9462,2.9364,2.942,2.9406,2.8212,2.8015,2.8422,2.7355,2.6989,2.7158,2.6821,2.6399,2.6103,2.6087,2.6221,2.6326,2.6476,2.6635,2.6811,2.6982,2.6864,2.6967,2.7019,2.7019,2.6864,2.6616,2.6404,2.6351,2.6056,2.5893,2.5893,2.5893,2.5934,2.5906,2.5863,2.5191,2.3844,2.2259,2.151,2.1269,2.097,2.066,2.051,2.0459,2.0359,2.0308,1.9901,1.9695,1.9656,1.9251,1.904,1.877,1.8343,1.7753,1.7249,1.6908,1.659,1.6168,1.6028,1.5638,1.5168,1.4805,1.4488,1.4515,1.4515,1.4515,1.4515,1.4515,1.4515,1.4327,1.401,1.3631,1.3199,1.2336,1.167,1.1185,1.087,1.0681,1.0618,1.0618,1.0618,1.0618,1.0618,1.0618,1.0541,1.0454,1.0414,1.0334,1.0247,1.002,0.9893,0.9853,0.9812,0.9572,0.9534,0.9515,0.9542,0.9642,0.9807,0.9925,0.9925,0.9762,0.9614,0.9465,0.9211,0.9211,0.9309,0.9562,0.9865,0.9865,0.9821,2.9602,2.9602,2.9602,2.9602,2.9602,2.9602,2.9602,2.942,2.8689,2.8436,2.8507,2.7776,2.734,2.727,2.6891,2.6622,2.6389,2.6629,2.6666,2.6751,2.7026,2.7108,2.6621,2.6864,2.7122,2.724,2.7408,2.7675,2.7494,2.6967,2.6496,2.6457,2.6165,2.5893,2.5893,2.5893,2.5893,2.5795,2.5556,2.5121,2.4339,2.3222,2.2339,2.2325,2.1766,2.1375,2.1055,2.0709,2.061,2.051,2.0105,1.9798,1.9747,1.9552,1.9344,1.8963,1.8794,1.8441,1.8125,1.7611,1.7092,1.6687,1.6413,1.5871,1.5148,1.4662,1.4483,1.4506,1.4515,1.4515,1.4515,1.4515,1.4515,1.4387,1.4139,1.3881,1.345,1.2704,1.1973,1.1483,1.1059,1.087,1.0681,1.0624,1.0624,1.0618,1.0618,1.0618,1.0618,1.0528,1.0514,1.0514,1.0421,1.0301,1.0207,1.0127,1.0158,1.0079,1.0187,1.0147,1.0174,1.0244,1.0391,1.0411,1.0387,1.0174,0.9917,0.9925,0.9925,0.9769,0.9555,0.9865,1.0115,0.9969,0.9925,2.9602,2.9602,2.9602,2.9602,2.9602,2.9602,2.9602,2.9532,2.8928,2.8774,2.8788,2.8436,2.7902,2.7468,2.7427,2.7314,2.6626,2.7512,2.7407,2.7453,2.7574,2.7656,2.7363,2.7432,2.7393,2.7393,2.7775,2.8039,2.7925,2.7458,2.6878,2.6616,2.615,2.5948,2.5893,2.5893,2.5893,2.5851,2.5331,2.5022,2.4699,2.3702,2.3161,2.2887,2.2516,2.1996,2.1602,2.1299,2.1042,2.1006,2.061,2.0359,2.0308,2.0105,1.9747,1.9384,1.9206,1.902,1.865,1.8221,1.7831,1.7501,1.7145,1.6648,1.6005,1.5206,1.4615,1.4775,1.4575,1.4515,1.4515,1.4515,1.4515,1.4515,1.4455,1.4139,1.3761,1.3078,1.2581,1.2343,1.1794,1.1052,1.087,1.0688,1.0624,1.0624,1.0618,1.0618,1.0618,1.0618,1.0618,1.0618,1.0584,1.0504,1.047,1.039,1.045,1.0625,1.0725,1.0936,1.1056,1.0918,1.0908,1.091,1.093,1.1049,1.1049,1.0846,1.0643,1.0336,1.0123,1.0277,1.0328,1.0226,1.0285,2.9602,2.9602,2.9602,2.9602,2.9602,2.9602,2.9602,2.956,2.897,2.904,2.942,2.9406,2.897,2.8697,2.858,2.8197,2.6947,2.84,2.8498,2.8257,2.8216,2.8495,2.8299,2.8041,2.7875,2.8103,2.825,2.8299,2.825,2.784,2.7408,2.7034,2.6351,2.6042,2.5893,2.5893,2.5893,2.5795,2.5359,2.5107,2.4755,2.3997,2.328,2.3041,2.2578,2.2184,2.2137,2.1888,2.1827,2.1841,2.1348,2.1055,2.097,2.0709,2.0308,1.9901,1.9643,1.9396,1.8987,1.8614,1.8344,1.8118,1.7889,1.7556,1.6933,1.5426,1.4926,1.5274,1.502,1.4743,1.4625,1.4515,1.4625,1.4515,1.4515,1.4396,1.4079,1.3631,1.3199,1.3086,1.2528,1.1663,1.1178,1.0996,1.0688,1.0624,1.0618,1.0618,1.0618,1.0618,1.0618,1.0618,1.0618,1.0598,1.0661,1.0753,1.1013,1.1279,1.1526,1.1792,1.2121,1.1888,1.1619,1.1643,1.1716,1.1922,1.1977,1.156,1.115,1.0846,1.0744,1.0795,1.0998,1.1108,1.1108,2.9602,2.9602,2.9602,2.9602,2.9602,2.9602,2.9602,2.9588,2.9364,2.9364,2.9602,2.9574,2.9279,2.9011,2.917,2.9045,2.8448,2.9574,2.9585,2.9462,2.9426,2.9199,2.8894,2.8399,2.8137,2.8152,2.825,2.8411,2.8363,2.8054,2.7575,2.7034,2.651,2.615,2.6002,2.5893,2.5893,2.5851,2.5683,2.5542,2.5359,2.4769,2.4081,2.3659,2.3069,2.255,2.2222,2.1868,2.1949,2.1996,2.165,2.1506,2.1458,2.1215,2.0858,2.0359,2.0055,1.9656,1.9251,1.8881,1.8518,1.8367,1.8251,1.8032,1.7501,1.6434,1.5981,1.5938,1.569,1.5352,1.5079,1.5079,1.502,1.4684,1.4515,1.4515,1.4327,1.3881,1.3692,1.3511,1.2834,1.2035,1.1663,1.1296,1.0996,1.0688,1.0624,1.0618,1.0618,1.0618,1.0618,1.0618,1.0618,1.0681,1.0744,1.1142,1.1534,1.1943,1.2257,1.2596,1.2879,1.2663,1.2441,1.2448,1.2273,1.2181,1.2076,1.1968,1.171,1.141,1.1259,1.1259,1.1569,1.1877,1.1778,2.9602,2.9602,2.9602,2.9602,2.9602,2.9602,2.9602,2.9602,2.9602,2.9602,2.9602,2.9588,2.9454,2.9345,2.9649,2.9682,2.9758,3.0498,3.0437,3.0251,2.9924,2.9583,2.891,2.8399,2.825,2.8088,2.8201,2.8411,2.8411,2.8103,2.7675,2.7188,2.6826,2.6457,2.6002,2.5893,2.5893,2.5893,2.5893,2.5893,2.5795,2.5247,2.4812,2.4207,2.3519,2.2929,2.2474,2.2116,2.1949,2.1996,2.1902,2.1698,2.165,2.1568,2.1299,2.0858,2.0359,1.9965,1.95,1.904,1.8572,1.8433,1.8379,1.815,1.7765,1.7269,1.6623,1.6574,1.6415,1.614,1.5633,1.5468,1.5245,1.4961,1.4575,1.4515,1.4387,1.413,1.401,1.383,1.3199,1.2642,1.2397,1.2035,1.1296,1.0933,1.0624,1.0624,1.0618,1.0618,1.0618,1.0618,1.0618,1.0744,1.0863,1.1454,1.2104,1.2753,1.305,1.3304,1.343,1.322,1.2883,1.2646,1.2471,1.2308,1.2224,1.2116,1.2067,1.1927,1.1819,1.1719,1.1719,1.1977,1.2026,2.9602,2.9602,2.9602,2.9602,2.9602,2.9602,2.9602,2.9602,2.9602,2.9602,2.9602,2.9602,2.9898,3.0151,3.0543,3.0527,3.0547,3.1496,3.1457,3.0411,3.0234,2.9909,2.9296,2.8762,2.8348,2.8411,2.8411,2.8411,2.8411,2.8299,2.7875,2.7342,2.7019,2.6616,2.6002,2.5893,2.5893,2.5893,2.5893,2.5893,2.5781,2.5359,2.5078,2.4615,2.3955,2.3378,2.2838,2.2502,2.2258,2.2152,2.2137,2.203,2.203,2.203,2.1841,2.141,2.0858,2.0258,1.9604,1.8987,1.8679,1.8476,1.8422,1.8356,1.8116,1.7622,1.7081,1.7146,1.6821,1.6472,1.614,1.5864,1.5633,1.5294,1.4961,1.4684,1.4616,1.4387,1.4258,1.4139,1.3821,1.3442,1.3191,1.2765,1.1849,1.1233,1.0807,1.0624,1.0618,1.0618,1.0624,1.0618,1.0618,1.0681,1.0989,1.1896,1.2618,1.3287,1.3758,1.3907,1.3789,1.3488,1.3183,1.2816,1.2457,1.2212,1.2274,1.2372,1.2224,1.2076,1.2184,1.2126,1.2135,1.2085,1.2126,2.9602,2.9602,2.996,2.9898,2.9602,2.9602,2.9602,2.9602,2.9602,2.9602,2.9665,2.9913,3.0144,3.0493,3.1073,3.1287,3.1354,3.1789,3.1619,3.0899,3.056,2.9976,2.9381,2.8765,2.8411,2.8411,2.8411,2.8411,2.8411,2.8411,2.8152,2.7675,2.7174,2.6669,2.6096,2.5893,2.5893,2.5893,2.5893,2.5893,2.5865,2.5655,2.5388,2.5089,2.4502,2.394,2.328,2.2915,2.2592,2.2283,2.224,2.217,2.217,2.217,2.2091,2.1746,2.1299,2.0396,1.9695,1.9186,1.904,1.8774,1.8518,1.8464,1.8344,1.8007,1.7776,1.7722,1.7501,1.7213,1.6922,1.6765,1.6539,1.5968,1.5584,1.5245,1.5069,1.4684,1.4396,1.4396,1.4198,1.3821,1.3571,1.3321,1.252,1.2027,1.16,1.0996,1.0807,1.0688,1.0624,1.0618,1.0618,1.0681,1.1052,1.2081,1.2696,1.3174,1.3855,1.4337,1.4133,1.3764,1.3433,1.3146,1.2577,1.2116,1.2224,1.2274,1.2283,1.2234,1.2283,1.2283,1.2135,1.2135,1.2184,2.9602,2.9665,3.0068,3.0144,2.9837,2.9851,2.9789,2.9602,2.9602,2.9602,2.9727,3.0083,3.0433,3.0732,3.1321,3.1626,3.1678,3.2139,3.149,3.0889,3.0582,2.9827,2.9135,2.8658,2.8458,2.8411,2.8411,2.8411,2.8411,2.8411,2.8152,2.7725,2.7342,2.6916,2.6457,2.6258,2.6056,2.6002,2.5893,2.5893,2.5893,2.5809,2.5697,2.5374,2.498,2.4573,2.387,2.3336,2.2915,2.255,2.2311,2.2198,2.217,2.2184,2.2137,2.1888,2.1348,2.0446,1.9695,1.9384,1.9279,1.9226,1.8827,1.8572,1.8464,1.8182,1.8073,1.803,1.8084,1.7909,1.7556,1.7446,1.7045,1.6482,1.614,1.5806,1.5352,1.4961,1.4684,1.4684,1.4455,1.413,1.3881,1.3631,1.326,1.2826,1.2458,1.1787,1.1122,1.0996,1.087,1.0807,1.0989,1.117,1.16,1.2397,1.2887,1.3191,1.3812,1.4497,1.4372,1.3956,1.3691,1.3377,1.2788,1.2365,1.2172,1.2175,1.2274,1.2323,1.2382,1.2283,1.2135,1.2224,1.2323,2.9602,2.9665,3.0129,3.0326,3.0266,3.0266,3.0036,2.9602,2.9665,2.9665,2.9665,3.019,3.0658,3.1087,3.1552,3.1617,3.1481,3.2059,3.1089,3.0197,3.0074,2.9366,2.8858,2.8442,2.8411,2.8411,2.8411,2.8411,2.8411,2.8411,2.8201,2.789,2.7545,2.7321,2.7078,2.6855,2.6404,2.6094,2.5879,2.5893,2.5893,2.5893,2.5837,2.5626,2.5345,2.4966,2.4413,2.3864,2.3301,2.2817,2.2479,2.2269,2.217,2.2184,2.203,2.1684,2.1153,2.0547,1.9901,1.9683,1.9683,1.9643,1.904,1.8798,1.8583,1.8356,1.8139,1.8084,1.8084,1.8084,1.8018,1.7678,1.7324,1.6978,1.6641,1.6197,1.5748,1.5352,1.5069,1.4852,1.4625,1.4387,1.4327,1.4139,1.3821,1.3631,1.326,1.2773,1.2166,1.1608,1.1483,1.1233,1.1421,1.1787,1.2336,1.2826,1.3139,1.3381,1.395,1.4488,1.4332,1.4139,1.3783,1.3368,1.2945,1.2577,1.2435,1.2353,1.2412,1.2461,1.2657,1.251,1.2461,1.2461,1.2608,2.9803,3.0144,3.0598,3.0598,3.0326,3.0326,3.0021,2.9665,3.0266,3.0433,3.0129,3.097,3.1321,3.1552,3.1992,3.1772,3.1605,3.1366,3.0643,3.0043,2.9643,2.9104,2.8688,2.8411,2.8411,2.8411,2.8411,2.8411,2.8411,2.8411,2.8411,2.8186,2.7974,2.7951,2.7831,2.7584,2.682,2.6169,2.6,2.5934,2.5893,2.5893,2.5893,2.5781,2.5711,2.5261,2.4582,2.4346,2.371,2.2681,2.2353,2.217,2.217,2.2044,2.1807,2.1554,2.141,2.1202,2.051,2.0359,2.0308,2.0067,1.946,1.9052,1.8786,1.8464,1.8193,1.8193,1.8193,1.8193,1.8193,1.7909,1.7733,1.7501,1.7157,1.6821,1.6312,1.5911,1.5575,1.5069,1.4843,1.4565,1.4575,1.4455,1.4198,1.4189,1.401,1.358,1.3078,1.2528,1.2035,1.1725,1.1973,1.2336,1.2581,1.3017,1.3329,1.37,1.4139,1.4506,1.4414,1.4176,1.3763,1.3296,1.2791,1.2669,1.2646,1.2638,1.2638,1.3025,1.317,1.2977,1.2783,1.2842,1.2987,3.0021,3.0372,3.1029,3.1087,3.0896,3.1058,3.0777,3.0372,3.0792,3.0732,3.0433,3.1263,3.1724,3.1664,3.1814,3.1613,3.1012,3.092,3.0258,2.9304,2.9273,2.895,2.8627,2.8411,2.8411,2.8411,2.8411,2.8411,2.8411,2.8411,2.8411,2.8396,2.8411,2.8391,2.821,2.7705,2.7034,2.6524,2.6197,2.6068,2.5948,2.5893,2.5893,2.5893,2.5893,2.5374,2.4836,2.4756,2.3865,2.2907,2.2662,2.2123,2.1983,2.1712,2.141,2.1202,2.1264,2.1118,2.0709,2.0573,2.0573,2.0372,1.9823,1.9368,1.9105,1.8893,1.8625,1.853,1.8422,1.8356,1.8313,1.8259,1.8139,1.8084,1.7733,1.7435,1.6989,1.6528,1.6026,1.5459,1.5069,1.4793,1.4625,1.4575,1.4455,1.4387,1.4387,1.4198,1.3761,1.326,1.2704,1.2274,1.2581,1.2948,1.3139,1.339,1.37,1.401,1.4258,1.4497,1.446,1.4286,1.3947,1.3314,1.2626,1.2667,1.2745,1.2871,1.2957,1.3341,1.3637,1.3457,1.3266,1.317,1.3372,3.0387,3.0433,3.1321,3.1667,3.1781,3.2048,3.1766,3.1087,3.1131,3.0793,3.0571,3.1275,3.1585,3.1394,3.1359,3.0951,3.0505,3.0304,2.9766,2.8473,2.8935,2.8842,2.855,2.8411,2.8411,2.8411,2.8411,2.8411,2.8411,2.8411,2.8411,2.8411,2.8411,2.8394,2.8281,2.784,2.7253,2.6688,2.65,2.6404,2.6002,2.5893,2.5893,2.5893,2.5879,2.5739,2.5497,2.4934,2.4132,2.3653,2.2985,2.2133,2.1698,2.1423,2.1118,2.1006,2.1118,2.1019,2.0871,2.0723,2.0736,2.0536,2.008,1.972,1.9512,1.9263,1.8999,1.8798,1.8691,1.8691,1.8637,1.8476,1.8367,1.8193,1.7909,1.7733,1.7446,1.6989,1.6472,1.5968,1.5633,1.5294,1.4902,1.4852,1.4684,1.4565,1.4455,1.4455,1.4267,1.3821,1.345,1.2887,1.326,1.3571,1.37,1.395,1.4207,1.4455,1.4455,1.4446,1.4488,1.4332,1.4148,1.3497,1.2883,1.2786,1.2861,1.3122,1.3532,1.3873,1.4071,1.3988,1.38,1.3647,1.3836,3.0851,3.0896,3.1437,3.1894,3.2176,3.1951,3.1781,3.1567,3.1936,3.1494,3.0806,3.1107,3.1167,3.08,3.0692,3.0304,2.9843,2.9643,2.915,2.8642,2.8673,2.8704,2.8442,2.8411,2.8411,2.8411,2.8411,2.8411,2.8411,2.8411,2.8411,2.8411,2.8411,2.8411,2.8411,2.7959,2.7535,2.6894,2.668,2.6481,2.6056,2.5948,2.5893,2.5893,2.5893,2.5669,2.548,2.5412,2.444,2.3554,2.2696,2.2005,2.1506,2.1375,2.118,2.1033,2.1131,2.1082,2.0983,2.0835,2.0785,2.0749,2.0435,2.022,1.9914,1.9617,1.9316,1.9117,1.9011,1.9011,1.8905,1.8744,1.853,1.8313,1.8084,1.7963,1.7843,1.739,1.6877,1.6528,1.614,1.5796,1.5352,1.5069,1.4902,1.4734,1.4575,1.4515,1.4515,1.4258,1.4198,1.383,1.401,1.4267,1.4267,1.4258,1.4455,1.4515,1.4515,1.4515,1.4515,1.4249,1.3965,1.3635,1.3218,1.3121,1.3319,1.3847,1.4212,1.4455,1.4455,1.4316,1.4408,1.4362,1.4547,3.1321,3.1379,3.1838,3.2191,3.2342,3.212,3.2007,3.2064,3.2287,3.168,3.0784,3.1075,3.1028,3.0366,3.0135,2.9843,2.935,2.9073,2.8796,2.8504,2.8411,2.8442,2.8411,2.8411,2.8411,2.8411,2.8411,2.8411,2.8411,2.8411,2.8411,2.8411,2.8411,2.8411,2.8348,2.8171,2.7815,2.7223,2.6916,2.6477,2.6096,2.6002,2.5948,2.5893,2.5823,2.5626,2.5438,2.536,2.4475,2.3421,2.2526,2.1842,2.1423,2.118,2.1131,2.1144,2.1131,2.1082,2.0997,2.0898,2.0835,2.0749,2.0699,2.0385,2.0118,1.9811,1.9875,1.972,1.9552,1.9552,1.9356,1.9146,1.8798,1.853,1.8247,1.803,1.7963,1.7799,1.7335,1.6922,1.6641,1.6415,1.6026,1.5806,1.5633,1.5517,1.5245,1.4911,1.4852,1.4684,1.4625,1.4515,1.4515,1.4515,1.4396,1.4396,1.4455,1.4515,1.4515,1.4515,1.4478,1.4121,1.381,1.3616,1.347,1.339,1.3693,1.4262,1.4651,1.4823,1.4731,1.4593,1.4731,1.4834,1.4834,3.1781,3.1853,3.2216,3.2398,3.2398,3.2398,3.2321,3.2244,3.2228,3.1505,3.0391,3.0828,3.072,3.012,2.9612,2.9412,2.9135,2.8765,2.8473,2.8427,2.8411,2.8411,2.8411,2.8411,2.8411,2.8411,2.8411,2.8411,2.8411,2.8411,2.8411,2.8411,2.8411,2.8411,2.8235,2.8057,2.7715,2.756,2.7188,2.6515,2.624,2.6096,2.5948,2.5893,2.5893,2.5893,2.5528,2.4976,2.4287,2.3362,2.2385,2.1662,2.1277,2.1033,2.1033,2.1046,2.0997,2.0934,2.0898,2.0799,2.0749,2.0699,2.0699,2.0536,2.0271,2.022,2.0271,2.022,2.0105,1.9952,1.9747,1.95,1.9146,1.8851,1.8518,1.8302,1.8302,1.8247,1.7897,1.7479,1.7257,1.709,1.6698,1.6472,1.6312,1.6244,1.6026,1.5748,1.541,1.5128,1.4902,1.4734,1.4625,1.4565,1.4515,1.4515,1.4515,1.4515,1.4515,1.4515,1.446,1.4249,1.4052,1.3838,1.3724,1.3892,1.4049,1.4529,1.4845,1.5119,1.5017,1.4869,1.488,1.4926,1.488,3.2272,3.2287,3.2327,3.2382,3.2367,3.2367,3.209,3.1613,3.1551,3.0843,2.995,2.9643,2.9427,2.8796,2.8704,2.8642,2.8719,2.8442,2.8427,2.8411,2.8411,2.8411,2.8411,2.8411,2.8411,2.8411,2.8411,2.8411,2.8411,2.8411,2.8411,2.8411,2.8411,2.8411,2.8411,2.8201,2.8134,2.7931,2.7527,2.6937,2.639,2.6204,2.5948,2.5893,2.5893,2.5893,2.5666,2.5062,2.4362,2.3442,2.2206,2.139,2.1082,2.1033,2.0997,2.0947,2.0898,2.0848,2.0799,2.0749,2.0699,2.0699,2.0699,2.0699,2.0536,2.0536,2.0536,2.0536,2.0422,2.0258,2.0055,1.9901,1.9592,1.9303,1.904,1.904,1.8987,1.8934,1.8762,1.8494,1.8278,1.7831,1.7257,1.7034,1.6821,1.6708,1.6425,1.614,1.6083,1.569,1.5235,1.501,1.4852,1.4625,1.4506,1.4515,1.4515,1.4515,1.4515,1.4515,1.4515,1.4497,1.4283,1.4035,1.4336,1.4594,1.481,1.4766,1.5028,1.5256,1.5267,1.521,1.5108,1.5017,1.4971]},{"header":{"parameterUnit":"m.s-1","parameterCategory":1,"la1":31.0,"la2":29.5877,"lo1":-88.7671,"lo2":-86.6584,"dy":0.0162,"dx":0.0185,"nx":115,"ny":88,"refTime":"2024-07-28T06:00:00:Z","depth":0,"parameterNumber":3,"parameterNumberName":"V-component_of_WINDS"},"data":[0.0,0.0,0.0,0.0,0.0,0.0,0.0,0.0,0.0,0.0,0.0,0.0,0.0,0.0,0.0,0.0,0.0,0.0,0.0,0.0,0.0,0.0,0.0,0.0,0.0,0.0,0.0,0.0,0.0,0.0,0.0,0.0,0.0,0.0,0.0,0.0,0.0,0.0,0.0,0.0,0.0,0.0,0.0,0.0,0.0,0.0,0.0,0.0,0.0,0.0,0.0,0.0,0.0,0.0,0.0,0.0,0.0,0.0,0.0,0.0,0.0,0.0,0.0,0.0,0.0,0.0,0.0,0.0,0.0,0.0,0.0,0.0,0.0,0.0,0.0,0.0,0.0,0.0,0.0,0.0,0.0,0.0,0.0,0.0,0.0,0.0,0.0,0.0,0.0,0.0,0.0,0.0,0.0,0.0,0.0,0.0,0.0,0.0,0.0,0.0,0.0,0.0,0.0,0.0,0.0,0.0,0.0,0.0,0.0,0.0,0.0,0.0,0.0,0.0,0.0,0.0,0.0,0.0,0.0,0.0,0.0,0.0,0.0,0.0,0.0,0.0,0.0,0.0,0.0,0.0,0.0,0.0,0.0,0.0,0.0,0.0,0.0,0.0,0.0,0.0,0.0,0.0,0.0,0.0,0.0,0.0,0.0,0.0,0.0,0.0,0.0,0.0,0.0,0.0,0.0,0.0,0.0,0.0,0.0,0.0,0.0,0.0,0.0,0.0,0.0,0.0,0.0,0.0,0.0,0.0,0.0,0.0,0.0,0.0,0.0,0.0,0.0,0.0,0.0,0.0,0.0,0.0,0.0,0.0,0.0,0.0,0.0,0.0,0.0,0.0,0.0,0.0,0.0,0.0,0.0,0.0,0.0,0.0,0.0,0.0,0.0,0.0,0.0,0.0,0.0,0.0,0.0,0.0,0.0,0.0,0.0,0.0,0.0,0.0,0.0,0.0,0.0,0.0,0.0,0.0,0.0,0.0,0.0,0.0,0.0,0.0,0.0,0.0,0.0,0.0,0.0,0.0,0.0,0.0,0.0,0.0,0.0,0.0,0.0,0.0,0.0,0.0,0.0,0.0,0.0,0.0,0.0,0.0,0.0,0.0,0.0,0.0,0.0,0.0,0.0,0.0,0.0,0.0,0.0,0.0,0.0,0.0,0.0,0.0,0.0,0.0,0.0,0.0,0.0,0.0,0.0,0.0,0.0,0.0,0.0,0.0,0.0,0.0,0.0,0.0,0.0,0.0,0.0,0.0,0.0,0.0,0.0,0.0,0.0,0.0,0.0,0.0,0.0,0.0,0.0,0.0,0.0,0.0,0.0,0.0,0.0,0.0,0.0,0.0,0.0,0.0,0.0,0.0,0.0,0.0,0.0,0.0,0.0,0.0,0.0,0.0,0.0,0.0,0.0,0.0,0.0,0.0,0.0,0.0,0.0,0.0,0.0,0.0,0.0,0.0,0.0,0.0,0.0,0.0,0.0,0.0,0.0,0.0,0.0,0.0,0.0,0.0,0.0,0.0,0.0,0.0,0.0,0.0,0.0,0.0,0.0,0.0,0.0,0.0,0.0,0.0,0.0,0.0,0.0,0.0,0.0,0.0,0.0,0.0,0.0,0.0,0.0,0.0,0.0,0.0,0.0,0.0,0.0,0.0,0.0,0.0,0.0,0.0,0.0,0.0,0.0,0.0,0.0,0.0,0.0,0.0,0.0,0.0,0.0,0.0,0.0,0.0,0.0,0.0,0.0,0.0,0.0,0.0,0.0,0.0,0.0,0.0,0.0,0.0,0.0,0.0,0.0,0.0,0.0,0.0,0.0,0.0,0.0,0.0,0.0,0.0,0.0,0.0,0.0,0.0,0.0,0.0,0.0,0.0,0.0,0.0,0.0,0.0,0.0,0.0,0.0,0.0,0.0,0.0,0.0,0.0,0.0,0.0,0.0,0.0,0.0,0.0,0.0,0.0,0.0,0.0,0.0,0.0,0.0,0.0,0.0,0.0,0.0,0.0,0.0,0.0,0.0,0.0,0.0,0.0,0.0,0.0,0.0,0.0,0.0,0.0,0.0,0.0,0.0,0.0,0.0,0.0,0.0,0.0,0.0,0.0,0.0,0.0,0.0,0.0,0.0,0.0,0.0,0.0,0.0,0.0,0.0,0.0,0.0,0.0,0.0,0.0,0.0,0.0,0.0,0.0,0.0,0.0,0.0,0.0,0.0,0.0,0.0,0.0,0.0,0.0,0.0,0.0,0.0,0.0,0.0,0.0,0.0,0.0,0.0,0.0,0.0,0.0,0.0,0.0,0.0,0.0,0.0,0.0,0.0,0.0,0.0,0.0,0.0,0.0,0.0,0.0,0.0,0.0,0.0,0.0,0.0,0.0,0.0,0.0,0.0,0.0,0.0,0.0,0.0,0.0,0.0,0.0,0.0,0.0,0.0,0.0,0.0,0.0,0.0,0.0,0.0,0.0,0.0,0.0,0.0,0.0,0.0,0.0,0.0,0.0,0.0,0.0,0.0,0.0,0.0,0.0,0.0,0.0,0.0,0.0,0.0,0.0,0.0,0.0,0.0,0.0,0.0,0.0,0.0,0.0,0.0,0.0,0.0,0.0,0.0,0.0,0.0,0.0,0.0,0.0,0.0,0.0,0.0,0.0,0.0,0.0,0.0,0.0,0.0,0.0,0.0,0.0,0.0,0.0,0.0,0.0,0.0,0.0,0.0,0.0,0.0,0.0,0.0,0.0,0.0,0.0,0.0,0.0,0.0,0.0,0.0,0.0,0.0,0.0,0.0,0.0,0.0,0.0,0.0,0.0,0.0,0.0,0.0,0.0,0.0,0.0,0.0,0.0,0.0,0.0,0.0,0.0,0.0,0.0,0.0,0.0,0.0,0.0,0.0,0.0,0.0,0.0,0.0,0.0,0.0,0.0,0.0,0.0,0.0,0.0,0.0,0.0,0.0,0.0,0.0,0.0,0.0,0.0,0.0,0.0,0.0,0.0,0.0,0.0,0.0,0.0,0.0,0.0,0.0,0.0,0.0,0.0,0.0,0.0,0.0,0.0,0.0,0.0,0.0,0.0,0.0,0.0,0.0,0.0,0.0,0.0,0.0,0.0,0.0,0.0,0.0,0.0,0.0,0.0,0.0,0.0,0.0,0.0,0.0,0.0,0.0,0.0,0.0,0.0,0.0,0.0,0.0,0.0,0.0,0.0,0.0,0.0,0.0,0.0,0.0,0.0,0.0,0.0,0.0,0.0,0.0,0.0,0.0,0.0,0.0,0.0,0.0,0.0,0.0,0.0,0.0,0.0,0.0,0.0,0.0,0.0,0.0,0.0,0.0,0.0,0.0,0.0,0.0,0.0,0.0,0.0,0.0,0.0,0.0,0.0,0.0,0.0,0.0,0.0,0.0,0.0,0.0,0.0,0.0,0.0,0.0,0.0,0.0,0.0,0.0,0.0,0.0,0.0,0.0,0.0,0.0,0.0,0.0,0.0,0.0,0.0,0.0,0.0,0.0,0.0,0.0,0.0,0.0,0.0,0.0,0.0,0.0,0.0,0.0,0.0,0.0,0.0,0.0,0.0,0.0,0.0,0.0,0.0,0.0,0.0,0.0,0.0,0.0,0.0,0.0,0.0,0.0,0.0,0.0,0.0,0.0,0.0,0.0,0.0,0.0,0.0,0.0,0.0,0.0,0.0,0.0,0.0,0.0,0.0,0.0,0.0,0.0,0.0,0.0,0.0,0.0,0.0,0.0,0.0,0.0,0.0,0.0,0.0,0.0,0.0,0.0,0.0,0.0,0.0,0.0,0.0,0.0,0.0,0.0,0.0,0.0,0.0,0.0,0.0,0.0,0.0,0.0,0.0,0.0,0.0,0.0,0.0,0.0,0.0,0.0,0.0,0.0,0.0,0.0,0.0,0.0,0.0,0.0,0.0,0.0,0.0,0.0,0.0,0.0,0.0,0.0,0.0,0.0,0.0,0.0,0.0,0.0,0.0,0.0,0.0,0.0,0.0,0.0,0.0,0.0,0.0,0.0,0.0,0.0,0.0,0.0,0.0,0.0,0.0,0.0,0.0,0.0,0.0,0.0,0.0,0.0,0.0,0.0,0.0,0.0,0.0,0.0,0.0,0.0,0.0,0.0,0.0,0.0,0.0,0.0,0.0,0.0,0.0,0.0,0.0,0.0,0.0,0.0,0.0,0.0,0.0,0.0,0.0,0.0,0.0,0.0,0.0,0.0,0.0,0.0,0.0,0.0,0.0,0.0,0.0,-1.0326,0.0,0.0,0.0,0.0,0.0,0.0,0.0,0.0,0.0,0.0,0.0,0.0,0.0,0.0,0.0,0.0,0.0,0.0,0.0,0.0,0.0,0.0,0.0,0.0,0.0,0.0,0.0,0.0,0.0,0.0,0.0,0.0,0.0,0.0,0.0,0.0,0.0,0.0,0.0,0.0,0.0,0.0,0.0,0.0,0.0,0.0,0.0,0.0,0.0,0.0,0.0,0.0,0.0,0.0,0.0,0.0,0.0,0.0,0.0,0.0,0.0,0.0,0.0,0.0,0.0,0.0,0.0,0.0,0.0,0.0,0.0,0.0,0.0,0.0,0.0,0.0,0.0,0.0,0.0,0.0,0.0,0.0,0.0,0.0,0.0,0.0,0.0,0.0,0.0,0.0,0.0,0.0,0.0,0.0,0.0,0.0,0.0,0.0,0.0,0.0,0.0,0.0,0.0,0.0,0.0,0.0,0.0,0.0,0.0,0.0,-1.2626,-1.2594,-1.203,-1.1296,-1.0461,0.0,0.0,0.0,0.0,0.0,0.0,0.0,0.0,0.0,0.0,0.0,0.0,0.0,0.0,0.0,0.0,0.0,0.0,0.0,0.0,0.0,0.0,0.0,0.0,0.0,0.0,0.0,0.0,0.0,0.0,0.0,0.0,0.0,0.0,0.0,0.0,0.0,0.0,0.0,0.0,0.0,0.0,0.0,0.0,0.0,0.0,0.0,0.0,0.0,0.0,0.0,0.0,0.0,0.0,0.0,0.0,0.0,0.0,0.0,0.0,0.0,0.0,0.0,0.0,0.0,0.0,0.0,0.0,0.0,0.0,0.0,0.0,0.0,0.0,0.0,0.0,0.0,0.0,0.0,0.0,0.0,0.0,0.0,0.0,0.0,0.0,0.0,0.0,0.0,0.0,0.0,0.0,0.0,0.0,0.0,0.0,0.0,0.0,0.0,0.0,0.0,0.0,0.0,0.0,0.0,0.0,0.0,0.0,0.0,0.0,0.0,0.0,-1.2061,-1.1321,-1.0511,0.0,0.0,0.0,0.0,0.0,0.0,0.0,0.0,0.0,0.0,0.0,0.0,0.0,0.0,0.0,0.0,0.0,0.0,0.0,0.0,0.0,0.0,0.0,0.0,0.0,0.0,0.0,0.0,0.0,0.0,0.0,0.0,0.0,0.0,0.0,0.0,0.0,0.0,0.0,0.0,0.0,0.0,0.0,0.0,0.0,0.0,0.0,0.0,0.0,0.0,0.0,0.0,0.0,0.0,0.0,0.0,0.0,0.0,0.0,0.0,0.0,0.0,0.0,0.0,0.0,0.0,0.0,0.0,0.0,0.0,0.0,0.0,0.0,0.0,0.0,0.0,0.0,0.0,0.0,0.0,0.0,0.0,0.0,0.0,0.0,0.0,0.0,0.0,0.0,0.0,0.0,0.0,0.0,0.0,0.0,0.0,0.0,0.0,0.0,0.0,0.0,0.0,0.0,0.0,0.0,0.0,0.0,0.0,0.0,0.0,-1.22,-1.3015,-1.2619,0.0,-1.0542,0.0,0.0,0.0,0.0,0.0,0.0,0.0,0.0,0.0,0.0,0.0,0.0,0.0,0.0,0.0,0.0,0.0,0.0,0.0,0.0,0.0,0.0,0.0,0.0,0.0,0.0,0.0,0.0,0.0,0.0,0.0,0.0,0.0,0.0,0.0,0.0,0.0,0.0,0.0,0.0,0.0,0.0,0.0,0.0,0.0,0.0,0.0,0.0,0.0,0.0,0.0,0.0,0.0,0.0,0.0,0.0,0.0,0.0,0.0,0.0,0.0,0.0,0.0,0.0,0.0,0.0,0.0,0.0,0.0,0.0,0.0,0.0,0.0,0.0,0.0,0.0,0.0,0.0,0.0,0.0,0.0,0.0,0.0,0.0,0.0,0.0,0.0,0.0,0.0,0.0,0.0,0.0,0.0,0.0,0.0,0.0,0.0,0.0,0.0,0.0,0.0,0.0,0.0,0.0,0.0,0.0,0.0,0.0,0.0,0.0,-1.2074,-1.2439,-1.1859,-1.1043,0.0,0.0,0.0,0.0,0.0,0.0,0.0,0.0,0.0,0.0,0.0,0.0,0.0,0.0,0.0,0.0,0.0,0.0,0.0,0.0,0.0,0.0,0.0,0.0,0.0,0.0,0.0,0.0,0.0,0.0,0.0,0.0,0.0,0.0,0.0,0.0,0.0,0.0,0.0,0.0,0.0,0.0,0.0,0.0,0.0,0.0,0.0,0.0,0.0,0.0,0.0,0.0,0.0,0.0,0.0,0.0,0.0,0.0,0.0,0.0,0.0,0.0,0.0,0.0,0.0,0.0,0.0,0.0,0.0,0.0,0.0,0.0,0.0,0.0,0.0,0.0,0.0,0.0,0.0,0.0,0.0,0.0,0.0,0.0,0.0,0.0,0.0,0.0,0.0,0.0,0.0,0.0,0.0,0.0,0.0,0.0,0.0,0.0,0.0,0.0,0.0,0.0,0.0,0.0,0.0,0.0,0.0,0.0,0.0,0.0,-1.1793,-1.1793,-1.1975,-1.1478,-1.072,-0.9683,0.0,0.0,0.0,0.0,0.0,0.0,0.0,0.0,0.0,0.0,0.0,0.0,0.0,0.0,0.0,0.0,0.0,0.0,0.0,0.0,0.0,0.0,0.0,0.0,0.0,0.0,0.0,0.0,0.0,0.0,0.0,0.0,0.0,0.0,0.0,0.0,0.0,0.0,0.0,0.0,0.0,0.0,0.0,0.0,0.0,0.0,0.0,0.0,0.0,0.0,0.0,0.0,0.0,0.0,0.0,0.0,0.0,0.0,0.0,0.0,0.0,0.0,0.0,0.0,0.0,0.0,0.0,0.0,0.0,0.0,0.0,0.0,0.0,0.0,0.0,0.0,0.0,0.0,0.0,0.0,0.0,0.0,0.0,0.0,0.0,0.0,0.0,0.0,0.0,0.0,0.0,0.0,0.0,0.0,0.0,0.0,0.0,0.0,0.0,0.0,0.0,0.0,0.0,0.0,0.0,0.0,0.0,0.0,-1.1874,-1.1294,-1.128,-1.1976,-1.1959,-1.128,0.0,0.0,0.0,0.0,0.0,0.0,0.0,0.0,0.0,0.0,0.0,0.0,0.0,0.0,0.0,0.0,0.0,0.0,0.0,0.0,0.0,0.0,0.0,0.0,0.0,0.0,0.0,0.0,0.0,0.0,0.0,0.0,0.0,0.0,0.0,0.0,0.0,0.0,0.0,0.0,0.0,0.0,0.0,0.0,0.0,0.0,0.0,0.0,0.0,0.0,0.0,0.0,0.0,0.0,0.0,0.0,0.0,0.0,0.0,0.0,0.0,0.0,0.0,0.0,0.0,0.0,0.0,0.0,0.0,0.0,0.0,0.0,0.0,0.0,0.0,0.0,0.0,0.0,0.0,0.0,0.0,0.0,0.0,0.0,0.0,0.0,0.0,0.0,0.0,0.0,0.0,0.0,0.0,0.0,0.0,0.0,0.0,0.0,0.0,0.0,0.0,0.0,0.0,0.0,0.0,0.0,0.0,0.0,0.0,-1.0416,-1.0203,-1.0845,-1.2381,-1.1284,-1.0493,0.0,0.0,0.0,0.0,0.0,0.0,0.0,0.0,0.0,0.0,0.0,0.0,0.0,0.0,0.0,0.0,0.0,0.0,0.0,0.0,0.0,0.0,0.0,0.0,0.0,0.0,0.0,0.0,0.0,0.0,0.0,0.0,0.0,0.0,0.0,0.0,0.0,0.0,0.0,0.0,0.0,0.0,0.0,0.0,0.0,0.0,0.0,0.0,0.0,0.0,0.0,0.0,0.0,0.0,0.0,0.0,0.0,0.0,0.0,0.0,0.0,0.0,0.0,0.0,0.0,0.0,0.0,0.0,0.0,0.0,0.0,0.0,0.0,0.0,0.0,0.0,0.0,0.0,0.0,0.0,0.0,0.0,0.0,0.0,0.0,0.0,0.0,0.0,0.0,0.0,0.0,0.0,0.0,0.0,0.0,0.0,0.0,0.0,0.0,0.0,0.0,0.0,0.0,0.0,0.0,0.0,0.0,0.0,0.0,-0.9982,0.0,-1.0897,-1.2035,-1.0858,-1.0086,0.0,0.0,0.0,0.0,0.0,0.0,0.0,0.0,0.0,0.0,0.0,0.0,0.0,0.0,0.0,0.0,0.0,0.0,0.0,0.0,0.0,0.0,0.0,0.0,0.0,0.0,0.0,0.0,0.0,0.0,0.0,0.0,0.0,0.0,0.0,0.0,0.0,0.0,0.0,0.0,0.0,0.0,0.0,0.0,0.0,0.0,0.0,0.0,0.0,0.0,0.0,0.0,0.0,0.0,0.0,0.0,0.0,0.0,0.0,0.0,0.0,0.0,0.0,0.0,0.0,0.0,0.0,0.0,0.0,0.0,0.0,0.0,0.0,0.0,0.0,0.0,0.0,0.0,0.0,0.0,0.0,0.0,0.0,0.0,0.0,0.0,0.0,0.0,0.0,0.0,0.0,0.0,0.0,0.0,0.0,0.0,0.0,0.0,0.0,0.0,0.0,0.0,0.0,0.0,0.0,0.0,0.0,0.0,-0.9442,-1.0729,-1.1319,-1.1351,-1.0861,-1.0795,-1.0135,0.0,0.0,0.0,0.0,0.0,0.0,0.0,0.0,0.0,0.0,0.0,0.0,0.0,0.0,0.0,0.0,0.0,0.0,0.0,0.0,0.0,0.0,0.0,0.0,0.0,0.0,0.0,0.0,0.0,0.0,0.0,0.0,0.0,0.0,0.0,0.0,0.0,0.0,0.0,0.0,0.0,0.0,0.0,0.0,0.0,0.0,0.0,0.0,0.0,0.0,0.0,0.0,0.0,0.0,0.0,0.0,0.0,0.0,0.0,0.0,0.0,0.0,0.0,0.0,0.0,0.0,0.0,0.0,0.0,0.0,0.0,0.0,0.0,0.0,0.0,0.0,0.0,0.0,0.0,0.0,0.0,0.0,0.0,0.0,0.0,0.0,0.0,0.0,0.0,0.0,0.0,0.0,0.0,0.0,0.0,0.0,0.0,0.0,0.0,0.0,0.0,0.0,0.0,0.0,0.0,0.0,0.0,0.0,0.0,-1.0527,-1.0718,-1.1112,-1.1687,-1.064,-0.9987,0.0,0.0,0.0,0.0,0.0,0.0,0.0,0.0,0.0,0.0,0.0,0.0,0.0,0.0,0.0,0.0,0.0,0.0,0.0,0.0,0.0,0.0,0.0,0.0,0.0,0.0,0.0,0.0,0.0,0.0,0.0,0.0,0.0,0.0,0.0,0.0,0.0,0.0,0.0,0.0,0.0,0.0,0.0,0.0,0.0,0.0,0.0,0.0,0.0,0.0,0.0,0.0,0.0,0.0,0.0,0.0,0.0,0.0,0.0,0.0,0.0,0.0,0.0,0.0,0.0,0.0,0.0,0.0,0.0,0.0,0.0,0.0,0.0,0.0,0.0,0.0,0.0,0.0,0.0,0.0,0.0,0.0,0.0,0.0,0.0,0.0,0.0,0.0,0.0,0.0,0.0,0.0,0.0,0.0,0.0,0.0,0.0,0.0,0.0,0.0,0.0,0.0,0.0,0.0,0.0,0.0,0.0,0.0,0.0,-1.0976,-1.1028,-1.1346,-1.1921,-1.0926,-1.0399,-1.0447,0.0,0.0,0.0,0.0,0.0,0.0,0.0,0.0,0.0,0.0,0.0,0.0,0.0,0.0,0.0,0.0,0.0,0.0,0.0,0.0,0.0,0.0,0.0,0.0,0.0,0.0,0.0,0.0,0.0,0.0,0.0,0.0,0.0,0.0,0.0,0.0,0.0,0.0,0.0,0.0,0.0,0.0,0.0,0.0,0.0,0.0,0.0,0.0,0.0,0.0,0.0,0.0,0.0,0.0,0.0,0.0,0.0,0.0,0.0,0.0,0.0,0.0,0.0,0.0,0.0,0.0,0.0,0.0,0.0,0.0,0.0,0.0,0.0,0.0,0.0,0.0,0.0,0.0,0.0,0.0,0.0,0.0,0.0,0.0,0.0,0.0,0.0,0.0,0.0,0.0,0.0,0.0,0.0,0.0,0.0,0.0,0.0,0.0,0.0,0.0,0.0,0.0,0.0,0.0,0.0,0.0,0.0,0.0,-1.1957,-1.2194,-1.21,-1.1661,-1.1571,-1.1259,0.0,0.0,0.0,0.0,0.0,0.0,0.0,0.0,0.0,0.0,0.0,0.0,0.0,0.0,0.0,0.0,0.0,0.0,0.0,0.0,0.0,0.0,0.0,0.0,0.0,0.0,0.0,0.0,0.0,0.0,0.0,0.0,0.0,0.0,0.0,0.0,0.0,0.0,0.0,0.0,0.0,0.0,0.0,0.0,0.0,0.0,0.0,0.0,0.0,0.0,0.0,0.0,0.0,0.0,0.0,0.0,0.0,0.0,0.0,0.0,0.0,0.0,0.0,0.0,0.0,0.0,0.0,0.0,0.0,0.0,0.0,0.0,0.0,0.0,0.0,0.0,0.0,0.0,0.0,0.0,0.0,0.0,0.0,0.0,0.0,0.0,0.0,0.0,0.0,0.0,0.0,0.0,0.0,0.0,0.0,0.0,0.0,0.0,0.0,0.0,0.0,0.0,0.0,0.0,0.0,0.0,0.0,0.0,0.0,-1.2875,-1.3283,-1.3381,-1.3051,-1.238,-1.1937,0.0,0.0,0.0,0.0,0.0,0.0,0.0,0.0,0.0,0.0,0.0,0.0,0.0,0.0,0.0,0.0,0.0,0.0,0.0,0.0,0.0,0.0,0.0,0.0,0.0,0.0,0.0,0.0,0.0,0.0,0.0,0.0,0.0,0.0,0.0,0.0,0.0,0.0,0.0,0.0,0.0,0.0,0.0,0.0,0.0,0.0,0.0,0.0,0.0,0.0,0.0,0.0,0.0,0.0,0.0,0.0,0.0,0.0,0.0,0.0,0.0,0.0,0.0,0.0,0.0,0.0,0.0,0.0,0.0,0.0,0.0,0.0,0.0,0.0,0.0,0.0,0.0,0.0,0.0,0.0,0.0,0.0,0.0,0.0,0.0,0.0,0.0,0.0,0.0,0.0,0.0,0.0,0.0,0.0,0.0,0.0,0.0,0.0,0.0,0.0,0.0,0.0,0.0,0.0,0.0,0.0,0.0,0.0,-1.3359,-1.4053,-1.4207,-1.4397,-1.4599,-1.3502,-1.2836,0.0,0.0,0.0,0.0,0.0,0.0,0.0,0.0,0.0,0.0,0.0,0.0,0.0,0.0,0.0,0.0,0.0,0.0,0.0,0.0,0.0,0.0,0.0,0.0,0.0,0.0,0.0,0.0,0.0,0.0,0.0,0.0,0.0,0.0,0.0,0.0,0.0,0.0,0.0,0.0,0.0,0.0,0.0,0.0,0.0,0.0,0.0,0.0,0.0,0.0,0.0,0.0,0.0,0.0,0.0,0.0,0.0,0.0,0.0,0.0,0.0,0.0,0.0,0.0,0.0,0.0,0.0,0.0,0.0,0.0,0.0,0.0,0.0,0.0,0.0,0.0,0.0,0.0,0.0,0.0,0.0,0.0,0.0,0.0,0.0,0.0,0.0,0.0,0.0,0.0,0.0,0.0,0.0,0.0,0.0,0.0,0.0,0.0,0.0,0.0,0.0,0.0,0.0,0.0,0.0,0.0,0.0,0.0,-1.3803,-1.5191,-1.4977,-1.5212,-1.5879,-1.4626,-1.3715,0.0,0.0,0.0,0.0,0.0,0.0,0.0,0.0,0.0,0.0,0.0,0.0,0.0,0.0,0.0,0.0,0.0,0.0,0.0,0.0,0.0,0.0,0.0,0.0,0.0,0.0,0.0,0.0,0.0,0.0,0.0,0.0,0.0,0.0,0.0,0.0,0.0,0.0,0.0,0.0,0.0,0.0,0.0,0.0,0.0,0.0,0.0,0.0,0.0,0.0,0.0,0.0,0.0,0.0,0.0,0.0,0.0,0.0,0.0,0.0,0.0,0.0,0.0,0.0,0.0,0.0,0.0,0.0,0.0,0.0,0.0,0.0,0.0,0.0,0.0,0.0,0.0,0.0,0.0,0.0,0.0,0.0,0.0,0.0,0.0,0.0,0.0,0.0,0.0,0.0,0.0,0.0,0.0,0.0,0.0,0.0,0.0,0.0,0.0,0.0,0.0,0.0,0.0,0.0,0.0,0.0,0.0,0.0,-1.4152,-1.4725,-1.5537,-1.5872,-1.5682,-1.4521,-1.3913,0.0,0.0,0.0,0.0,0.0,0.0,0.0,0.0,0.0,0.0,0.0,0.0,0.0,0.0,0.0,0.0,0.0,0.0,0.0,0.0,0.0,0.0,0.0,0.0,0.0,0.0,0.0,0.0,0.0,0.0,0.0,0.0,0.0,0.0,0.0,0.0,0.0,0.0,0.0,0.0,0.0,0.0,0.0,0.0,0.0,0.0,0.0,0.0,-1.1166,0.0,0.0,0.0,0.0,0.0,0.0,0.0,0.0,0.0,0.0,0.0,0.0,0.0,0.0,0.0,0.0,0.0,0.0,0.0,0.0,0.0,0.0,0.0,0.0,0.0,0.0,0.0,0.0,0.0,0.0,0.0,0.0,0.0,0.0,0.0,0.0,0.0,0.0,0.0,0.0,0.0,0.0,0.0,0.0,0.0,0.0,0.0,0.0,0.0,0.0,0.0,0.0,0.0,0.0,0.0,0.0,0.0,0.0,0.0,-1.4347,-1.5242,-1.573,-1.5911,-1.5767,-1.4752,-1.4222,0.0,0.0,0.0,0.0,0.0,0.0,0.0,0.0,0.0,0.0,0.0,0.0,0.0,0.0,0.0,0.0,0.0,0.0,0.0,0.0,0.0,0.0,0.0,0.0,0.0,0.0,0.0,0.0,0.0,0.0,0.0,0.0,0.0,0.0,0.0,0.0,0.0,0.0,0.0,0.0,0.0,0.0,0.0,0.0,0.0,0.0,0.0,0.0,0.0,0.0,0.0,0.0,0.0,0.0,0.0,0.0,0.0,0.0,0.0,0.0,0.0,0.0,0.0,0.0,0.0,0.0,0.0,0.0,0.0,0.0,0.0,0.0,0.0,0.0,0.0,0.0,0.0,0.0,0.0,0.0,0.0,0.0,0.0,0.0,0.0,0.0,0.0,0.0,0.0,0.0,0.0,0.0,0.0,0.0,0.0,0.0,0.0,0.0,0.0,0.0,0.0,0.0,0.0,0.0,0.0,0.0,0.0,-1.3686,-1.4393,-1.5823,-1.5755,-1.5755,-1.594,-1.5201,-1.4596,-1.4151,0.0,0.0,0.0,0.0,0.0,0.0,0.0,0.0,0.0,0.0,0.0,0.0,0.0,0.0,0.0,0.0,0.0,0.0,0.0,0.0,0.0,0.0,0.0,0.0,0.0,0.0,0.0,0.0,0.0,0.0,0.0,0.0,0.0,0.0,0.0,0.0,0.0,0.0,-0.9698,-1.1287,0.0,0.0,0.0,0.0,0.0,0.0,0.0,0.0,-1.4295,0.0,0.0,0.0,0.0,0.0,0.0,0.0,0.0,0.0,0.0,0.0,0.0,0.0,0.0,0.0,0.0,0.0,0.0,0.0,0.0,0.0,0.0,0.0,0.0,0.0,0.0,0.0,0.0,0.0,0.0,0.0,0.0,0.0,0.0,0.0,0.0,0.0,0.0,0.0,0.0,0.0,0.0,0.0,0.0,0.0,0.0,0.0,0.0,0.0,0.0,0.0,0.0,0.0,0.0,0.0,0.0,-1.3412,-1.3624,-1.4275,-1.5389,-1.5755,-1.5854,-1.5682,-1.5721,-1.5224,-1.4044,0.0,0.0,0.0,0.0,0.0,0.0,0.0,0.0,0.0,0.0,0.0,0.0,0.0,0.0,0.0,0.0,0.0,0.0,0.0,0.0,0.0,0.0,0.0,0.0,0.0,0.0,0.0,0.0,0.0,0.0,0.0,0.0,0.0,0.0,0.0,0.0,0.0,0.0,0.0,-1.2649,-1.3634,0.0,0.0,0.0,0.0,0.0,0.0,0.0,0.0,-1.4954,0.0,0.0,0.0,0.0,0.0,0.0,0.0,0.0,0.0,0.0,0.0,0.0,0.0,0.0,0.0,0.0,0.0,0.0,0.0,0.0,0.0,0.0,0.0,0.0,0.0,0.0,0.0,0.0,0.0,0.0,0.0,0.0,0.0,0.0,0.0,0.0,0.0,0.0,0.0,0.0,0.0,0.0,0.0,0.0,0.0,0.0,0.0,0.0,0.0,0.0,0.0,0.0,0.0,0.0,0.0,-1.3257,-1.3481,-1.4114,-1.5255,-1.5507,-1.5566,-1.5433,-1.4915,-1.4397,0.0,0.0,0.0,0.0,0.0,0.0,0.0,0.0,0.0,0.0,0.0,0.0,0.0,0.0,0.0,0.0,0.0,0.0,0.0,0.0,0.0,0.0,0.0,0.0,0.0,0.0,0.0,0.0,0.0,0.0,0.0,0.0,0.0,0.0,0.0,0.0,0.0,0.0,0.0,0.0,-1.3241,-1.3881,-1.4828,0.0,0.0,0.0,0.0,0.0,0.0,-1.4737,-1.5015,0.0,0.0,0.0,0.0,0.0,0.0,0.0,0.0,0.0,0.0,0.0,0.0,0.0,0.0,0.0,0.0,0.0,0.0,0.0,0.0,0.0,0.0,0.0,0.0,0.0,0.0,0.0,0.0,0.0,0.0,0.0,0.0,0.0,0.0,0.0,0.0,0.0,0.0,0.0,0.0,0.0,0.0,0.0,0.0,0.0,0.0,0.0,0.0,0.0,0.0,0.0,0.0,0.0,0.0,0.0,-1.3311,-1.3388,-1.4007,-1.524,-1.5298,-1.5298,-1.5284,-1.4222,-1.3557,0.0,0.0,0.0,0.0,0.0,0.0,0.0,0.0,0.0,0.0,0.0,0.0,0.0,0.0,0.0,0.0,0.0,0.0,0.0,0.0,0.0,0.0,0.0,0.0,0.0,0.0,0.0,0.0,0.0,0.0,0.0,0.0,0.0,0.0,0.0,0.0,0.0,0.0,0.0,0.0,0.0,-1.4128,-1.4983,-1.5112,0.0,0.0,0.0,0.0,-1.5285,-1.5122,0.0,0.0,0.0,0.0,0.0,0.0,0.0,0.0,0.0,0.0,0.0,0.0,0.0,0.0,0.0,0.0,0.0,0.0,0.0,0.0,0.0,0.0,0.0,0.0,0.0,0.0,0.0,0.0,0.0,0.0,0.0,0.0,0.0,0.0,0.0,0.0,0.0,0.0,0.0,0.0,0.0,0.0,0.0,0.0,0.0,0.0,0.0,0.0,0.0,0.0,0.0,0.0,0.0,0.0,0.0,0.0,-1.3295,-1.3409,-1.4034,-1.5226,-1.5298,-1.5298,-1.5298,-1.4772,-1.3862,0.0,0.0,0.0,0.0,0.0,0.0,0.0,0.0,0.0,0.0,0.0,0.0,0.0,0.0,0.0,0.0,0.0,0.0,0.0,0.0,0.0,0.0,0.0,0.0,0.0,0.0,0.0,0.0,0.0,0.0,0.0,0.0,0.0,0.0,0.0,0.0,0.0,0.0,0.0,0.0,0.0,-1.4762,-1.5052,-1.5112,-1.5338,0.0,0.0,-1.525,-1.5941,-1.5422,0.0,0.0,0.0,0.0,0.0,0.0,0.0,0.0,0.0,0.0,0.0,0.0,0.0,0.0,0.0,0.0,0.0,0.0,0.0,0.0,0.0,0.0,0.0,0.0,0.0,0.0,0.0,0.0,0.0,0.0,0.0,0.0,0.0,0.0,0.0,0.0,0.0,0.0,0.0,0.0,0.0,0.0,0.0,0.0,0.0,0.0,0.0,0.0,0.0,0.0,0.0,0.0,0.0,0.0,0.0,-1.0849,-1.3292,-1.3394,-1.4034,-1.524,-1.5298,-1.5298,-1.5298,-1.4032,-1.3092,0.0,0.0,0.0,0.0,0.0,0.0,0.0,0.0,0.0,0.0,0.0,0.0,0.0,0.0,0.0,0.0,0.0,0.0,0.0,0.0,0.0,0.0,0.0,0.0,0.0,0.0,0.0,0.0,0.0,0.0,0.0,0.0,0.0,0.0,0.0,0.0,0.0,0.0,0.0,0.0,0.0,0.0,-1.5823,-1.5804,0.0,0.0,0.0,-1.5354,-1.6143,0.0,0.0,0.0,0.0,0.0,0.0,0.0,0.0,0.0,0.0,0.0,0.0,0.0,0.0,0.0,0.0,0.0,0.0,0.0,0.0,0.0,0.0,0.0,0.0,0.0,0.0,0.0,0.0,0.0,0.0,0.0,0.0,0.0,0.0,0.0,0.0,0.0,0.0,0.0,0.0,0.0,0.0,0.0,0.0,0.0,0.0,0.0,0.0,0.0,0.0,0.0,0.0,0.0,0.0,0.0,0.0,0.0,-1.3321,-1.3385,-1.4008,-1.5255,-1.5298,-1.5298,-1.5269,-1.3586,0.0,0.0,0.0,0.0,0.0,0.0,0.0,0.0,0.0,0.0,0.0,0.0,0.0,0.0,0.0,0.0,0.0,0.0,0.0,0.0,0.0,0.0,0.0,0.0,0.0,0.0,0.0,-0.9088,0.0,0.0,0.0,0.0,0.0,0.0,0.0,0.0,0.0,0.0,0.0,0.0,0.0,0.0,-1.6533,-1.6647,-1.6638,-1.669,0.0,0.0,-1.567,-1.6483,-1.5764,-1.5075,0.0,0.0,0.0,0.0,0.0,0.0,0.0,0.0,0.0,0.0,0.0,0.0,0.0,0.0,0.0,0.0,0.0,0.0,0.0,0.0,0.0,0.0,0.0,0.0,0.0,0.0,0.0,0.0,0.0,0.0,0.0,0.0,0.0,0.0,0.0,0.0,0.0,0.0,0.0,0.0,0.0,0.0,0.0,0.0,0.0,0.0,0.0,0.0,0.0,0.0,0.0,0.0,0.0,0.0,-1.0743,-1.3292,-1.3396,-1.4012,-1.5225,-1.5298,-1.5298,-1.5284,-1.4005,-1.2814,0.0,0.0,0.0,0.0,0.0,0.0,0.0,0.0,0.0,0.0,0.0,0.0,0.0,0.0,0.0,0.0,0.0,0.0,0.0,0.0,0.0,0.0,0.0,0.0,0.0,0.0,0.0,0.0,0.0,0.0,0.0,0.0,0.0,0.0,0.0,0.0,0.0,0.0,0.0,0.0,0.0,-1.7349,-1.7414,-1.7423,-1.7709,0.0,-1.7214,-1.6451,-1.7366,-1.6151,-1.5052,-1.492,0.0,0.0,0.0,0.0,0.0,0.0,0.0,0.0,0.0,0.0,0.0,0.0,0.0,0.0,0.0,0.0,0.0,0.0,0.0,0.0,0.0,0.0,0.0,0.0,0.0,0.0,0.0,0.0,0.0,0.0,0.0,0.0,0.0,0.0,0.0,0.0,0.0,0.0,0.0,0.0,0.0,0.0,0.0,0.0,0.0,0.0,0.0,0.0,0.0,0.0,0.0,0.0,0.0,-1.1147,-1.3086,-1.3694,-1.4328,-1.4951,-1.4994,-1.4994,-1.4994,-1.3953,-1.2783,0.0,0.0,0.0,0.0,0.0,0.0,0.0,0.0,0.0,0.0,0.0,0.0,0.0,0.0,0.0,0.0,0.0,0.0,0.0,0.0,0.0,0.0,0.0,0.0,0.0,0.0,0.0,0.0,-0.9648,-1.0203,-1.0871,0.0,0.0,0.0,0.0,0.0,0.0,0.0,0.0,0.0,0.0,-1.827,-1.8251,-1.8202,0.0,0.0,-1.7747,-1.717,-1.7502,-1.6675,-1.5785,-1.5128,-1.5442,0.0,0.0,0.0,0.0,0.0,0.0,0.0,0.0,0.0,0.0,0.0,0.0,0.0,0.0,0.0,0.0,0.0,0.0,0.0,0.0,0.0,0.0,0.0,0.0,0.0,0.0,0.0,0.0,0.0,0.0,0.0,0.0,0.0,0.0,0.0,0.0,0.0,0.0,0.0,0.0,0.0,0.0,0.0,0.0,0.0,0.0,0.0,0.0,0.0,0.0,0.0,0.0,-1.1466,-1.2912,-1.3785,-1.4454,-1.4949,-1.4963,-1.5025,-1.5088,-1.4224,-1.314,0.0,0.0,0.0,0.0,0.0,0.0,0.0,0.0,0.0,0.0,0.0,0.0,0.0,0.0,0.0,0.0,0.0,0.0,0.0,0.0,0.0,0.0,0.0,0.0,0.0,0.0,0.0,0.0,-1.0112,-1.088,-1.1866,0.0,0.0,0.0,0.0,0.0,0.0,0.0,0.0,0.0,0.0,-1.9134,-1.9084,-1.9041,-1.902,-1.8979,-1.8383,-1.7915,-1.7886,-1.756,-1.6977,-1.6,0.0,0.0,0.0,0.0,0.0,0.0,0.0,0.0,0.0,0.0,0.0,0.0,0.0,0.0,0.0,0.0,0.0,0.0,0.0,0.0,0.0,0.0,0.0,0.0,0.0,0.0,0.0,-0.9814,0.0,0.0,-0.8955,0.0,0.0,0.0,0.0,0.0,0.0,0.0,0.0,0.0,0.0,0.0,0.0,0.0,0.0,0.0,0.0,0.0,0.0,0.0,0.0,0.0,0.0,-1.1562,-1.287,-1.3517,-1.43,-1.5253,-1.5283,-1.5433,-1.5697,-1.5,-1.402,-1.287,0.0,0.0,0.0,0.0,0.0,0.0,0.0,0.0,0.0,0.0,0.0,0.0,0.0,0.0,0.0,0.0,0.0,0.0,0.0,0.0,0.0,0.0,0.0,0.0,0.0,0.0,-1.036,-1.053,-1.1028,0.0,0.0,0.0,0.0,0.0,0.0,0.0,0.0,0.0,-1.8783,-1.9487,-1.9962,-1.9936,-1.9963,-1.9926,-1.9869,-1.9195,-1.8715,-1.8763,-1.8838,-1.8647,0.0,0.0,0.0,0.0,0.0,0.0,0.0,0.0,0.0,0.0,0.0,0.0,0.0,0.0,0.0,0.0,0.0,0.0,0.0,0.0,0.0,0.0,0.0,0.0,0.0,0.0,0.0,-1.2156,-1.1574,0.0,0.0,0.0,0.0,0.0,0.0,0.0,0.0,0.0,0.0,0.0,-1.2238,-1.2618,0.0,0.0,0.0,0.0,0.0,0.0,0.0,0.0,0.0,0.0,0.0,0.0,-1.2062,-1.2664,-1.3915,-1.4558,-1.4637,-1.4637,-1.47,-1.4811,-1.4544,-1.3771,-1.2464,0.0,0.0,0.0,0.0,0.0,0.0,0.0,0.0,0.0,0.0,0.0,0.0,0.0,0.0,0.0,0.0,0.0,0.0,0.0,0.0,0.0,0.0,0.0,0.0,0.0,-1.2419,0.0,0.0,0.0,0.0,0.0,0.0,0.0,0.0,0.0,0.0,-1.8148,-1.8852,-1.9394,-1.973,-1.9911,-1.988,-2.032,-2.0471,0.0,0.0,0.0,0.0,0.0,0.0,0.0,0.0,0.0,0.0,0.0,0.0,0.0,0.0,-2.0295,-1.7988,-1.7526,-1.7527,-1.7551,0.0,0.0,0.0,0.0,0.0,0.0,0.0,0.0,0.0,0.0,0.0,0.0,0.0,0.0,-1.331,-1.3063,-1.2496,0.0,0.0,0.0,0.0,0.0,0.0,0.0,0.0,-1.407,-1.4105,-1.3767,-1.4164,-1.4042,0.0,-1.3459,-1.2821,0.0,0.0,0.0,0.0,0.0,0.0,0.0,0.0,-1.2744,-1.3035,-1.4218,-1.4859,-1.4794,-1.4805,-1.4828,-1.4951,-1.4745,-1.4055,-1.2941,-1.2015,-1.1011,0.0,0.0,0.0,0.0,0.0,0.0,0.0,0.0,0.0,0.0,0.0,0.0,0.0,0.0,0.0,0.0,0.0,0.0,0.0,0.0,0.0,0.0,0.0,-1.3216,0.0,0.0,0.0,0.0,0.0,0.0,0.0,0.0,0.0,-1.8756,-1.9211,-1.9824,-2.0615,-2.0262,-2.0123,-2.0596,0.0,0.0,0.0,0.0,0.0,0.0,0.0,-2.0661,-2.0938,-2.1282,-2.1449,-2.122,-2.1705,-2.2245,-2.2594,0.0,0.0,-1.9838,-1.9367,-1.9339,-1.9411,-1.9868,-2.028,-2.0252,-2.0727,-2.1128,0.0,0.0,0.0,0.0,0.0,0.0,0.0,0.0,-1.388,-1.392,0.0,-1.3771,0.0,0.0,0.0,0.0,-1.35,-1.4083,0.0,0.0,-1.5793,-1.6105,-1.6078,-1.6064,-1.5779,-1.5271,-1.5182,-1.4599,-1.3473,-1.2333,0.0,0.0,0.0,0.0,0.0,0.0,-1.3585,-1.3906,-1.449,-1.5084,-1.5632,-1.5669,-1.5839,-1.6123,-1.5538,-1.4904,-1.4221,-1.299,-1.1928,-1.1174,-0.9912,0.0,0.0,0.0,0.0,0.0,0.0,0.0,0.0,0.0,0.0,0.0,0.0,0.0,0.0,0.0,0.0,0.0,0.0,0.0,0.0,-1.2754,0.0,0.0,0.0,0.0,0.0,0.0,0.0,0.0,0.0,-2.0564,-1.9957,-2.059,-2.1444,-2.2269,0.0,0.0,0.0,0.0,-2.0577,-2.2041,-2.1585,-2.1375,-2.2286,-2.3157,-2.3471,-2.2802,0.0,0.0,-2.3039,-2.2933,-2.2975,-2.2904,-2.303,-2.2956,-2.2885,-2.2565,-2.2499,-2.2628,-2.2665,-2.2819,-2.2838,-2.2829,-2.2989,-1.8167,0.0,0.0,0.0,0.0,-1.7109,-1.7366,-1.8085,-1.7054,-1.6457,-1.6186,-1.5603,0.0,0.0,0.0,0.0,0.0,0.0,-1.5698,-1.5847,-1.6037,-1.6118,-1.6118,-1.6118,-1.6023,-1.5833,-1.586,-1.567,-1.531,-1.4992,-1.3947,-1.2264,0.0,0.0,0.0,0.0,-1.3813,-1.3939,-1.4718,-1.5228,-1.5401,-1.5418,-1.5551,-1.5839,-1.5643,-1.5361,-1.4919,-1.4544,-1.3575,-1.1959,-1.1512,0.0,0.0,0.0,0.0,0.0,0.0,0.0,0.0,0.0,0.0,0.0,0.0,0.0,0.0,0.0,0.0,0.0,0.0,0.0,-1.3071,-1.3382,-1.4097,0.0,0.0,0.0,0.0,0.0,0.0,0.0,0.0,0.0,-2.2328,-2.2147,-2.2028,0.0,0.0,-2.18,-2.2219,-2.2388,-2.2445,-2.2304,-2.2122,0.0,-2.3196,-2.2631,-2.2671,-2.4254,-2.4876,-2.5039,-2.4772,-2.4722,-2.4749,-2.4714,-2.4741,-2.4749,-2.4675,-2.3647,-2.2906,-2.289,-2.3354,-2.3806,-2.3891,-2.4304,-2.4757,-1.9944,-1.9252,-1.8791,-1.8805,-1.9146,-1.8764,-1.9022,-1.9632,-1.8697,-1.8167,-1.8045,-1.7434,-1.6756,-1.61,-1.582,0.0,0.0,0.0,-1.7299,-1.7543,-1.7271,-1.7176,-1.7149,-1.6932,-1.6688,-1.6471,-1.6471,-1.6335,-1.6118,-1.6118,-1.5386,-1.397,0.0,0.0,-1.4184,-1.4897,-1.5182,-1.5023,-1.5562,-1.5811,-1.5653,-1.5653,-1.5725,-1.5911,-1.5911,-1.5814,-1.5595,-1.5345,-1.4621,-1.3458,-1.2611,-1.1664,0.0,0.0,0.0,0.0,0.0,0.0,0.0,0.0,0.0,0.0,0.0,-1.0233,-0.981,0.0,0.0,0.0,-1.2571,-1.3459,-1.4416,-1.5057,0.0,0.0,0.0,0.0,0.0,0.0,0.0,-2.0919,-2.2056,-2.2933,-2.3344,-2.3289,-2.3205,-2.3262,-2.2698,-2.253,-2.3168,0.0,-2.3074,-2.3224,-2.2736,-2.2678,-2.3569,-2.271,-2.2575,-2.4522,-2.5185,-2.5451,-2.5503,-2.5511,-2.5511,-2.5511,-2.5511,-2.5511,-2.5511,-2.4621,-2.3944,-2.3925,-2.4331,-2.4718,-2.4764,-2.5163,-2.553,-2.141,-2.1328,-2.0283,-1.9836,-1.9836,-1.9836,-1.9836,-1.9781,-1.9171,-1.9225,-1.97,-1.916,-1.8888,-1.8847,-1.8262,0.0,-1.8874,-1.8888,-1.9173,-1.9673,-1.9103,-1.8888,-1.8847,-1.8276,-1.7665,-1.7136,-1.7082,-1.6797,-1.6295,-1.6267,-1.6254,-1.6254,-1.6683,-1.6838,-1.6739,-1.7098,-1.7109,-1.6787,-1.6801,-1.6646,-1.6286,-1.621,-1.6194,-1.6194,-1.6194,-1.6194,-1.6179,-1.5595,-1.5263,-1.5129,-1.3389,-1.2411,-1.2434,0.0,0.0,0.0,0.0,0.0,0.0,0.0,0.0,0.0,0.0,0.0,0.0,0.0,0.0,0.0,-1.3715,0.0,-1.6165,-1.7247,0.0,0.0,0.0,-1.9558,-2.0481,-2.1188,-2.1642,-2.179,0.0,0.0,-2.3442,-2.4013,-2.4528,-2.466,-2.3416,-2.3018,-2.4501,-2.3449,-2.3018,-2.4426,-2.3389,-2.279,-2.3769,-2.3354,-2.3237,-2.424,-2.4848,-2.534,-2.5459,-2.5503,-2.5511,-2.5511,-2.5511,-2.5511,-2.5511,-2.5434,-2.5511,-2.5414,-2.5453,-2.5492,-2.5453,-2.5492,-2.5511,-2.141,-2.1348,-2.1125,-2.1003,-2.1003,-2.1016,-2.1003,-2.0962,-2.0378,-2.0143,-2.0297,-1.9727,-1.9483,-1.9469,-1.9334,-1.9347,-1.9469,-1.9483,-1.9564,-1.9686,-1.9551,-1.9469,-1.9456,-1.8888,-1.8521,-1.8357,-1.7936,-1.7597,-1.7461,-1.7461,-1.7461,-1.7501,-1.8167,-1.7906,-1.6782,-1.706,-1.7323,-1.7542,-1.773,-1.7547,-1.6978,-1.6471,-1.6194,-1.6194,-1.6194,-1.6194,-1.6194,-1.6041,-1.5713,-1.5228,-1.4402,-1.3526,-1.253,-1.1496,0.0,0.0,0.0,0.0,0.0,0.0,0.0,0.0,0.0,-1.2957,-1.1231,0.0,-1.4093,0.0,-1.5338,-1.6272,-1.7047,-1.7486,0.0,0.0,-2.0282,-2.0789,-2.2727,-2.2654,-2.2714,-2.3434,-2.3856,-2.4098,-2.4062,-2.4228,-2.4357,-2.4393,-2.4244,-2.4294,-2.4651,-2.4426,-2.4257,-2.452,-2.3879,-2.3617,-2.4372,-2.4656,-2.4638,-2.4867,-2.5187,-2.5423,-2.537,-2.5423,-2.5511,-2.5511,-2.5511,-2.5511,-2.5511,-2.5511,-2.5511,-2.5511,-2.5511,-2.5511,-2.5511,-2.5511,-2.553,-2.1602,-2.141,-2.141,-2.141,-2.141,-2.141,-2.141,-2.1334,-2.1084,-2.0887,-2.0874,-2.0609,-2.046,-2.046,-2.046,-2.0473,-2.046,-2.0473,-2.0473,-2.0446,-2.0202,-2.008,-2.0039,-1.9469,-1.9171,-1.9214,-1.8845,-1.8547,-1.833,-1.8317,-1.8262,-1.8175,-1.8592,-1.859,-1.8056,-1.8397,-1.8452,-1.8197,-1.8202,-1.7884,-1.7224,-1.684,-1.6502,-1.621,-1.6194,-1.6194,-1.6194,-1.6194,-1.589,-1.5232,-1.468,-1.4117,-1.3586,-1.2536,-1.1911,0.0,0.0,0.0,0.0,0.0,0.0,0.0,0.0,0.0,0.0,0.0,-1.5745,-1.6043,-1.7359,-1.843,-1.9054,-1.9578,-2.0587,-2.219,-2.2072,-2.2365,-2.365,-2.3433,-2.3402,-2.3883,-2.3976,-2.4036,-2.4172,-2.421,-2.4247,-2.4284,-2.4409,-2.4528,-2.4594,-2.461,-2.4645,-2.4654,-2.4034,-2.3566,-2.3847,-2.4289,-2.4626,-2.4624,-2.5053,-2.5388,-2.5322,-2.5406,-2.5511,-2.5511,-2.5511,-2.5511,-2.5511,-2.5511,-2.5511,-2.5511,-2.5511,-2.5511,-2.5511,-2.5511,-2.553,-2.203,-2.1602,-2.1602,-2.1602,-2.1602,-2.152,-2.1471,-2.141,-2.141,-2.141,-2.141,-2.141,-2.141,-2.141,-2.141,-2.141,-2.141,-2.141,-2.141,-2.1396,-2.0847,-2.0603,-2.0576,-2.0066,-1.9809,-1.9809,-1.9727,-1.9415,-1.8929,-1.8847,-1.8728,-1.8523,-1.8542,-1.8884,-1.953,-2.0045,-1.984,-1.894,-1.8522,-1.8053,-1.7469,-1.7377,-1.7009,-1.6363,-1.6317,-1.6271,-1.6194,-1.6194,-1.5914,-1.534,-1.4736,-1.4615,-1.4969,-1.373,-1.341,0.0,-1.3764,0.0,0.0,0.0,0.0,0.0,0.0,0.0,0.0,-1.6804,-1.7613,-1.786,-1.9435,-2.0698,-2.1319,-2.2177,-2.2998,-2.3705,-2.3795,-2.3795,-2.3795,-2.3795,-2.3795,-2.3795,-2.3795,-2.3858,-2.4016,-2.4074,-2.4095,-2.421,-2.4247,-2.4321,-2.4462,-2.4495,-2.4561,-2.4657,-2.4107,-2.3597,-2.3234,-2.3572,-2.4049,-2.4151,-2.4753,-2.5274,-2.5274,-2.5388,-2.5495,-2.5484,-2.5511,-2.5511,-2.5511,-2.5511,-2.5511,-2.5511,-2.5511,-2.5511,-2.5511,-2.5511,-2.5511,-2.2709,-2.2618,-2.2618,-2.2603,-2.2572,-2.2217,-2.1793,-2.141,-2.141,-2.141,-2.141,-2.141,-2.141,-2.141,-2.141,-2.141,-2.141,-2.141,-2.141,-2.141,-2.1266,-2.126,-2.1172,-2.0603,-2.0378,-2.0305,-1.9917,-1.9632,-1.9524,-1.9051,-1.8794,-1.8741,-1.8885,-1.8898,-1.8808,0.0,0.0,0.0,-1.9408,-1.904,-1.8901,-1.8346,-1.77,-1.7039,-1.7009,0.0,-1.624,-1.6194,-1.6145,-1.6018,-1.5738,0.0,0.0,0.0,0.0,0.0,0.0,0.0,0.0,0.0,0.0,0.0,-1.7726,-1.7608,-1.6648,-1.8693,-2.0164,-2.041,-2.0948,-2.1585,-2.2343,-2.258,-2.2998,-2.3705,-2.3795,-2.3795,-2.3795,-2.3795,-2.3795,-2.3795,-2.3795,-2.3834,-2.3837,-2.3855,-2.3876,-2.3899,-2.4036,-2.4172,-2.4321,-2.4426,-2.4564,-2.4657,-2.452,-2.4422,-2.4298,-2.4523,-2.4658,-2.4739,-2.4927,-2.5192,-2.5233,-2.5293,-2.5369,-2.5487,-2.5511,-2.5503,-2.5511,-2.5511,-2.5511,-2.5511,-2.5511,-2.5511,-2.5511,-2.5511,-2.5511,-2.3113,-2.2889,-2.2889,-2.2754,0.0,-2.231,-2.1888,-2.141,-2.141,-2.141,-2.141,-2.141,-2.141,-2.141,-2.141,-2.141,-2.141,-2.141,-2.141,-2.141,-2.141,-2.141,-2.141,-2.1063,-2.0914,-2.0928,-2.069,-2.0392,-2.0107,-1.9795,-1.9464,-1.91,-1.9358,-1.9406,-1.9124,-1.9889,-2.0304,-2.0304,-1.9965,-1.9641,-1.9302,-1.8931,-1.8423,-1.7731,-1.77,0.0,0.0,0.0,0.0,0.0,0.0,0.0,0.0,0.0,0.0,-1.6623,-1.6576,-1.6723,-1.718,-1.7591,-1.8076,-1.8819,-1.9587,-1.9602,-1.8603,-2.0256,-2.1441,-2.1697,-2.2262,-2.2799,-2.318,-2.3234,-2.3397,-2.3759,-2.3795,-2.3795,-2.3795,-2.3795,-2.3795,-2.3795,-2.3795,-2.3795,-2.3795,-2.3795,-2.3795,-2.3795,-2.3876,-2.4016,-2.4172,-2.4374,-2.4545,-2.4692,-2.4738,-2.4734,-2.4768,-2.4847,-2.4942,-2.4888,-2.5,-2.5107,-2.5103,-2.5201,-2.5293,-2.5369,-2.5406,-2.5395,-2.5503,-2.5511,-2.5511,-2.5511,-2.5511,-2.5511,-2.5511,-2.5511,-2.5511,-2.3246,-2.2889,-2.2889,-2.2678,-2.2324,-2.2217,-2.1902,-2.141,-2.141,0.0,0.0,-2.141,-2.141,-2.141,-2.141,-2.141,-2.141,-2.141,-2.141,-2.141,-2.141,-2.141,-2.141,-2.141,-2.141,-2.141,-2.141,-2.1165,-2.0644,-2.0549,-2.0188,-1.967,-1.9996,-2.0103,-2.002,-2.0196,-2.0304,-2.0304,-2.0304,-2.0042,-1.9502,-1.9472,-1.9148,-1.8407,-1.8391,-1.81,-1.7482,-1.7392,-1.6998,-1.6196,-1.6193,-1.6418,-1.6825,-1.6963,-1.7652,-1.8937,-1.9096,-1.9367,-1.9951,-2.012,-2.0272,-2.039,-2.1008,-2.1241,-2.0891,-2.1639,-2.2223,-2.2539,-2.3328,-2.3795,-2.3795,-2.3795,-2.3795,-2.3795,-2.3795,-2.3795,-2.3795,-2.3795,-2.3795,-2.3795,-2.3795,-2.3795,-2.3795,-2.3795,-2.3795,-2.3816,-2.3858,-2.3937,-2.4114,-2.4375,-2.4545,-2.4657,-2.4768,-2.4813,-2.4827,-2.4893,-2.4934,-2.4947,-2.5038,-2.508,-2.5068,-2.5103,-2.5212,-2.5322,-2.5313,-2.5351,-2.5468,-2.5511,-2.5511,-2.5511,-2.5511,-2.5511,-2.5511,-2.5511,-2.5511,-2.2979,-2.2889,-2.2889,-2.2844,-2.2754,-2.2356,-2.1902,-2.141,-2.141,-2.141,-2.141,-2.141,-2.141,-2.141,-2.141,-2.141,-2.141,-2.141,-2.141,-2.141,-2.141,-2.141,-2.141,-2.141,-2.141,-2.141,-2.141,-2.1369,-2.126,-2.0738,-2.0433,-2.0411,-2.067,-2.0935,-2.1016,-2.0559,-2.0304,-2.0304,-2.0304,-2.0258,-2.0165,-2.0165,-1.9842,-1.9194,-1.9163,-1.8936,-1.8491,-1.8207,-1.8144,-1.8263,-1.8475,-1.8642,-1.8724,-1.9168,-1.9605,-1.9816,-1.9849,-1.9883,-2.0018,-2.0653,-2.1312,-2.1921,-2.209,-2.2293,-2.2695,-2.2838,-2.3124,-2.3527,-2.3699,-2.3795,-2.3795,-2.3795,-2.3795,-2.3795,-2.3795,-2.3795,-2.3795,-2.3795,-2.3795,-2.3795,-2.3795,-2.3795,-2.3795,-2.3795,-2.3795,-2.3816,-2.3919,-2.4116,-2.4284,-2.4409,-2.4545,-2.4676,-2.4768,-2.4798,-2.4813,-2.4959,-2.5038,-2.507,-2.5082,-2.5144,-2.5145,-2.508,-2.5134,-2.5341,-2.5313,-2.5332,-2.5459,-2.5511,-2.5503,-2.5503,-2.5511,-2.5511,-2.5511,-2.5511,-2.5511,-2.3421,-2.3595,-2.3113,-2.2889,-2.2844,-2.2077,-2.1602,-2.141,-2.141,-2.141,-2.141,-2.141,-2.141,-2.141,-2.141,-2.141,-2.141,-2.141,-2.141,-2.141,-2.141,-2.141,-2.141,-2.141,-2.141,-2.141,-2.141,-2.141,-2.1382,-2.1138,-2.0806,-2.056,-2.0841,-2.1291,-2.1768,-2.1175,-2.0868,-2.0817,-2.0497,-2.0304,-2.0304,-2.0304,-2.0165,-1.9857,-2.0181,-2.004,-1.9324,-1.9325,-1.9296,-1.9183,-1.9151,-1.9246,-1.9578,-1.984,-2.0187,-2.0619,-2.0653,-2.0839,-2.1218,-2.16,-2.1938,-2.2248,-2.2327,-2.246,-2.2868,-2.2884,-2.2985,-2.3188,-2.333,-2.3491,-2.362,-2.3642,-2.3667,-2.3795,-2.3795,-2.3795,-2.3795,-2.3795,-2.3795,-2.3795,-2.3795,-2.3795,-2.3795,-2.3795,-2.3795,-2.3816,-2.3919,-2.4077,-2.4266,-2.4284,-2.432,-2.4479,-2.4642,-2.4716,-2.4716,-2.4972,-2.5107,-2.5095,-2.5139,-2.5144,-2.5149,-2.5025,-2.5031,-2.5138,-2.5126,-2.5171,-2.5341,-2.5397,-2.5415,-2.5503,-2.5511,-2.5511,-2.5511,-2.5511,-2.5511,-2.3718,-2.3985,-2.3264,-2.2955,-2.2908,-2.2173,-2.1762,-2.1627,-2.1627,-2.1545,-2.1423,-2.141,-2.141,-2.141,-2.141,-2.141,-2.141,-2.141,-2.141,-2.141,-2.141,-2.141,-2.141,-2.141,-2.141,-2.141,-2.141,-2.141,-2.141,-2.141,-2.1288,-2.1075,-2.1126,-2.164,-2.2488,-2.1854,-2.1461,-2.1268,-2.0798,-2.0474,-2.032,-2.0304,-2.0304,-2.0335,-2.0868,-2.0858,-2.0226,-2.0363,-2.0401,-2.0119,-1.9836,-1.992,-2.0377,-2.0482,-2.0805,-2.1363,-2.1431,-2.1684,-2.2243,-2.2327,-2.2327,-2.2327,-2.2327,-2.2377,-2.2596,-2.2605,-2.2642,-2.279,-2.2993,-2.3188,-2.3371,-2.3394,-2.3508,-2.3689,-2.3732,-2.3753,-2.3795,-2.3795,-2.3795,-2.3795,-2.3795,-2.3795,-2.3795,-2.3795,-2.3834,-2.3855,-2.3896,-2.3998,-2.4135,-2.4116,-2.4154,-2.4248,-2.4441,-2.4654,-2.4654,-2.4907,-2.5088,-2.5114,-2.5175,-2.5156,-2.512,-2.5006,-2.4974,-2.5019,-2.4968,-2.5019,-2.5212,-2.5253,-2.5303,-2.536,-2.5369,-2.5387,-2.5415,-2.544,-2.5484,-2.3296,-2.3272,-2.3218,-2.3169,-2.3166,-2.3038,-2.2712,-2.2251,-2.2224,-2.1912,-2.1505,-2.141,-2.145,-2.141,-2.1423,-2.145,-2.1437,-2.1423,-2.1423,-2.141,-2.141,-2.141,-2.141,-2.141,-2.141,-2.141,-2.141,-2.141,-2.141,-2.141,-2.1813,-2.2505,-2.212,-2.2273,-2.3041,-2.2547,-2.1926,-2.1318,-2.1228,-2.0921,-2.035,-2.0304,-2.0304,-2.0304,-2.0673,-2.0957,-2.1084,-2.1197,-2.1305,-2.1569,-2.152,-2.1566,-2.1624,-2.1916,-2.2124,-2.2192,-2.2192,-2.2243,-2.231,-2.2327,-2.2327,-2.2327,-2.2327,-2.231,-2.2338,-2.2338,-2.2569,-2.291,-2.306,-2.3084,-2.3133,-2.3116,-2.3253,-2.3526,-2.3549,-2.3598,-2.3753,-2.3795,-2.3795,-2.3795,-2.3795,-2.3795,-2.3795,-2.3795,-2.3837,-2.3937,-2.3976,-2.4016,-2.4095,-2.4095,-2.4075,-2.4057,-2.4266,-2.4559,-2.47,-2.4847,-2.5006,-2.5125,-2.5199,-2.5199,-2.5144,-2.5044,-2.4942,-2.4981,-2.4962,-2.4968,-2.5037,-2.5107,-2.5126,-2.5182,-2.5192,-2.5171,-2.5233,-2.5293,-2.5357,-2.3784,-2.4039,-2.3437,-2.3189,-2.3189,-2.3189,-2.3092,-2.281,-2.2861,-2.2712,-2.2471,-2.2444,-2.2291,-2.1952,-2.1939,-2.1939,-2.1939,-2.1939,-2.1749,-2.1437,-2.141,-2.141,-2.141,-2.141,-2.141,-2.141,-2.141,-2.141,-2.141,-2.141,-2.1921,-2.2785,-2.2614,-2.295,-2.3788,-2.3247,-2.2763,-2.244,-2.1701,-2.1183,-2.089,-2.0505,-2.0304,-2.035,-2.0814,-2.107,-2.1037,-2.1191,-2.1454,-2.1746,-2.1617,-2.1691,-2.2094,-2.2225,-2.2327,-2.2327,-2.2327,-2.2327,-2.2327,-2.2327,-2.2327,-2.2327,-2.2327,-2.2327,-2.2327,-2.2327,-2.2405,-2.2579,-2.2615,-2.2694,-2.285,-2.2833,-2.3035,-2.3412,-2.3504,-2.3576,-2.3774,-2.3795,-2.3795,-2.3795,-2.3795,-2.3795,-2.3795,-2.3837,-2.3896,-2.3996,-2.4016,-2.4094,-2.4151,-2.4113,-2.4094,-2.4075,-2.4191,-2.4303,-2.4501,-2.4753,-2.4907,-2.5,-2.5125,-2.521,-2.5168,-2.512,-2.5006,-2.4915,-2.4847,-2.4814,-2.4836,-2.4949,-2.5006,-2.5056,-2.5138,-2.516,-2.5149,-2.5234,-2.5293,-2.4413,-2.4634,-2.3969,-2.3662,-2.3716,-2.3676,-2.3635,-2.3432,-2.3419,-2.3337,-2.3189,-2.3189,-2.3092,-2.2807,-2.2644,-2.2481,-2.2319,-2.2305,-2.1993,-2.1464,-2.141,-2.141,-2.141,-2.141,-2.141,-2.141,-2.141,-2.141,-2.141,-2.141,-2.1827,-2.2572,-2.2709,-2.3157,-2.3941,-2.3611,-2.3366,-2.3197,-2.2325,-2.167,-2.1285,-2.0828,-2.0489,-2.0381,-2.0887,-2.1042,-2.0842,-2.1133,-2.1466,-2.1763,-2.1556,-2.1661,-2.2123,-2.2237,-2.2327,-2.2327,-2.2327,-2.2327,-2.2327,-2.2327,-2.2327,-2.2327,-2.2327,-2.2327,-2.2327,-2.2327,-2.2327,-2.231,-2.2327,-2.2405,-2.2542,-2.2579,-2.2799,-2.3206,-2.3324,-2.3486,-2.3667,-2.3753,-2.3816,-2.3816,-2.3837,-2.3816,-2.3855,-2.3876,-2.3935,-2.4016,-2.4074,-2.4132,-2.417,-2.417,-2.4133,-2.4171,-2.4133,-2.4188,-2.4317,-2.4552,-2.476,-2.4861,-2.4966,-2.5038,-2.5032,-2.4985,-2.4898,-2.47,-2.467,-2.467,-2.4682,-2.4756,-2.4847,-2.4949,-2.5024,-2.5072,-2.5037,-2.5149,-2.5305,-2.498,-2.4966,-2.4924,-2.4869,-2.491,-2.4869,-2.4584,-2.4082,-2.4028,-2.373,-2.331,-2.3256,-2.35,-2.3947,-2.3419,-2.2837,-2.24,-2.2373,-2.2061,-2.1559,-2.1477,-2.1423,-2.141,-2.141,-2.1423,-2.1423,-2.141,-2.141,-2.141,-2.141,-2.1664,-2.2231,-2.2324,-2.2728,-2.3553,-2.3643,-2.3498,-2.336,-2.3167,-2.2578,-2.1501,-2.1285,-2.0967,-2.0462,-2.0642,-2.0807,-2.0843,-2.1135,-2.1433,-2.1768,-2.1738,-2.1751,-2.1857,-2.2106,-2.2282,-2.2327,-2.2327,-2.2327,-2.2327,-2.2327,-2.2327,-2.2327,-2.2327,-2.2327,-2.2327,-2.2327,-2.2327,-2.2327,-2.2327,-2.231,-2.2406,-2.24,-2.2487,-2.2747,-2.2985,-2.3253,-2.3463,-2.375,-2.3876,-2.393,-2.3985,-2.3967,-2.3933,-2.3896,-2.4012,-2.4109,-2.4149,-2.4205,-2.4337,-2.4281,-2.4245,-2.4171,-2.4153,-2.4226,-2.4357,-2.4466,-2.4561,-2.4657,-2.4749,-2.4783,-2.4707,-2.4626,-2.4578,-2.4512,-2.4478,-2.4478,-2.4495,-2.4561,-2.4642,-2.4731,-2.4818,-2.4861,-2.4929,-2.4975,-2.5133,-2.5005,-2.5005,-2.5005,-2.5005,-2.5005,-2.5005,-2.4883,-2.4693,-2.4679,-2.4571,-2.4394,-2.4367,-2.4489,-2.4679,-2.4462,-2.4042,-2.3472,-2.304,-2.2728,-2.2549,-2.2169,-2.1979,-2.1979,-2.1979,-2.1762,-2.145,-2.141,-2.141,-2.141,-2.141,-2.1664,-2.217,-2.2495,-2.2963,-2.3554,-2.3897,-2.4002,-2.3917,-2.3538,-2.3055,-2.2563,-2.2147,-2.1609,-2.0967,-2.0609,-2.0475,-2.0475,-2.0579,-2.0809,-2.1149,-2.1151,-2.1278,-2.1469,-2.1817,-2.2094,-2.2282,-2.2327,-2.2327,-2.2327,-2.2327,-2.2327,-2.2327,-2.2327,-2.2327,-2.2327,-2.2327,-2.2327,-2.2327,-2.2327,-2.2479,-2.2801,-2.2598,-2.2422,-2.2685,-2.2952,-2.3133,-2.3283,-2.3642,-2.4037,-2.4346,-2.4534,-2.4496,-2.4135,-2.3955,-2.4196,-2.4752,-2.4902,-2.4922,-2.4961,-2.4961,-2.4759,-2.43,-2.4171,-2.4208,-2.4264,-2.4358,-2.4441,-2.451,-2.4591,-2.4716,-2.4716,-2.4626,-2.4578,-2.4459,-2.4392,-2.4338,-2.4392,-2.4512,-2.4578,-2.4731,-2.4804,-2.4837,-2.4856,-2.4929,-2.5029,-2.5005,-2.5005,-2.5005,-2.5005,-2.5005,-2.5005,-2.5005,-2.5005,-2.5005,-2.5005,-2.5005,-2.5005,-2.5005,-2.5005,-2.5005,-2.4801,-2.4367,-2.3797,-2.3365,-2.3162,-2.2742,-2.2617,-2.2603,-2.2603,-2.2414,-2.197,-2.1789,-2.1613,-2.1437,-2.141,-2.1602,-2.1949,-2.2449,-2.2902,-2.3393,-2.3842,-2.4135,-2.4168,-2.384,-2.3533,-2.3286,-2.2871,-2.2286,-2.1655,-2.1147,-2.072,-2.035,-2.0304,-2.0469,-2.0749,-2.0823,-2.099,-2.1454,-2.1559,-2.1811,-2.2254,-2.2327,-2.2327,-2.2327,-2.2327,-2.2327,-2.2327,-2.2327,-2.2327,-2.2327,-2.2327,-2.231,-2.2344,-2.2581,-2.2902,-2.3236,-2.3185,-2.2988,-2.3007,-2.3172,-2.3255,-2.3203,-2.3978,-2.4707,-2.5181,-2.5455,-2.5266,-2.4847,-2.4816,-2.5134,-2.5651,-2.5748,-2.5786,-2.5786,-2.5493,-2.5236,-2.4685,-2.4355,-2.4245,-2.4226,-2.4303,-2.4321,-2.4375,-2.4409,-2.4575,-2.467,-2.4594,-2.4512,-2.4408,-2.4338,-2.4284,-2.4338,-2.4461,-2.4607,-2.4804,-2.4893,-2.4959,-2.4926,-2.4874,-2.5055,-2.5005,-2.5005,-2.5005,-2.5005,-2.5005,-2.5005,-2.5005,-2.5005,-2.5005,-2.5005,-2.5005,-2.5005,-2.5005,-2.5005,-2.5005,-2.4978,-2.4829,-2.4354,-2.3825,-2.3378,-2.3243,-2.3189,-2.3189,-2.3175,-2.3121,-2.2986,-2.2576,-2.2034,-2.1599,-2.1559,-2.1505,-2.1561,-2.2119,-2.256,-2.2922,-2.3492,-2.3909,-2.4204,-2.4225,-2.3948,-2.3394,-2.3317,-2.2978,-2.2378,-2.224,-2.1692,-2.0489,-2.0397,-2.0519,-2.0711,-2.0777,-2.1103,-2.1526,-2.1462,-2.1601,-2.2152,-2.2282,-2.2327,-2.2327,-2.2327,-2.2327,-2.231,-2.2327,-2.231,-2.2327,-2.231,-2.2372,-2.2598,-2.2994,-2.3422,-2.3684,-2.4028,-2.4066,-2.3575,-2.3693,-2.3675,-2.3681,-2.4813,-2.5997,-2.6245,-2.6392,-2.6469,-2.6392,-2.6173,-2.6252,-2.6499,-2.6612,-2.6612,-2.6557,-2.6135,-2.5605,-2.5311,-2.5016,-2.4795,-2.4502,-2.4226,-2.4226,-2.4246,-2.4247,-2.4321,-2.4374,-2.4321,-2.4284,-2.4211,-2.4173,-2.4135,-2.4284,-2.4408,-2.4594,-2.4764,-2.4903,-2.4985,-2.4934,-2.4931,-2.5177,-2.5005,-2.5005,-2.5005,-2.5005,-2.5005,-2.5005,-2.5005,-2.5005,-2.5005,-2.5005,-2.5005,-2.5005,-2.5005,-2.5005,-2.5005,-2.5005,-2.4991,-2.4801,-2.4625,-2.4381,-2.4028,-2.3852,-2.3852,-2.3852,-2.3635,-2.3216,-2.2986,-2.281,-2.2566,-2.2224,-2.202,-2.2114,-2.2447,-2.2727,-2.2937,-2.3676,-2.4177,-2.4261,-2.4302,-2.4179,-2.401,-2.3994,-2.3671,-2.3071,-2.2978,-2.2548,-2.1701,-2.1245,-2.0817,-2.0522,-2.046,-2.0646,-2.1039,-2.1245,-2.1493,-2.1915,-2.2197,-2.2327,-2.2327,-2.2327,-2.2327,-2.231,-2.2321,-2.2349,-2.2377,-2.2405,-2.2654,-2.3073,-2.3448,-2.3862,-2.4734,-2.4686,-2.4533,-2.4201,-2.4389,-2.4579,-2.4707,-2.589,-2.6579,-2.6589,-2.6966,-2.7039,-2.6651,-2.6563,-2.686,-2.7325,-2.742,-2.7438,-2.7365,-2.7126,-2.6778,-2.6319,-2.5933,-2.5364,-2.4979,-2.4612,-2.4428,-2.43,-2.4208,-2.4209,-2.4191,-2.4172,-2.4135,-2.4096,-2.4037,-2.4077,-2.4229,-2.4372,-2.4561,-2.4673,-2.4798,-2.4837,-2.4874,-2.4979,-2.5148,-2.5005,-2.5005,-2.5005,-2.5005,-2.5005,-2.5005,-2.5005,-2.5005,-2.5005,-2.5005,-2.5005,-2.5005,-2.5005,-2.5005,-2.5005,-2.5005,-2.5005,-2.5005,-2.5005,-2.4964,-2.4666,-2.4462,-2.4449,-2.4449,-2.415,-2.3662,-2.3513,-2.3392,-2.3162,-2.2848,-2.2536,-2.2401,-2.2738,-2.2836,-2.2743,-2.3537,-2.404,-2.4051,-2.4234,-2.4302,-2.4302,-2.4302,-2.4117,-2.3733,-2.3671,-2.3317,-2.2686,-2.224,-2.1609,-2.0813,-2.0458,-2.0475,-2.0794,-2.1119,-2.1462,-2.1781,-2.2077,-2.2327,-2.2327,-2.2327,-2.231,-2.2338,-2.2394,-2.2405,-2.2432,-2.2487,-2.2839,-2.3482,-2.3881,-2.4501,-2.5428,-2.5652,-2.5462,-2.5521,-2.5416,-2.5663,-2.6204,-2.6961,-2.7458,-2.751,-2.7885,-2.783,-2.7551,-2.7446,-2.7633,-2.8154,-2.8246,-2.8246,-2.8191,-2.7952,-2.7493,-2.6924,-2.6227,-2.575,-2.5421,-2.5054,-2.4705,-2.4428,-2.419,-2.4228,-2.421,-2.4171,-2.4113,-2.4114,-2.4075,-2.4113,-2.4229,-2.4338,-2.4461,-2.4578,-2.4673,-2.4746,-2.4771,-2.479,-2.4896,-2.5059,-2.5046,-2.5018,-2.5005,-2.5005,-2.5005,-2.5005,-2.5005,-2.5005,-2.5005,-2.5005,-2.5005,-2.5005,-2.5005,-2.5005,-2.5005,-2.5005,-2.5005,-2.5005,-2.5005,-2.4937,-2.491,-2.4896,-2.4896,-2.4625,-2.4232,-2.4164,-2.3906,-2.3553,-2.331,-2.297,-2.2519,-2.2839,-2.2808,-2.2562,-2.3171,-2.3656,-2.3696,-2.4078,-2.4302,-2.4302,-2.4302,-2.4287,-2.4241,-2.4225,-2.3948,-2.344,-2.3055,-2.2486,-2.1476,-2.0798,-2.0596,-2.084,-2.1135,-2.1462,-2.1705,-2.2077,-2.2282,-2.2327,-2.2327,-2.2321,-2.2394,-2.2405,-2.2432,-2.2515,-2.2559,-2.2877,-2.3624,-2.4264,-2.4974,-2.578,-2.6362,-2.6815,-2.7134,-2.6695,-2.6915,-2.7986,-2.7967,-2.8077,-2.8617,-2.8934,-2.8938,-2.8691,-2.875,-2.881,-2.8888,-2.8888,-2.8851,-2.8778,-2.8411,-2.797,-2.7346,-2.6686,-2.6025,-2.566,-2.5219,-2.4852,-2.4392,-2.419,-2.4209,-2.4228,-2.4152,-2.4094,-2.4113,-2.4114,-2.4152,-2.4171,-2.4266,-2.432,-2.4407,-2.4489,-2.4636,-2.4685,-2.467,-2.4738,-2.5656,-2.5615,-2.5195,-2.5005,-2.5005,-2.5005,-2.5005,-2.5005,-2.5005,-2.5005,-2.5005,-2.5005,-2.5005,-2.5005,-2.5005,-2.5005,-2.5005,-2.5005,-2.5005,-2.5005,-2.5005,-2.5005,-2.5005,-2.5005,-2.4924,-2.4761,-2.4706,-2.4679,-2.4517,-2.4082,-2.358,-2.2997,-2.3081,-2.2831,-2.2437,-2.3136,-2.3541,-2.3668,-2.4036,-2.4302,-2.4302,-2.4302,-2.4302,-2.4302,-2.4302,-2.4225,-2.3933,-2.3071,-2.2455,-2.2055,-2.1414,-2.1044,-2.1082,-2.1213,-2.1323,-2.1493,-2.1961,-2.2299,-2.231,-2.2321,-2.2377,-2.2422,-2.2443,-2.2569,-2.2579,-2.2605,-2.302,-2.3708,-2.4465,-2.521,-2.5905,-2.6625,-2.7206,-2.7678,-2.766,-2.7853,-2.8268,-2.8561,-2.8773,-2.8938,-2.8994,-2.8975,-2.8975,-2.8975,-2.8975,-2.8975,-2.8975,-2.8975,-2.8925,-2.8851,-2.8429,-2.7934,-2.7291,-2.6505,-2.5862,-2.5421,-2.4944,-2.4392,-2.419,-2.419,-2.4209,-2.419,-2.4113,-2.4056,-2.4133,-2.419,-2.4151,-2.4171,-2.4192,-2.4247,-2.4283,-2.4389,-2.451,-2.4561,-2.4698,-2.5887,-2.5833,-2.5263,-2.5005,-2.5005,-2.5005,-2.5005,-2.5005,-2.5005,-2.5005,-2.5005,-2.5005,-2.5005,-2.5005,-2.5005,-2.5005,-2.5005,-2.5005,-2.5005,-2.5005,-2.5005,-2.5005,-2.5005,-2.5005,-2.5005,-2.5005,-2.5005,-2.4991,-2.4937,-2.4639,-2.4177,-2.3662,-2.3554,-2.31,-2.236,-2.2979,-2.3327,-2.3393,-2.3776,-2.4096,-2.4261,-2.4302,-2.4302,-2.4302,-2.4302,-2.4302,-2.4179,-2.3548,-2.2809,-2.2015,-2.1275,-2.089,-2.0895,-2.1031,-2.115,-2.1308,-2.1781,-2.2106,-2.2135,-2.2147,-2.2203,-2.226,-2.2354,-2.248,-2.2588,-2.2703,-2.2978,-2.3719,-2.454,-2.5269,-2.5979,-2.6764,-2.7374,-2.7725,-2.8201,-2.8489,-2.859,-2.8821,-2.8975,-2.8975,-2.8975,-2.8975,-2.8975,-2.8975,-2.8975,-2.8975,-2.8975,-2.8975,-2.8957,-2.8962,-2.865,-2.7915,-2.7273,-2.641,-2.5605,-2.509,-2.4815,-2.43,-2.419,-2.419,-2.419,-2.419,-2.417,-2.4113,-2.417,-2.419,-2.4151,-2.4094,-2.4077,-2.4116,-2.4116,-2.432,-2.4561,-2.4628,-2.475,-2.6063,-2.6022,-2.5371,-2.51,-2.5113,-2.5032,-2.5005,-2.5005,-2.5005,-2.5005,-2.5005,-2.5005,-2.5005,-2.5005,-2.5005,-2.5005,-2.5005,-2.5005,-2.5005,-2.5005,-2.5005,-2.5005,-2.5005,-2.5005,-2.5005,-2.5005,-2.5005,-2.5005,-2.4991,-2.4964,-2.4652,-2.415,-2.4015,-2.3472,-2.2766,-2.2951,-2.3032,-2.3078,-2.3458,-2.3823,-2.4131,-2.4219,-2.4302,-2.4302,-2.4302,-2.4302,-2.4271,-2.401,-2.3332,-2.1609,-2.0875,-2.0751,-2.0678,-2.0863,-2.107,-2.139,-2.173,-2.1915,-2.1957,-2.2015,-2.2027,-2.2186,-2.2282,-2.2394,-2.2787,-2.2936,-2.3264,-2.4016,-2.4591,-2.5355,-2.6216,-2.7087,-2.7482,-2.7713,-2.8174,-2.8601,-2.8834,-2.8929,-2.8975,-2.8975,-2.8975,-2.8975,-2.8975,-2.8975,-2.8975,-2.8975,-2.8938,-2.8828,-2.8741,-2.8558,-2.8026,-2.7236,-2.6667,-2.6135,-2.5383,-2.4685,-2.4465,-2.419,-2.419,-2.419,-2.419,-2.419,-2.419,-2.419,-2.419,-2.4151,-2.4132,-2.4074,-2.4018,-2.4145,-2.4238,-2.4609,-2.4945,-2.4894,-2.4945,-2.7325,-2.7216,-2.6145,-2.5697,-2.5615,-2.5208,-2.5018,-2.5059,-2.5018,-2.5018,-2.5018,-2.5018,-2.5005,-2.5005,-2.5005,-2.5005,-2.5005,-2.5005,-2.5005,-2.5005,-2.5005,-2.5005,-2.5005,-2.5005,-2.5005,-2.5005,-2.5005,-2.5005,-2.5005,-2.4964,-2.472,-2.4232,-2.4164,-2.3784,-2.3158,-2.31,-2.309,-2.3093,-2.3407,-2.3598,-2.3834,-2.412,-2.4261,-2.4302,-2.4302,-2.4302,-2.4194,-2.3794,-2.3302,-2.2825,-2.2224,-2.1763,-2.1636,-2.1158,-2.1243,-2.1746,-2.1817,-2.1915,-2.2163,-2.2106,-2.213,-2.2445,-2.2846,-2.3227,-2.3509,-2.3549,-2.3929,-2.4555,-2.4942,-2.5643,-2.6747,-2.7175,-2.7448,-2.7672,-2.7982,-2.8334,-2.8626,-2.8881,-2.8975,-2.8975,-2.8975,-2.8975,-2.8975,-2.8975,-2.8975,-2.8975,-2.8865,-2.8682,-2.8503,-2.8301,-2.7567,-2.6833,-2.619,-2.5676,-2.4997,-2.4447,-2.4337,-2.419,-2.419,-2.419,-2.419,-2.419,-2.419,-2.417,-2.4151,-2.4132,-2.4094,-2.3996,-2.3937,-2.4158,-2.4361,-2.4602,-2.4811,-2.4911,-2.5097,-2.7542,-2.7203,-2.628,-2.5887,-2.5792,-2.529,-2.5331,-2.5656,-2.5208,-2.5168,-2.5317,-2.5154,-2.5005,-2.5005,-2.5005,-2.5005,-2.5005,-2.5005,-2.5005,-2.5005,-2.5005,-2.5005,-2.5005,-2.5005,-2.5005,-2.5005,-2.5005,-2.5005,-2.5005,-2.4991,-2.4856,-2.4571,-2.4517,-2.4245,-2.3717,-2.3548,-2.3381,-2.314,-2.3245,-2.3408,-2.3646,-2.3806,-2.412,-2.4261,-2.4302,-2.4302,-2.4256,-2.401,-2.364,-2.3302,-2.2963,-2.2594,-2.2247,-2.1497,-2.145,-2.1837,-2.1745,-2.1694,-2.1886,-2.2185,-2.2385,-2.268,-2.3248,-2.371,-2.4059,-2.4213,-2.4527,-2.4936,-2.5374,-2.604,-2.7126,-2.7299,-2.7407,-2.7509,-2.7869,-2.8156,-2.8386,-2.8725,-2.8975,-2.8975,-2.8975,-2.8975,-2.8975,-2.8975,-2.8975,-2.8975,-2.8975,-2.881,-2.865,-2.8319,-2.742,-2.6649,-2.5878,-2.5217,-2.4575,-2.4245,-2.4263,-2.419,-2.419,-2.419,-2.419,-2.419,-2.419,-2.417,-2.4151,-2.4094,-2.4054,-2.3955,-2.3896,-2.4008,-2.4192,-2.4431,-2.46,-2.4704,-2.4967,-2.7556,-2.704,-2.6416,-2.6158,-2.6077,-2.5588,-2.5873,-2.6524,-2.5629,-2.5453,-2.5697,-2.5263,-2.5005,-2.5005,-2.5005,-2.5005,-2.5005,-2.5005,-2.5005,-2.5005,-2.4821,-2.4892,-2.4948,-2.4892,-2.4892,-2.4948,-2.5005,-2.5005,-2.5005,-2.5005,-2.4964,-2.4964,-2.4978,-2.4693,-2.4339,-2.4077,-2.3838,-2.3414,-2.3329,-2.332,-2.3496,-2.3584,-2.3861,-2.4051,-2.4261,-2.4261,-2.4302,-2.421,-2.4025,-2.3502,-2.3456,-2.3148,-2.2594,-2.1908,-2.1714,-2.2086,-2.1824,-2.1695,-2.2024,-2.2353,-2.2666,-2.2938,-2.3749,-2.429,-2.4683,-2.4991,-2.5281,-2.5582,-2.6001,-2.6557,-2.7213,-2.7299,-2.7299,-2.7421,-2.78,-2.8047,-2.821,-2.8608,-2.8952,-2.8975,-2.8975,-2.8975,-2.8975,-2.8975,-2.8975,-2.8975,-2.8975,-2.8906,-2.8705,-2.8319,-2.7438,-2.6796,-2.6135,-2.5529,-2.4905,-2.4281,-2.4281,-2.4226,-2.4208,-2.4226,-2.4226,-2.419,-2.419,-2.4151,-2.4132,-2.4074,-2.3996,-2.3937,-2.3917,-2.3917,-2.4192,-2.4577,-2.4636,-2.4567,-2.4776,-2.8383,-2.8248,-2.7651,-2.7406,-2.7298,-2.6755,-2.6606,-2.6674,-2.6077,-2.5792,-2.5819,-2.5276,-2.5005,-2.5005,-2.5005,-2.5005,-2.5005,-2.5005,-2.5005,-2.4948,-2.4708,-2.465,-2.4892,-2.4721,-2.4721,-2.4892,-2.4948,-2.4948,-2.5005,-2.5005,-2.5005,-2.5005,-2.5005,-2.4883,-2.4676,-2.4399,-2.4091,-2.3837,-2.3733,-2.3588,-2.334,-2.3487,-2.3644,-2.3756,-2.3952,-2.4177,-2.4261,-2.4261,-2.4256,-2.4164,-2.4148,-2.404,-2.3671,-2.2763,-2.2676,-2.2838,-2.2315,-2.2003,-2.2489,-2.2716,-2.3076,-2.3689,-2.4655,-2.5363,-2.5691,-2.5897,-2.6156,-2.6605,-2.6864,-2.7144,-2.7264,-2.7299,-2.7299,-2.7421,-2.7713,-2.8075,-2.821,-2.8558,-2.8952,-2.8994,-2.8994,-2.8975,-2.8975,-2.8975,-2.8975,-2.8975,-2.8975,-2.8778,-2.8466,-2.8117,-2.7548,-2.7016,-2.6557,-2.597,-2.5401,-2.474,-2.4373,-2.4281,-2.4263,-2.43,-2.4281,-2.4208,-2.419,-2.4151,-2.4074,-2.4034,-2.3976,-2.3899,-2.3937,-2.3976,-2.4379,-2.4782,-2.4584,-2.4385,-2.4438,-2.841,-2.8112,-2.7827,-2.7705,-2.761,-2.7081,-2.7189,-2.7501,-2.647,-2.6077,-2.6022,-2.5453,-2.5005,-2.5005,-2.5005,-2.5005,-2.5005,-2.5005,-2.5005,-2.4948,-2.4765,-2.4765,-2.4948,-2.4721,-2.465,-2.465,-2.465,-2.4765,-2.4991,-2.5005,-2.4948,-2.5005,-2.5005,-2.5005,-2.4935,-2.4757,-2.4402,-2.4202,-2.4014,-2.371,-2.3147,-2.332,-2.3287,-2.3349,-2.3465,-2.3681,-2.3909,-2.3952,-2.4036,-2.4204,-2.4302,-2.4302,-2.4102,-2.3794,-2.3365,-2.3406,-2.2776,-2.2448,-2.3028,-2.334,-2.3984,-2.4391,-2.5443,-2.6149,-2.6429,-2.661,-2.6885,-2.7161,-2.7299,-2.7299,-2.7299,-2.7299,-2.7299,-2.7376,-2.7672,-2.7926,-2.8156,-2.8551,-2.8767,-2.897,-2.8994,-2.8994,-2.8975,-2.8975,-2.8975,-2.8975,-2.8975,-2.8741,-2.8356,-2.8062,-2.775,-2.7438,-2.7016,-2.6392,-2.5952,-2.5511,-2.4869,-2.4649,-2.4483,-2.4502,-2.4317,-2.4243,-2.4188,-2.4132,-2.4054,-2.3955,-2.3976,-2.3937,-2.3976,-2.4034,-2.4235,-2.4381,-2.4312,-2.4277,-2.4271,-2.8315,-2.7881,-2.7881,-2.7881,-2.78,-2.7393,-2.7718,-2.8125,-2.6823,-2.6443,-2.6782,-2.5805,-2.5303,-2.5331,-2.5249,-2.5154,-2.5032,-2.5005,-2.4948,-2.4821,-2.4765,-2.4835,-2.4708,-2.4708,-2.4478,-2.4176,-2.4176,-2.4363,-2.4593,-2.4765,-2.4821,-2.4835,-2.4892,-2.5005,-2.4991,-2.4921,-2.4673,-2.4466,-2.4233,-2.3906,-2.327,-2.2875,-2.2754,-2.2814,-2.2844,-2.3113,-2.3421,-2.3465,-2.3595,-2.3867,-2.4036,-2.4135,-2.4177,-2.4261,-2.404,-2.3542,-2.311,-2.3022,-2.3347,-2.389,-2.4435,-2.4762,-2.5916,-2.6454,-2.6776,-2.692,-2.7264,-2.7299,-2.7299,-2.7299,-2.7299,-2.7299,-2.7299,-2.7345,-2.7557,-2.7818,-2.8037,-2.8352,-2.8669,-2.8834,-2.8947,-2.8994,-2.8975,-2.8975,-2.8975,-2.8975,-2.8975,-2.8975,-2.8668,-2.8448,-2.8172,-2.7934,-2.7493,-2.6851,-2.6484,-2.6392,-2.5805,-2.5364,-2.5087,-2.4959,-2.4589,-2.4258,-2.4145,-2.3935,-2.3917,-2.3816,-2.3896,-2.3976,-2.3996,-2.4034,-2.4016,-2.4014,-2.3971,-2.3969,-2.3964,-2.8546,-2.8478,-2.8478,-2.8492,-2.8451,-2.8356,-2.841,-2.8397,-2.7244,-2.7054,-2.7447,-2.6416,-2.6063,-2.6226,-2.59,-2.5493,-2.5097,-2.4973,-2.4775,-2.4549,-2.4474,-2.43,-2.393,-2.3767,-2.3872,-2.3754,-2.3695,-2.3695,-2.3872,-2.4176,-2.4408,-2.4465,-2.4835,-2.5005,-2.5005,-2.5005,-2.4935,-2.4908,-2.4867,-2.4327,-2.333,-2.2651,-2.2372,-2.2413,-2.2586,-2.2844,-2.2979,-2.3024,-2.3113,-2.3157,-2.3508,-2.3681,-2.3739,-2.4094,-2.4261,-2.4025,-2.369,-2.3452,-2.385,-2.4259,-2.4596,-2.5015,-2.5775,-2.6286,-2.6673,-2.6987,-2.7247,-2.7299,-2.7299,-2.7299,-2.7299,-2.7299,-2.7299,-2.7376,-2.7496,-2.7642,-2.7829,-2.8201,-2.8525,-2.8761,-2.8881,-2.8952,-2.8975,-2.8975,-2.8975,-2.8975,-2.8975,-2.8975,-2.8962,-2.8723,-2.8613,-2.8393,-2.8154,-2.753,-2.7181,-2.7071,-2.642,-2.5947,-2.567,-2.528,-2.4538,-2.4016,-2.3822,-2.3667,-2.3667,-2.3714,-2.3795,-2.3876,-2.3996,-2.3996,-2.3937,-2.3816,-2.3671,-2.3671,-2.371,-2.8587,-2.8587,-2.8587,-2.8587,-2.8587,-2.8587,-2.8587,-2.841,-2.7705,-2.7461,-2.7528,-2.6823,-2.6402,-2.6335,-2.5968,-2.5374,-2.4824,-2.494,-2.4758,-2.4405,-2.4334,-2.4301,-2.4287,-2.3872,-2.3577,-2.3471,-2.3305,-2.3017,-2.3173,-2.3754,-2.4279,-2.435,-2.4721,-2.5005,-2.5005,-2.5005,-2.5005,-2.491,-2.4679,-2.4259,-2.3606,-2.2821,-2.2242,-2.2228,-2.215,-2.2231,-2.248,-2.2799,-2.2889,-2.2979,-2.3334,-2.3595,-2.3638,-2.3824,-2.3994,-2.4271,-2.4056,-2.4033,-2.4272,-2.4576,-2.4869,-2.5212,-2.5763,-2.6283,-2.6639,-2.6865,-2.7095,-2.7282,-2.7299,-2.7299,-2.7299,-2.7299,-2.7299,-2.7345,-2.7452,-2.7539,-2.773,-2.8037,-2.8378,-2.8601,-2.881,-2.8881,-2.8952,-2.8994,-2.8994,-2.8975,-2.8975,-2.8975,-2.8975,-2.8925,-2.8888,-2.8888,-2.8631,-2.8301,-2.8044,-2.7824,-2.6812,-2.6257,-2.6027,-2.5433,-2.4262,-2.3701,-2.3616,-2.3522,-2.3468,-2.354,-2.3649,-2.3667,-2.3667,-2.3732,-2.3798,-2.3671,-2.3544,-2.3628,-2.3667,-2.8587,-2.8587,-2.8587,-2.8587,-2.8587,-2.8587,-2.8587,-2.8519,-2.7936,-2.7786,-2.78,-2.7461,-2.6945,-2.641,-2.6256,-2.5694,-2.4829,-2.499,-2.4786,-2.4502,-2.4395,-2.4361,-2.4103,-2.3637,-2.3292,-2.3292,-2.2896,-2.2604,-2.2714,-2.3245,-2.3884,-2.4176,-2.4708,-2.4948,-2.5005,-2.5005,-2.5005,-2.4964,-2.4462,-2.4164,-2.3852,-2.2888,-2.2464,-2.2101,-2.1839,-2.1616,-2.1983,-2.2249,-2.2466,-2.2526,-2.2889,-2.3113,-2.3157,-2.3334,-2.3638,-2.3937,-2.393,-2.4127,-2.4415,-2.4736,-2.5114,-2.5346,-2.5659,-2.6007,-2.6247,-2.6471,-2.6779,-2.707,-2.7267,-2.7299,-2.7299,-2.7299,-2.7299,-2.7299,-2.733,-2.7452,-2.76,-2.7886,-2.8093,-2.8219,-2.8474,-2.8791,-2.8881,-2.897,-2.8994,-2.8994,-2.8975,-2.8975,-2.8975,-2.8975,-2.8975,-2.8975,-2.8883,-2.8663,-2.8572,-2.8164,-2.7223,-2.6631,-2.638,-2.5763,-2.4688,-2.3958,-2.3661,-2.3531,-2.3307,-2.3164,-2.3164,-2.3259,-2.3353,-2.3491,-2.3562,-2.3495,-2.3473,-2.3518,-2.3513,-2.8587,-2.8587,-2.8587,-2.8587,-2.8587,-2.8587,-2.8587,-2.8546,-2.7976,-2.8044,-2.841,-2.8397,-2.7976,-2.7471,-2.6885,-2.6294,-2.5684,-2.5348,-2.4882,-2.4564,-2.4313,-2.4016,-2.3641,-2.3218,-2.2775,-2.2555,-2.2371,-2.2309,-2.2371,-2.2848,-2.3305,-2.3708,-2.4465,-2.4821,-2.5005,-2.5005,-2.5005,-2.491,-2.4489,-2.4245,-2.3906,-2.3173,-2.2481,-2.2251,-2.1803,-2.1423,-2.1471,-2.1698,-2.1732,-2.1746,-2.2203,-2.248,-2.2586,-2.2799,-2.3157,-2.3508,-2.3724,-2.3952,-2.4302,-2.4589,-2.4791,-2.5053,-2.5313,-2.5545,-2.5705,-2.632,-2.6652,-2.6724,-2.6957,-2.7154,-2.7218,-2.7299,-2.7218,-2.7299,-2.7299,-2.7362,-2.7483,-2.7642,-2.7829,-2.7904,-2.8138,-2.8507,-2.8743,-2.8834,-2.897,-2.8994,-2.8975,-2.8975,-2.8975,-2.8975,-2.8975,-2.8975,-2.8975,-2.892,-2.8897,-2.8383,-2.7779,-2.7229,-2.6828,-2.6177,-2.5271,-2.4646,-2.3691,-2.3352,-2.3119,-2.2903,-2.2764,-2.2935,-2.3116,-2.3259,-2.3307,-2.3283,-2.3188,-2.3157,-2.3157,-2.8587,-2.8587,-2.8587,-2.8587,-2.8587,-2.8587,-2.8587,-2.8573,-2.8356,-2.8356,-2.8587,-2.856,-2.8275,-2.7651,-2.7083,-2.6382,-2.5615,-2.537,-2.4935,-2.4503,-2.4149,-2.3963,-2.3503,-2.2997,-2.2482,-2.2494,-2.2371,-2.2197,-2.2259,-2.2616,-2.3138,-2.3708,-2.4292,-2.4708,-2.4892,-2.5005,-2.5005,-2.4964,-2.4801,-2.4666,-2.4489,-2.392,-2.3255,-2.2848,-2.2278,-2.1776,-2.1553,-2.1773,-2.1664,-2.1616,-2.1935,-2.2077,-2.2123,-2.2356,-2.2663,-2.3113,-2.3377,-2.3739,-2.4094,-2.4385,-2.4686,-2.4822,-2.5005,-2.5163,-2.5346,-2.5796,-2.6079,-2.6265,-2.6505,-2.6725,-2.6925,-2.6925,-2.6957,-2.7186,-2.7299,-2.7299,-2.7376,-2.7539,-2.7612,-2.7701,-2.8,-2.8352,-2.8507,-2.8676,-2.8834,-2.897,-2.8994,-2.8975,-2.8975,-2.8975,-2.8975,-2.8975,-2.8975,-2.8952,-2.8929,-2.8652,-2.837,-2.7797,-2.721,-2.6408,-2.5551,-2.4455,-2.3646,-2.3288,-2.2961,-2.2789,-2.2712,-2.2747,-2.2859,-2.301,-2.3084,-2.3084,-2.2952,-2.2816,-2.2868,-2.8587,-2.8587,-2.8587,-2.8587,-2.8587,-2.8587,-2.8587,-2.8587,-2.8587,-2.8587,-2.8587,-2.8573,-2.8319,-2.7726,-2.7169,-2.6492,-2.5755,-2.5365,-2.4979,-2.4497,-2.4124,-2.3956,-2.3515,-2.2997,-2.2371,-2.2543,-2.2432,-2.2197,-2.2197,-2.2555,-2.3017,-2.3531,-2.3943,-2.435,-2.4892,-2.5005,-2.5005,-2.5005,-2.5005,-2.5005,-2.491,-2.4381,-2.396,-2.3377,-2.2712,-2.2142,-2.1798,-2.1828,-2.1664,-2.1616,-2.1712,-2.1888,-2.1935,-2.2044,-2.2249,-2.2663,-2.3113,-2.348,-2.3867,-2.4261,-2.4645,-2.4798,-2.4838,-2.4982,-2.5137,-2.5363,-2.5721,-2.5892,-2.6016,-2.621,-2.6539,-2.6657,-2.6808,-2.699,-2.7267,-2.7299,-2.7345,-2.7434,-2.7496,-2.7587,-2.7829,-2.8065,-2.8174,-2.8352,-2.8676,-2.8858,-2.8994,-2.8994,-2.8975,-2.8975,-2.8975,-2.8975,-2.8975,-2.8929,-2.8863,-2.8529,-2.8174,-2.7822,-2.7208,-2.6539,-2.5663,-2.4603,-2.3852,-2.3536,-2.3209,-2.2787,-2.2632,-2.2668,-2.2694,-2.279,-2.2825,-2.2876,-2.2876,-2.2764,-2.2738,-2.8587,-2.8587,-2.8587,-2.8587,-2.8587,-2.8587,-2.8587,-2.8587,-2.8587,-2.8587,-2.8587,-2.8587,-2.8249,-2.7749,-2.7141,-2.6537,-2.5975,-2.5505,-2.5022,-2.4516,-2.4049,-2.3579,-2.3095,-2.2573,-2.2247,-2.2197,-2.2197,-2.2197,-2.2197,-2.2309,-2.2775,-2.3352,-2.3695,-2.4176,-2.4892,-2.5005,-2.5005,-2.5005,-2.5005,-2.5005,-2.4896,-2.4489,-2.4218,-2.377,-2.3133,-2.2576,-2.2151,-2.1825,-2.1683,-2.1485,-2.1471,-2.1554,-2.1554,-2.1554,-2.1746,-2.217,-2.2663,-2.3201,-2.3782,-2.4302,-2.4564,-2.4742,-2.4782,-2.4806,-2.4934,-2.5166,-2.5443,-2.554,-2.5779,-2.598,-2.621,-2.6401,-2.6539,-2.6758,-2.699,-2.7186,-2.7201,-2.7345,-2.739,-2.7452,-2.7569,-2.7713,-2.7811,-2.801,-2.843,-2.87,-2.8905,-2.8994,-2.8975,-2.8975,-2.8994,-2.8975,-2.8975,-2.8952,-2.8815,-2.8368,-2.8012,-2.7701,-2.7295,-2.6714,-2.607,-2.5235,-2.4534,-2.3977,-2.3305,-2.2728,-2.2605,-2.2552,-2.2632,-2.2712,-2.2676,-2.2685,-2.2703,-2.2729,-2.2685,-2.8587,-2.8587,-2.8183,-2.8249,-2.8587,-2.8587,-2.8587,-2.8587,-2.8587,-2.8587,-2.8522,-2.8262,-2.7987,-2.7577,-2.6892,-2.637,-2.6077,-2.5514,-2.5038,-2.4468,-2.3984,-2.3525,-2.2955,-2.2474,-2.2197,-2.2197,-2.2197,-2.2197,-2.2197,-2.2197,-2.2494,-2.3017,-2.3518,-2.4118,-2.4765,-2.5005,-2.5005,-2.5005,-2.5005,-2.5005,-2.4978,-2.4774,-2.4517,-2.4123,-2.3662,-2.3119,-2.2481,-2.2129,-2.1817,-2.1518,-2.1477,-2.141,-2.141,-2.141,-2.152,-2.1841,-2.2249,-2.3054,-2.3681,-2.412,-2.4261,-2.4467,-2.4686,-2.4726,-2.4791,-2.5013,-2.5153,-2.5192,-2.5346,-2.5519,-2.5689,-2.5815,-2.5961,-2.6315,-2.659,-2.6808,-2.6908,-2.7186,-2.7362,-2.7362,-2.7421,-2.7569,-2.7672,-2.7771,-2.812,-2.8334,-2.8533,-2.8834,-2.8905,-2.897,-2.8994,-2.8975,-2.8975,-2.8952,-2.8791,-2.829,-2.802,-2.7776,-2.7487,-2.7106,-2.644,-2.5751,-2.5131,-2.4465,-2.3529,-2.2668,-2.2632,-2.2605,-2.2623,-2.2649,-2.2623,-2.2623,-2.2703,-2.2703,-2.2676,-2.8587,-2.8522,-2.8039,-2.7987,-2.8314,-2.8327,-2.8392,-2.8587,-2.8587,-2.8587,-2.8457,-2.8052,-2.7643,-2.731,-2.6633,-2.584,-2.5652,-2.5451,-2.4602,-2.4133,-2.3893,-2.3304,-2.2763,-2.239,-2.2234,-2.2197,-2.2197,-2.2197,-2.2197,-2.2197,-2.2494,-2.2957,-2.3352,-2.3813,-2.435,-2.4593,-2.4835,-2.4892,-2.5005,-2.5005,-2.5005,-2.4924,-2.4815,-2.4503,-2.4123,-2.373,-2.3051,-2.2536,-2.2129,-2.1776,-2.1545,-2.1437,-2.141,-2.1423,-2.1471,-2.1698,-2.2203,-2.3009,-2.3681,-2.3937,-2.4021,-2.4063,-2.4426,-2.4645,-2.4726,-2.491,-2.4989,-2.5045,-2.5005,-2.5107,-2.5307,-2.5384,-2.5631,-2.5997,-2.621,-2.6436,-2.6725,-2.699,-2.7186,-2.7186,-2.733,-2.7434,-2.7539,-2.7642,-2.78,-2.7982,-2.8147,-2.8456,-2.8785,-2.8834,-2.8881,-2.8905,-2.8815,-2.8725,-2.8533,-2.8174,-2.7954,-2.7811,-2.7552,-2.7264,-2.6888,-2.6247,-2.5614,-2.4895,-2.3926,-2.3133,-2.2771,-2.2659,-2.2605,-2.2579,-2.2569,-2.2623,-2.2703,-2.2632,-2.2579,-2.8587,-2.8522,-2.7973,-2.7789,-2.7855,-2.7855,-2.8131,-2.8587,-2.8522,-2.8522,-2.8522,-2.7908,-2.7364,-2.6905,-2.6358,-2.5603,-2.4929,-2.5047,-2.429,-2.3592,-2.3496,-2.2943,-2.2546,-2.2221,-2.2197,-2.2197,-2.2197,-2.2197,-2.2197,-2.2197,-2.2432,-2.2787,-2.3113,-2.3437,-2.3747,-2.3969,-2.4408,-2.4654,-2.4991,-2.5005,-2.5005,-2.5005,-2.4951,-2.4747,-2.4476,-2.4109,-2.3473,-2.2945,-2.2403,-2.2034,-2.1708,-2.1505,-2.141,-2.1423,-2.1554,-2.1874,-2.2388,-2.292,-2.3508,-2.3666,-2.3666,-2.3724,-2.4261,-2.4498,-2.4661,-2.4806,-2.4966,-2.5005,-2.5005,-2.5005,-2.5029,-2.5246,-2.5443,-2.5652,-2.5872,-2.6175,-2.647,-2.6725,-2.6908,-2.7072,-2.7218,-2.7345,-2.7376,-2.7452,-2.7569,-2.7642,-2.78,-2.8027,-2.8317,-2.8551,-2.8601,-2.87,-2.8626,-2.8456,-2.8201,-2.7982,-2.7858,-2.7742,-2.7526,-2.7247,-2.6954,-2.6592,-2.5786,-2.5011,-2.4218,-2.3529,-2.2784,-2.2517,-2.2508,-2.248,-2.2371,-2.2453,-2.248,-2.248,-2.2398,-2.8406,-2.7987,-2.743,-2.743,-2.7789,-2.7789,-2.8118,-2.8522,-2.7855,-2.7643,-2.7973,-2.704,-2.6633,-2.6358,-2.5791,-2.516,-2.4804,-2.4506,-2.3941,-2.3472,-2.3159,-2.2739,-2.2414,-2.2197,-2.2197,-2.2197,-2.2197,-2.2197,-2.2197,-2.2197,-2.2197,-2.242,-2.2653,-2.2837,-2.3044,-2.3248,-2.3833,-2.4403,-2.4781,-2.4935,-2.5005,-2.5005,-2.5005,-2.4896,-2.4829,-2.4394,-2.3635,-2.3204,-2.2598,-2.1808,-2.1586,-2.141,-2.141,-2.1568,-2.1807,-2.203,-2.217,-2.2342,-2.2979,-2.3113,-2.3157,-2.3392,-2.3925,-2.4276,-2.4482,-2.4726,-2.4926,-2.4926,-2.4926,-2.4926,-2.4926,-2.5107,-2.5208,-2.5346,-2.5556,-2.5779,-2.6104,-2.635,-2.6573,-2.6908,-2.7055,-2.725,-2.7267,-2.733,-2.7421,-2.7404,-2.7496,-2.7689,-2.7886,-2.8138,-2.8352,-2.8482,-2.8378,-2.8201,-2.8093,-2.7915,-2.7789,-2.763,-2.7452,-2.7282,-2.7109,-2.6661,-2.5885,-2.5005,-2.4057,-2.3213,-2.2466,-2.2337,-2.2337,-2.2113,-2.2027,-2.2141,-2.2254,-2.2243,-2.2158,-2.8118,-2.7709,-2.6973,-2.6905,-2.7095,-2.6879,-2.7229,-2.7709,-2.7242,-2.731,-2.7643,-2.6701,-2.6151,-2.6102,-2.542,-2.4699,-2.423,-2.4157,-2.364,-2.2895,-2.2871,-2.2618,-2.2366,-2.2197,-2.2197,-2.2197,-2.2197,-2.2197,-2.2197,-2.2197,-2.2197,-2.2185,-2.2197,-2.2382,-2.2641,-2.3042,-2.35,-2.3987,-2.4429,-2.4738,-2.4948,-2.5005,-2.5005,-2.5005,-2.5005,-2.4503,-2.3879,-2.3595,-2.2746,-2.2024,-2.1884,-2.1458,-2.1602,-2.1902,-2.217,-2.2342,-2.231,-2.2449,-2.2799,-2.2949,-2.2949,-2.3127,-2.3625,-2.4024,-2.4234,-2.44,-2.4605,-2.4701,-2.4782,-2.4806,-2.4862,-2.4902,-2.4966,-2.5005,-2.5208,-2.5368,-2.5668,-2.5944,-2.628,-2.6641,-2.6908,-2.7105,-2.7218,-2.7267,-2.733,-2.7345,-2.7345,-2.7421,-2.76,-2.78,-2.8037,-2.8228,-2.8093,-2.7926,-2.7858,-2.776,-2.763,-2.7496,-2.739,-2.7264,-2.7195,-2.6868,-2.623,-2.504,-2.3746,-2.2969,-2.2298,-2.2181,-2.2108,-2.1878,-2.1718,-2.1853,-2.1969,-2.2027,-2.1928,-2.7723,-2.7643,-2.6633,-2.622,-2.6082,-2.5721,-2.607,-2.6905,-2.6824,-2.7124,-2.7285,-2.6476,-2.5921,-2.5536,-2.4832,-2.4181,-2.3833,-2.3676,-2.3256,-2.2246,-2.2606,-2.2534,-2.2306,-2.2197,-2.2197,-2.2197,-2.2197,-2.2197,-2.2197,-2.2197,-2.2197,-2.2197,-2.2197,-2.2283,-2.2395,-2.2848,-2.3276,-2.3716,-2.4071,-2.4408,-2.4892,-2.5005,-2.5005,-2.5005,-2.4991,-2.4856,-2.4515,-2.3974,-2.3202,-2.2742,-2.2196,-2.1561,-2.1888,-2.2184,-2.2449,-2.2526,-2.2449,-2.254,-2.2678,-2.2814,-2.2828,-2.3008,-2.3407,-2.3711,-2.3882,-2.4109,-2.4317,-2.4498,-2.458,-2.458,-2.462,-2.4742,-2.4822,-2.4926,-2.5107,-2.5208,-2.5384,-2.5668,-2.598,-2.6315,-2.6539,-2.6758,-2.7023,-2.7072,-2.7186,-2.725,-2.733,-2.733,-2.7407,-2.7569,-2.773,-2.7954,-2.78,-2.7672,-2.763,-2.7526,-2.7438,-2.733,-2.733,-2.7313,-2.7247,-2.6954,-2.6609,-2.5252,-2.3852,-2.2948,-2.2276,-2.2056,-2.1761,-2.1568,-2.1462,-2.154,-2.1661,-2.1735,-2.1615,-2.7175,-2.7095,-2.6496,-2.5943,-2.5594,-2.5873,-2.6082,-2.6371,-2.5861,-2.5847,-2.585,-2.5302,-2.4791,-2.4499,-2.4195,-2.3676,-2.3316,-2.3159,-2.2775,-2.2378,-2.2402,-2.2426,-2.2221,-2.2197,-2.2197,-2.2197,-2.2197,-2.2197,-2.2197,-2.2197,-2.2197,-2.2197,-2.2197,-2.2197,-2.2197,-2.2641,-2.3002,-2.3482,-2.3813,-2.4266,-2.4835,-2.4948,-2.5005,-2.5005,-2.5005,-2.4788,-2.4392,-2.3697,-2.2991,-2.245,-2.1821,-2.1719,-2.2077,-2.2231,-2.2417,-2.2555,-2.2463,-2.2509,-2.2601,-2.2737,-2.2783,-2.2843,-2.3098,-2.326,-2.3523,-2.3797,-2.4067,-2.425,-2.4333,-2.4333,-2.4416,-2.4539,-2.4701,-2.4862,-2.5005,-2.5068,-2.513,-2.5422,-2.5742,-2.5944,-2.621,-2.6419,-2.6725,-2.6908,-2.7023,-2.7137,-2.7267,-2.7299,-2.7299,-2.739,-2.7421,-2.7587,-2.7496,-2.7407,-2.7407,-2.739,-2.733,-2.7299,-2.7299,-2.7299,-2.7299,-2.6799,-2.6264,-2.5244,-2.4093,-2.3073,-2.2166,-2.1631,-2.137,-2.123,-2.123,-2.1324,-2.1261,-2.1293,-2.1166,-2.6633,-2.6564,-2.6013,-2.5606,-2.5382,-2.5664,-2.5804,-2.5734,-2.5453,-2.5087,-2.4707,-2.4498,-2.4242,-2.3725,-2.3544,-2.3316,-2.2931,-2.2714,-2.2498,-2.227,-2.2197,-2.2221,-2.2197,-2.2197,-2.2197,-2.2197,-2.2197,-2.2197,-2.2197,-2.2197,-2.2197,-2.2197,-2.2197,-2.2197,-2.2247,-2.2408,-2.2725,-2.3251,-2.3605,-2.4155,-2.4765,-2.4892,-2.4948,-2.5005,-2.4937,-2.4747,-2.4351,-2.3752,-2.3125,-2.2617,-2.2136,-2.1938,-2.2184,-2.2417,-2.2463,-2.2477,-2.2463,-2.2509,-2.2615,-2.2706,-2.2737,-2.2843,-2.2888,-2.3142,-2.3348,-2.361,-2.3581,-2.3711,-2.3824,-2.3824,-2.4009,-2.4177,-2.4498,-2.4701,-2.4886,-2.5045,-2.5068,-2.5185,-2.546,-2.5689,-2.5872,-2.6016,-2.628,-2.6436,-2.6539,-2.6607,-2.6808,-2.704,-2.7072,-2.7186,-2.7218,-2.7299,-2.7299,-2.7299,-2.7362,-2.7362,-2.733,-2.7299,-2.7299,-2.7299,-2.723,-2.6557,-2.5837,-2.5077,-2.4176,-2.3076,-2.2235,-2.1547,-2.1119,-2.0974,-2.1039,-2.1135,-2.1039,-2.099,-2.099,-2.6082,-2.6025,-2.5511,-2.5312,-2.5312,-2.5312,-2.5252,-2.5192,-2.518,-2.4614,-2.3851,-2.4085,-2.4001,-2.3532,-2.3135,-2.2979,-2.2763,-2.2474,-2.2246,-2.2209,-2.2197,-2.2197,-2.2197,-2.2197,-2.2197,-2.2197,-2.2197,-2.2197,-2.2197,-2.2197,-2.2197,-2.2197,-2.2197,-2.2197,-2.2359,-2.2519,-2.2847,-2.3125,-2.3531,-2.4084,-2.4469,-2.4765,-2.4948,-2.5005,-2.5005,-2.5005,-2.4652,-2.4014,-2.3351,-2.2957,-2.2582,-2.2334,-2.2324,-2.2555,-2.2555,-2.2569,-2.2615,-2.2646,-2.2706,-2.2797,-2.2843,-2.2888,-2.2888,-2.3008,-2.3216,-2.326,-2.3216,-2.326,-2.3334,-2.3465,-2.3638,-2.3867,-2.4177,-2.4457,-2.4686,-2.4846,-2.4846,-2.4886,-2.5091,-2.5313,-2.5465,-2.5577,-2.5835,-2.598,-2.6104,-2.6123,-2.628,-2.647,-2.6691,-2.6875,-2.7023,-2.7137,-2.7218,-2.725,-2.7299,-2.7299,-2.7299,-2.7299,-2.7299,-2.7299,-2.7195,-2.6799,-2.6151,-2.5223,-2.4258,-2.3234,-2.2266,-2.1439,-2.1102,-2.081,-2.086,-2.0942,-2.0958,-2.0925,-2.0958,-2.5441,-2.5453,-2.537,-2.53,-2.5288,-2.5288,-2.5071,-2.4699,-2.465,-2.4097,-2.34,-2.3159,-2.2991,-2.2498,-2.2426,-2.2378,-2.2438,-2.2221,-2.2209,-2.2197,-2.2197,-2.2197,-2.2197,-2.2197,-2.2197,-2.2197,-2.2197,-2.2197,-2.2197,-2.2197,-2.2197,-2.2197,-2.2197,-2.2197,-2.2197,-2.2432,-2.258,-2.2922,-2.3406,-2.3936,-2.4394,-2.465,-2.4948,-2.5005,-2.5005,-2.5005,-2.4678,-2.3783,-2.3526,-2.3238,-2.2895,-2.254,-2.2509,-2.2555,-2.2615,-2.2661,-2.2706,-2.2752,-2.2797,-2.2843,-2.2888,-2.2888,-2.2888,-2.2888,-2.3008,-2.3008,-2.3008,-2.3008,-2.3083,-2.3201,-2.3377,-2.3508,-2.3767,-2.4051,-2.4261,-2.4261,-2.4302,-2.4343,-2.4451,-2.4655,-2.4815,-2.5114,-2.5465,-2.5615,-2.5779,-2.5852,-2.6033,-2.621,-2.6245,-2.6505,-2.6791,-2.694,-2.7072,-2.7218,-2.7282,-2.7299,-2.7299,-2.7299,-2.7299,-2.7299,-2.7299,-2.7264,-2.6582,-2.5583,-2.4582,-2.3584,-2.2589,-2.1585,-2.1068,-2.0807,-2.0726,-2.0744,-2.0794,-2.086,-2.0893]}]]